[[{"header":{"parameterUnit":"m.s-1","parameterCategory":1,"la1":30.6,"la2":29.2853,"lo1":-89.7004,"lo2":-87.6739,"dx":0.0162,"dy":0.0183,"nx":112,"ny":82,"refTime":"2022-12-28T06:00:00:Z","depth":0,"parameterNumber":2,"parameterNumberName":"U-component_of_WINDS"},"data":[0.0,0.0,0.0,0.0,0.0,0.0,0.0,0.0,0.0,0.0,0.0,0.0,0.0,0.0,0.0,0.0,0.0,0.0,0.0,0.0,0.0,0.0,0.0,0.0,0.0,0.0,0.0,0.0,0.0,0.0,0.0,0.0,0.0,0.0,0.0,0.0,0.0,0.0,0.0,0.0,0.0,0.0,0.0,0.0,0.0,0.0,0.0,0.0,0.0,0.0,0.0,0.0,0.0,0.0,0.0,0.0,0.0,0.0,0.0,0.0,0.0,0.0,0.0,0.0,0.0,0.0,0.0,0.0,0.0,0.0,0.0,0.0,0.0,0.0,0.0,0.0,0.0,0.0,0.0,0.0,0.0,0.0,0.0,0.0,0.0,0.0,0.0,0.0,0.0,0.0,-3.4455,-3.481,-3.4624,-3.4003,-3.275,-3.3901,-3.3034,-2.9247,0.0,0.0,0.0,0.0,0.0,0.0,0.0,0.0,0.0,0.0,0.0,0.0,0.0,0.0,0.0,0.0,0.0,0.0,0.0,0.0,0.0,0.0,0.0,0.0,0.0,0.0,0.0,0.0,0.0,0.0,0.0,0.0,0.0,0.0,0.0,0.0,0.0,0.0,0.0,0.0,0.0,0.0,0.0,0.0,0.0,0.0,0.0,0.0,0.0,0.0,0.0,0.0,0.0,0.0,0.0,0.0,0.0,0.0,0.0,0.0,0.0,0.0,0.0,0.0,0.0,0.0,0.0,0.0,0.0,0.0,0.0,0.0,0.0,0.0,0.0,0.0,0.0,0.0,0.0,0.0,0.0,0.0,0.0,0.0,0.0,0.0,0.0,0.0,0.0,0.0,0.0,0.0,0.0,0.0,0.0,0.0,0.0,0.0,0.0,0.0,0.0,0.0,0.0,0.0,-3.4303,-3.6254,-3.5289,-3.4404,-3.4206,-3.4945,-3.3592,-2.9264,0.0,0.0,0.0,0.0,0.0,0.0,0.0,0.0,0.0,0.0,0.0,0.0,0.0,0.0,0.0,0.0,0.0,0.0,0.0,0.0,0.0,0.0,0.0,0.0,0.0,0.0,0.0,0.0,0.0,0.0,0.0,0.0,0.0,0.0,0.0,0.0,0.0,0.0,0.0,0.0,0.0,0.0,0.0,0.0,0.0,0.0,0.0,0.0,0.0,0.0,0.0,0.0,0.0,0.0,0.0,0.0,0.0,0.0,0.0,0.0,0.0,0.0,0.0,0.0,0.0,0.0,0.0,0.0,0.0,0.0,0.0,0.0,0.0,0.0,0.0,0.0,0.0,0.0,0.0,0.0,0.0,0.0,0.0,0.0,0.0,0.0,0.0,0.0,0.0,0.0,0.0,0.0,0.0,0.0,0.0,0.0,0.0,0.0,0.0,0.0,0.0,0.0,0.0,-3.3858,-3.5594,-3.6485,-3.5655,-3.4869,-3.4376,-3.5015,-3.3556,-2.9171,-2.9271,0.0,0.0,0.0,0.0,0.0,0.0,0.0,0.0,0.0,0.0,0.0,0.0,0.0,0.0,0.0,0.0,0.0,0.0,0.0,0.0,0.0,0.0,0.0,0.0,0.0,0.0,0.0,0.0,0.0,0.0,0.0,0.0,0.0,0.0,0.0,0.0,0.0,0.0,0.0,0.0,0.0,0.0,0.0,0.0,0.0,0.0,0.0,0.0,0.0,0.0,0.0,0.0,0.0,0.0,0.0,0.0,0.0,0.0,0.0,0.0,0.0,0.0,0.0,0.0,0.0,0.0,0.0,0.0,0.0,0.0,0.0,0.0,0.0,0.0,0.0,0.0,0.0,0.0,0.0,0.0,0.0,0.0,0.0,0.0,0.0,0.0,0.0,0.0,0.0,0.0,0.0,0.0,0.0,0.0,0.0,0.0,0.0,0.0,0.0,0.0,0.0,0.0,-3.5459,-3.6491,-3.6654,-3.5954,-3.5232,-3.4772,-3.509,-3.3572,-2.9544,-2.9681,0.0,0.0,0.0,0.0,0.0,0.0,0.0,0.0,0.0,0.0,0.0,0.0,0.0,0.0,0.0,0.0,0.0,0.0,0.0,0.0,0.0,0.0,0.0,0.0,0.0,0.0,0.0,0.0,0.0,0.0,0.0,0.0,0.0,0.0,0.0,0.0,0.0,0.0,0.0,0.0,0.0,0.0,0.0,0.0,0.0,0.0,0.0,0.0,0.0,0.0,0.0,0.0,0.0,0.0,0.0,0.0,0.0,0.0,0.0,0.0,0.0,0.0,0.0,0.0,0.0,0.0,0.0,0.0,0.0,0.0,0.0,0.0,0.0,0.0,0.0,0.0,0.0,0.0,0.0,0.0,0.0,0.0,0.0,0.0,0.0,0.0,0.0,0.0,0.0,0.0,0.0,0.0,0.0,0.0,0.0,0.0,0.0,0.0,0.0,0.0,0.0,0.0,-3.4527,-3.5917,-3.7291,-3.6169,-3.5559,-3.6195,-3.5659,-3.3969,-3.0868,-3.0177,0.0,0.0,0.0,0.0,0.0,0.0,0.0,0.0,0.0,0.0,0.0,0.0,0.0,0.0,0.0,0.0,0.0,0.0,0.0,0.0,0.0,0.0,0.0,0.0,0.0,0.0,0.0,0.0,0.0,0.0,0.0,0.0,0.0,0.0,0.0,0.0,0.0,0.0,0.0,0.0,0.0,0.0,0.0,0.0,0.0,0.0,0.0,0.0,0.0,0.0,0.0,0.0,0.0,0.0,0.0,0.0,0.0,0.0,0.0,0.0,0.0,0.0,0.0,0.0,0.0,0.0,0.0,0.0,0.0,0.0,0.0,0.0,0.0,0.0,0.0,0.0,0.0,0.0,0.0,0.0,0.0,0.0,0.0,0.0,0.0,0.0,0.0,0.0,0.0,0.0,0.0,0.0,0.0,0.0,0.0,0.0,0.0,0.0,0.0,0.0,0.0,0.0,-3.5151,-3.6833,-3.7211,-3.6428,-3.6111,-3.6787,-3.6172,-3.4698,-3.2245,0.0,0.0,0.0,0.0,0.0,0.0,0.0,0.0,0.0,0.0,0.0,0.0,0.0,0.0,0.0,0.0,0.0,0.0,0.0,0.0,0.0,0.0,0.0,0.0,0.0,0.0,0.0,0.0,0.0,0.0,0.0,0.0,0.0,0.0,0.0,0.0,0.0,0.0,0.0,0.0,0.0,0.0,0.0,0.0,0.0,0.0,0.0,0.0,0.0,0.0,0.0,0.0,0.0,0.0,0.0,0.0,0.0,0.0,0.0,0.0,0.0,0.0,0.0,0.0,0.0,0.0,0.0,0.0,0.0,0.0,0.0,0.0,0.0,0.0,0.0,0.0,0.0,0.0,0.0,0.0,0.0,0.0,0.0,0.0,0.0,0.0,0.0,0.0,0.0,0.0,0.0,0.0,0.0,0.0,0.0,0.0,0.0,0.0,0.0,0.0,0.0,0.0,-3.3534,-3.5826,-3.7469,-3.7774,-3.7012,-3.6754,-3.74,-3.6572,-3.5287,-3.3638,0.0,0.0,0.0,0.0,0.0,0.0,0.0,0.0,0.0,0.0,0.0,0.0,0.0,0.0,0.0,0.0,0.0,0.0,0.0,0.0,0.0,0.0,0.0,0.0,0.0,0.0,0.0,0.0,0.0,0.0,0.0,0.0,0.0,0.0,0.0,0.0,0.0,0.0,0.0,0.0,0.0,0.0,0.0,0.0,0.0,0.0,0.0,0.0,0.0,0.0,0.0,0.0,0.0,0.0,0.0,0.0,0.0,0.0,0.0,0.0,0.0,0.0,0.0,0.0,0.0,0.0,0.0,0.0,0.0,0.0,0.0,0.0,0.0,0.0,0.0,0.0,0.0,0.0,0.0,0.0,0.0,0.0,0.0,0.0,0.0,0.0,0.0,0.0,0.0,0.0,0.0,0.0,0.0,0.0,0.0,0.0,0.0,0.0,0.0,0.0,0.0,0.0,-3.5078,-3.6297,-3.7639,-3.9123,-3.7954,-3.7391,-3.8153,-3.6862,-3.5686,0.0,0.0,0.0,0.0,0.0,0.0,0.0,0.0,0.0,0.0,0.0,0.0,0.0,0.0,0.0,0.0,0.0,0.0,0.0,0.0,0.0,0.0,0.0,0.0,0.0,0.0,0.0,0.0,0.0,0.0,0.0,0.0,0.0,0.0,0.0,0.0,0.0,0.0,0.0,0.0,0.0,0.0,0.0,0.0,0.0,0.0,0.0,0.0,0.0,0.0,0.0,0.0,0.0,0.0,0.0,0.0,0.0,0.0,0.0,0.0,0.0,0.0,0.0,0.0,0.0,0.0,0.0,0.0,0.0,0.0,0.0,0.0,0.0,0.0,0.0,0.0,0.0,0.0,0.0,0.0,0.0,0.0,0.0,0.0,0.0,0.0,0.0,0.0,0.0,0.0,0.0,0.0,0.0,0.0,0.0,0.0,0.0,0.0,0.0,0.0,0.0,0.0,0.0,-3.4268,-3.562,-3.689,-3.7803,-3.7082,-3.7034,-3.8235,-3.7034,-3.6302,-3.6521,0.0,0.0,0.0,0.0,0.0,0.0,0.0,0.0,0.0,0.0,0.0,0.0,0.0,0.0,0.0,0.0,0.0,0.0,0.0,0.0,0.0,0.0,0.0,0.0,0.0,0.0,0.0,0.0,0.0,0.0,0.0,0.0,0.0,0.0,0.0,0.0,0.0,0.0,0.0,0.0,0.0,0.0,0.0,0.0,0.0,0.0,0.0,0.0,0.0,0.0,0.0,0.0,0.0,0.0,0.0,0.0,0.0,0.0,0.0,0.0,0.0,0.0,0.0,0.0,0.0,0.0,0.0,0.0,0.0,0.0,0.0,0.0,0.0,0.0,0.0,0.0,0.0,0.0,0.0,0.0,0.0,0.0,0.0,0.0,0.0,0.0,0.0,0.0,0.0,0.0,0.0,0.0,0.0,0.0,0.0,0.0,0.0,0.0,0.0,0.0,0.0,0.0,-3.4832,-3.5974,-3.7278,-3.8792,-3.8062,-3.7852,-3.8711,-3.7506,-3.673,-3.6814,0.0,0.0,0.0,0.0,0.0,0.0,0.0,0.0,0.0,0.0,0.0,0.0,0.0,0.0,0.0,0.0,0.0,0.0,0.0,0.0,0.0,0.0,0.0,0.0,0.0,0.0,0.0,0.0,0.0,0.0,0.0,0.0,0.0,0.0,0.0,0.0,0.0,0.0,0.0,0.0,0.0,0.0,0.0,0.0,0.0,0.0,0.0,0.0,0.0,0.0,0.0,0.0,0.0,0.0,0.0,0.0,0.0,0.0,0.0,0.0,0.0,0.0,0.0,0.0,0.0,0.0,0.0,0.0,0.0,0.0,0.0,0.0,0.0,0.0,0.0,0.0,0.0,0.0,0.0,0.0,0.0,0.0,0.0,0.0,0.0,0.0,0.0,0.0,0.0,0.0,0.0,0.0,0.0,0.0,0.0,0.0,0.0,0.0,0.0,0.0,0.0,0.0,-3.6279,-3.6912,-3.823,-4.0845,-3.9927,-3.917,-3.9307,-3.8086,-3.705,-3.645,0.0,0.0,0.0,0.0,0.0,0.0,0.0,0.0,0.0,0.0,0.0,0.0,0.0,0.0,0.0,0.0,0.0,0.0,0.0,0.0,0.0,0.0,0.0,0.0,0.0,0.0,0.0,0.0,0.0,0.0,0.0,0.0,0.0,0.0,0.0,0.0,0.0,0.0,0.0,0.0,0.0,0.0,0.0,0.0,0.0,0.0,0.0,0.0,0.0,0.0,0.0,0.0,0.0,0.0,0.0,0.0,0.0,0.0,0.0,0.0,-3.2765,-3.0387,0.0,0.0,0.0,0.0,0.0,0.0,0.0,0.0,0.0,0.0,0.0,0.0,0.0,0.0,0.0,0.0,0.0,0.0,0.0,0.0,0.0,0.0,0.0,0.0,0.0,0.0,0.0,0.0,0.0,0.0,0.0,0.0,0.0,0.0,0.0,0.0,0.0,0.0,0.0,0.0,-3.6927,-3.6863,-3.7277,-3.8861,-3.8284,-3.8016,-3.8568,-3.7843,-3.7311,-3.7172,-3.7456,0.0,0.0,0.0,0.0,0.0,0.0,0.0,0.0,0.0,0.0,0.0,0.0,0.0,0.0,0.0,0.0,0.0,0.0,0.0,0.0,0.0,0.0,0.0,0.0,0.0,0.0,0.0,0.0,0.0,0.0,0.0,0.0,0.0,0.0,0.0,0.0,0.0,0.0,0.0,0.0,0.0,0.0,0.0,0.0,0.0,0.0,0.0,0.0,0.0,0.0,0.0,0.0,0.0,0.0,0.0,0.0,0.0,0.0,0.0,-3.5368,-3.3438,0.0,0.0,0.0,0.0,0.0,0.0,0.0,0.0,0.0,0.0,0.0,0.0,0.0,0.0,0.0,0.0,0.0,0.0,0.0,0.0,0.0,0.0,0.0,0.0,0.0,0.0,0.0,0.0,0.0,0.0,0.0,0.0,0.0,0.0,0.0,0.0,0.0,0.0,0.0,0.0,-3.6734,-3.6628,-3.7357,-3.9677,-3.929,-3.9285,-4.0366,-3.9495,-3.8746,-3.8419,-3.839,0.0,0.0,0.0,0.0,0.0,0.0,0.0,0.0,0.0,0.0,0.0,0.0,0.0,0.0,0.0,0.0,0.0,0.0,0.0,0.0,0.0,0.0,0.0,0.0,0.0,0.0,0.0,0.0,0.0,0.0,0.0,0.0,0.0,0.0,0.0,0.0,0.0,0.0,0.0,0.0,0.0,0.0,0.0,0.0,0.0,0.0,0.0,0.0,0.0,0.0,0.0,0.0,0.0,-3.7152,-3.7211,-3.6668,-3.7528,-3.8236,-3.8676,-3.7503,-3.6451,-3.5472,-3.4633,0.0,0.0,0.0,0.0,0.0,0.0,0.0,0.0,0.0,0.0,0.0,0.0,0.0,0.0,0.0,0.0,0.0,0.0,0.0,0.0,0.0,0.0,0.0,0.0,-3.6172,-3.6155,-3.4353,0.0,0.0,0.0,0.0,0.0,0.0,0.0,0.0,0.0,0.0,0.0,-3.6831,-3.6827,-3.7932,-4.1071,-4.0813,-4.0967,-4.2349,-4.1357,-4.0388,-3.9724,-3.9244,-3.8303,0.0,0.0,0.0,0.0,0.0,0.0,0.0,0.0,0.0,0.0,0.0,0.0,0.0,0.0,0.0,0.0,0.0,0.0,0.0,0.0,0.0,0.0,0.0,0.0,0.0,0.0,0.0,0.0,0.0,0.0,0.0,0.0,-2.6992,-2.7245,0.0,0.0,0.0,0.0,0.0,0.0,0.0,0.0,0.0,0.0,0.0,0.0,0.0,-3.4726,-3.4904,-3.5668,-3.6128,-3.6245,-3.7476,-3.8039,-3.7989,-3.9375,-4.0055,-4.0138,-3.9939,0.0,-3.6937,-3.811,0.0,0.0,0.0,0.0,0.0,0.0,0.0,0.0,0.0,0.0,0.0,0.0,0.0,0.0,0.0,0.0,0.0,0.0,0.0,0.0,0.0,0.0,-3.7231,-3.7843,-3.8034,-3.8019,0.0,-3.6091,-3.4502,-3.3907,-3.3765,0.0,0.0,0.0,0.0,0.0,0.0,0.0,-3.8998,-3.8504,-3.8752,-4.0383,-4.0477,-4.0713,-4.1509,-4.1379,-4.1006,-4.0405,-4.0772,-4.015,-3.8207,-3.7454,0.0,0.0,0.0,0.0,0.0,0.0,0.0,0.0,0.0,0.0,0.0,0.0,0.0,0.0,0.0,0.0,0.0,0.0,0.0,0.0,0.0,0.0,0.0,0.0,0.0,0.0,0.0,0.0,0.0,-2.7264,-2.8777,-3.0116,-2.977,-2.9753,0.0,0.0,0.0,0.0,0.0,0.0,0.0,0.0,0.0,-3.5235,-3.5969,-3.6703,-3.7502,-3.8199,-3.8738,-3.9136,-4.016,-4.0387,-4.0023,-4.111,-4.1591,-4.1591,-4.1591,-4.1028,-4.01,-3.9605,-3.8659,-3.7569,0.0,0.0,0.0,0.0,-3.712,-3.6934,-3.7134,-3.6983,-3.6691,-3.6819,0.0,0.0,0.0,0.0,0.0,0.0,0.0,0.0,0.0,0.0,-3.8735,-3.9847,-3.9499,-3.908,-3.9439,-3.878,-3.7759,0.0,-3.6524,-3.6965,-3.8355,0.0,0.0,0.0,0.0,-3.9259,-3.8899,-3.9249,-3.992,-4.0948,-4.1343,-4.1977,-4.3112,-4.2813,-4.2318,-4.1669,-4.1162,-4.034,-3.9056,-3.7512,-3.6034,0.0,0.0,0.0,0.0,0.0,0.0,0.0,0.0,0.0,0.0,0.0,0.0,0.0,0.0,0.0,0.0,0.0,0.0,0.0,0.0,0.0,0.0,0.0,0.0,0.0,0.0,0.0,0.0,-2.9551,-3.1096,-3.2812,-3.2135,-3.1842,0.0,0.0,0.0,0.0,0.0,0.0,-3.4881,-3.5759,-3.6578,-3.7253,-3.7926,-3.8871,-4.0127,-4.0647,-4.1276,-4.196,-4.2506,-4.2489,-4.2005,-4.275,-4.3065,-4.3065,-4.3065,-4.3181,-4.3181,-4.1045,-4.0086,-3.9904,-4.0027,-4.0054,-3.9941,-3.8977,-3.85,-3.8338,-3.8291,-3.7944,-3.7671,-3.8486,-3.8809,-3.8846,-3.8493,0.0,0.0,0.0,0.0,-3.9068,-3.9681,-3.9949,-4.0436,-4.1813,-4.1384,-4.0801,-4.1294,-4.1535,-4.1103,0.0,-3.8824,-3.9431,-4.0839,0.0,0.0,-4.1112,-4.0507,-3.9727,-3.9227,-3.9888,-4.0775,-4.1698,-4.2172,-4.2907,-4.4174,-4.3763,-4.3181,-4.2526,-4.1716,-4.0885,-4.0035,-3.8321,-3.6934,-3.6013,0.0,0.0,0.0,0.0,0.0,0.0,0.0,0.0,0.0,0.0,0.0,0.0,0.0,0.0,0.0,0.0,0.0,0.0,0.0,0.0,0.0,0.0,0.0,0.0,0.0,0.0,0.0,0.0,0.0,-3.504,-3.5525,0.0,0.0,0.0,0.0,-3.6088,-3.6766,-3.7152,-3.7062,-3.84,-3.9495,-4.016,-4.0829,-4.1574,-4.2324,-4.2373,-4.2754,-4.3482,-4.3515,-4.3515,-4.3499,-4.4257,-4.4572,-4.4572,-4.4572,-4.4986,-4.545,-4.3264,-4.1939,-4.1309,-4.1309,-4.1309,-4.1373,-4.201,-4.1805,-4.1171,-4.1183,-4.1182,-4.1055,-4.0456,-4.0238,-4.009,-3.9431,-3.9654,0.0,0.0,-4.0125,-4.1148,-4.1265,-4.1775,-4.2584,-4.3853,-4.4107,-4.4077,-4.4107,-4.4637,-4.3999,0.0,-3.9871,-4.0327,-4.0432,0.0,-4.1288,-4.1385,-4.134,-4.131,-4.1272,-4.0741,-4.0913,-4.2209,-4.2359,-4.2644,-4.3304,-4.3396,-4.3119,-4.2442,-4.2993,-4.2719,-4.1355,-4.0647,-3.9628,-3.8157,-3.6795,0.0,0.0,0.0,0.0,0.0,0.0,0.0,0.0,0.0,0.0,0.0,0.0,0.0,0.0,0.0,0.0,0.0,0.0,0.0,0.0,0.0,0.0,0.0,0.0,0.0,0.0,0.0,0.0,-3.5847,-3.6069,0.0,-3.8003,-3.7378,-3.7261,-3.8211,-3.8942,-3.9295,-3.9269,-4.0619,-4.1503,-4.174,-4.2899,-4.3645,-4.391,-4.439,-4.4754,-4.5019,-4.5019,-4.5019,-4.5019,-4.5284,-4.54,-4.54,-4.54,-4.5549,-4.5732,-4.4953,-4.4473,-4.4274,-4.4754,-4.4937,-4.496,-4.5212,-4.5156,-4.4799,-4.3806,-4.346,-4.3343,-4.258,-4.2587,-4.2741,-4.2078,-4.2342,-4.2697,-4.213,-4.2568,-4.3253,-4.3234,-4.3748,-4.4481,-4.5394,-4.5274,-4.5065,-4.5514,-4.5451,-4.4896,-4.3459,-4.2727,-4.2584,-4.3409,-4.2342,-4.1803,-4.3075,-4.259,-4.1901,-4.1467,-4.1908,-4.2312,-4.2396,-4.2746,-4.309,-4.3275,-4.3341,-4.3059,-4.2433,-4.2651,-4.2369,-4.1457,-4.077,-4.0,-3.9038,-3.8506,-3.7661,0.0,0.0,0.0,0.0,0.0,0.0,0.0,0.0,0.0,0.0,0.0,0.0,0.0,0.0,0.0,0.0,0.0,0.0,0.0,0.0,0.0,0.0,0.0,0.0,0.0,-3.4135,-3.5561,-3.6827,-3.7136,-3.7818,-3.9328,-3.8966,-3.9129,-4.0342,-4.11,-4.1574,-4.1851,-4.2965,-4.3611,-4.3611,-4.4556,-4.5185,-4.5433,-4.5914,-4.6295,-4.6527,-4.6527,-4.6527,-4.6527,-4.6527,-4.6527,-4.6527,-4.6527,-4.6527,-4.6527,-4.6527,-4.6527,-4.6576,-4.7073,-4.7421,-4.7589,-4.7299,-4.7175,-4.6961,-4.5387,-4.4839,-4.4737,-4.4203,-4.4317,-4.4556,-4.4122,-4.4302,-4.4556,-4.4152,-4.4332,-4.4706,-4.493,-4.5319,-4.5813,-4.6501,-4.6307,-4.6097,-4.6561,-4.6292,-4.5963,-4.5963,-4.4916,-4.4313,-4.5147,-4.3853,-4.3225,-4.4766,-4.3673,-4.2701,-4.2701,-4.288,-4.2925,-4.2701,-4.3269,-4.3618,-4.3618,-4.4246,-4.4197,-4.3129,-4.3698,-4.3564,-4.2417,-4.2704,-4.247,-4.1539,-4.0646,-3.9914,-3.9327,0.0,0.0,0.0,0.0,0.0,0.0,0.0,0.0,0.0,0.0,0.0,0.0,0.0,0.0,0.0,0.0,0.0,0.0,0.0,0.0,0.0,0.0,0.0,-3.4319,-3.4801,-3.6013,-3.8151,-3.9003,-3.9934,-4.1342,-4.148,-4.1794,-4.2539,-4.3251,-4.3992,-4.4688,-4.5417,-4.5814,-4.5814,-4.5847,-4.6195,-4.6924,-4.6924,-4.7289,-4.8001,-4.8001,-4.8001,-4.8001,-4.8001,-4.8001,-4.8001,-4.8001,-4.8001,-4.8001,-4.8001,-4.8017,-4.8034,-4.8067,-4.8514,-4.9041,-4.8178,-4.782,-4.7554,-4.5961,-4.5391,-4.5349,-4.5349,-4.5349,-4.5349,-4.5349,-4.5349,-4.5349,-4.5349,-4.5349,-4.5514,-4.6172,-4.6309,-4.6474,-4.716,-4.7309,-4.7309,-4.7309,-4.7309,-4.7309,-4.7309,-4.6247,-4.5349,-4.5349,-4.5349,-4.5559,-4.6175,-4.4605,0.0,-4.5125,-4.3668,-4.2701,-4.3319,-4.3947,-4.4377,-4.4377,-4.6157,-4.6441,-4.4466,-4.6172,-4.6367,-4.4421,-4.6498,-4.7064,-4.565,-4.3128,-4.1696,-4.1423,0.0,0.0,0.0,0.0,0.0,0.0,0.0,0.0,0.0,0.0,0.0,0.0,0.0,0.0,0.0,0.0,0.0,0.0,0.0,0.0,0.0,-3.4755,-3.6745,-3.7103,-3.7727,-3.8728,-4.0359,-4.1177,-4.1988,-4.2903,-4.3479,-4.4092,-4.4837,-4.5086,-4.5284,-4.5483,-4.6195,-4.6593,-4.6593,-4.7123,-4.7487,-4.7703,-4.7703,-4.7802,-4.8001,-4.8001,-4.8001,-4.8001,-4.8001,-4.8001,-4.8001,-4.8001,-4.8001,-4.8001,-4.8001,-4.8315,-4.8862,-4.9392,-4.9723,-4.9986,-5.0804,-5.03,-4.9158,-4.8724,-4.7757,-4.6756,-4.6756,-4.6756,-4.6756,-4.6756,-4.6756,-4.6756,-4.6756,-4.6756,-4.68,-4.6995,-4.704,-4.7085,-4.7264,-4.7309,-4.7309,-4.7309,-4.7309,-4.7309,-4.7309,-4.701,-4.6756,-4.6756,-4.6352,-4.6112,-4.6249,-4.5439,0.0,-4.5244,-4.4825,-4.4751,-4.5397,-4.5622,-4.5768,-4.5768,-4.6234,-4.6142,-4.5095,-4.5544,-4.5603,-4.505,-4.5638,-4.5364,-4.3995,-4.3255,-4.2651,0.0,0.0,0.0,0.0,0.0,0.0,0.0,0.0,0.0,0.0,0.0,0.0,0.0,0.0,0.0,0.0,0.0,0.0,0.0,0.0,0.0,0.0,-3.6796,-3.8664,-4.0298,-4.031,-4.0713,-4.217,-4.2982,-4.3711,-4.4456,-4.4903,-4.5467,-4.6195,-4.6245,-4.6394,-4.6709,-4.7123,-4.7355,-4.7355,-4.7785,-4.8001,-4.8001,-4.8001,-4.8001,-4.8001,-4.8001,-4.8001,-4.8001,-4.8001,-4.8001,-4.8001,-4.8001,-4.8001,-4.8001,-4.8001,-4.8431,0.0,0.0,0.0,0.0,0.0,-5.0783,-4.9343,-4.9686,-4.8723,-4.7337,-4.7737,-4.7581,-4.7309,-4.7309,-4.7309,-4.7309,-4.7309,-4.7309,-4.7309,-4.7309,-4.7309,-4.7309,-4.7309,-4.7309,-4.7309,-4.7309,-4.7309,-4.7309,-4.7309,-4.7309,0.0,-4.7309,-4.6995,-4.6944,-4.7525,-4.6518,-4.5938,-4.6596,-4.6183,-4.5837,-4.5885,-4.6463,-4.6713,-4.6322,-4.7085,0.0,0.0,0.0,-4.7149,-4.7543,-4.727,0.0,0.0,0.0,0.0,0.0,0.0,0.0,0.0,-3.9077,-3.8192,0.0,0.0,0.0,0.0,0.0,0.0,0.0,0.0,0.0,0.0,0.0,0.0,0.0,0.0,0.0,0.0,-3.9186,-4.0663,-4.3234,-4.2671,-4.2485,-4.3698,-4.4506,-4.5202,-4.5847,-4.5997,-4.6311,-4.6974,-4.7023,-4.7305,-4.7968,-4.8001,0.0,0.0,0.0,-4.8001,-4.8001,-4.8001,-4.8001,-4.8001,-4.8001,-4.8001,-4.8001,-4.8001,-4.8001,-4.8001,-4.8001,-4.8001,-4.8017,-4.81,-4.8614,-4.9409,-5.0088,-5.0767,-5.1409,-5.128,-5.0229,-4.8994,-4.9702,0.0,0.0,-4.849,-4.8214,-4.7581,-4.7467,-4.7467,-4.7424,-4.7352,-4.7309,-4.7309,-4.7309,-4.7309,-4.7309,-4.7309,-4.7309,-4.7309,-4.7309,-4.7309,-4.7309,-4.7309,-4.7309,-4.7309,-4.7309,-4.7309,-4.7733,-4.9035,-4.7643,-4.696,-4.8414,-4.7486,-4.6457,-4.5853,0.0,0.0,-4.6589,-4.822,-4.8744,-4.7384,-4.8401,-4.946,-5.0285,-4.9716,-4.8971,-4.8197,-4.7154,-4.5215,-4.2342,-4.1558,-4.1292,-4.1463,-4.1312,-4.067,0.0,0.0,0.0,0.0,0.0,0.0,0.0,0.0,0.0,0.0,0.0,0.0,0.0,0.0,0.0,-3.901,-4.1188,-4.2953,-4.3515,-4.4903,-4.5715,-4.54,-4.603,-4.6527,-4.6676,-4.7222,-4.7636,-4.7785,-4.7785,-4.7852,-4.8001,-4.8001,-4.8001,-4.8001,-4.8001,-4.8001,-4.8001,-4.8001,-4.8001,-4.8001,0.0,0.0,-4.8001,-4.8001,-4.8001,-4.8001,-4.8001,-4.8001,-4.805,-4.8647,-4.9674,-5.0901,-5.1015,-5.1547,-5.2175,-5.2164,-5.1508,-5.0647,-5.0783,-5.019,-4.9343,-4.9487,-4.9463,-4.9181,-4.8573,-4.8339,0.0,-4.751,-4.7309,-4.7309,-4.7309,-4.7309,-4.7309,-4.7309,-4.7309,-4.7309,-4.7309,-4.7309,-4.7309,-4.7309,-4.7309,-4.7309,-4.7309,-4.7309,-4.7382,-4.766,-4.7351,-4.7473,-4.8475,-4.7748,-4.7555,-4.8592,-4.838,-4.8111,-4.7951,-4.8847,-4.8855,-4.7397,-4.7534,-4.7755,-4.7957,-4.7837,-4.7417,-4.6698,-4.6331,-4.558,-4.4406,-4.3872,-4.3646,-4.3644,-4.1408,-4.0319,0.0,0.0,0.0,0.0,0.0,0.0,0.0,0.0,0.0,0.0,0.0,-3.6039,-3.7486,0.0,-3.9806,-4.121,-4.2638,-4.3979,-4.5119,-4.6212,-4.6758,-4.6394,-4.699,-4.7454,-4.7454,-4.7785,-4.8001,-4.8001,-4.8001,-4.8001,-4.8001,-4.8001,-4.8001,-4.8001,-4.8001,-4.8001,-4.8001,-4.8001,-4.8001,-4.8001,-4.8001,-4.8001,-4.8001,-4.8001,-4.8001,-4.8001,-4.8001,-4.8216,-4.8647,-4.974,-5.0618,-5.1348,-5.173,-5.2094,-5.2409,-5.2409,-5.1855,-5.1156,-5.1598,-5.0897,-4.9844,-5.029,-5.0135,-4.9647,-4.8831,-4.8615,-4.8407,-4.7538,-4.7309,-4.7309,-4.7309,-4.7309,-4.7309,-4.7309,-4.7309,-4.7309,-4.7309,-4.7309,-4.7309,-4.7309,-4.7309,-4.7309,-4.7309,-4.7309,-4.7467,-4.7892,-4.7581,-4.7624,-4.849,-4.8214,-4.8071,-4.8347,-4.8435,-4.8263,-4.7832,-4.8149,-4.8084,-4.7367,-4.7164,-4.7121,-4.7121,-4.699,-4.6606,-4.5809,-4.5809,-4.5398,-4.4649,-4.4422,-4.4308,-4.4264,-4.2769,-4.209,0.0,0.0,0.0,0.0,0.0,0.0,0.0,-3.505,-3.4647,-3.6836,-3.7269,-3.7741,-3.9262,-3.9999,-4.1143,-4.3645,-4.4144,-4.484,-4.6643,-4.7023,-4.7106,-4.7106,-4.7636,-4.8001,-4.8001,-4.8001,-4.8001,-4.8001,-4.8001,-4.8001,-4.8001,-4.8001,-4.8001,-4.8001,-4.8001,-4.8001,-4.8001,-4.8001,-4.8001,-4.8001,-4.8001,-4.8001,-4.8001,-4.8001,-4.8001,-4.8017,-4.815,-4.8713,-4.9624,-5.0835,-5.1398,-5.158,-5.2177,-5.2409,-5.2409,-5.2409,-5.1944,-5.1471,-5.2142,-5.1492,-5.0368,-5.0914,-5.0615,-4.986,-4.8887,-4.8615,-4.8407,-4.7538,-4.7399,-4.7489,-4.7489,-4.7593,-4.7683,-4.7683,-4.7593,-4.7489,-4.7489,-4.7399,-4.7309,-4.7309,-4.7309,-4.7309,-4.7309,-4.7309,-4.7538,-4.8256,-4.7737,-4.7624,-4.849,-4.8449,-4.813,-4.7624,-4.8019,-4.813,-4.7581,-4.7381,-4.7381,-4.7538,-4.7134,-4.6916,-4.6916,-4.6727,-4.6256,-4.5551,-4.5683,-4.5375,-4.4674,-4.4631,-4.4588,-4.4588,-4.4429,-4.4226,-3.3754,-3.3354,-3.3578,-3.5408,-3.4913,-3.4824,0.0,-3.8258,-3.8292,-4.042,-4.1326,-4.2237,-4.3724,-4.4056,-4.4437,-4.5384,-4.6096,-4.6626,-4.6874,-4.7454,-4.7885,-4.7885,-4.7951,-4.8001,-4.8001,-4.8001,-4.8001,-4.8001,-4.8001,-4.8001,-4.8001,-4.8001,-4.8001,-4.8001,-4.8001,-4.8001,-4.8001,-4.8001,-4.8001,-4.8001,-4.8001,-4.8001,-4.8001,-4.8001,-4.8001,-4.8034,-4.8696,-4.9773,-5.1083,-5.1249,-5.1696,-5.231,-5.2393,-5.2409,-5.2409,-5.2409,-5.2338,-5.2266,-5.2373,-5.225,-5.198,-5.1306,-5.1027,-5.0669,-4.9091,-4.8615,-4.8407,-4.7538,-4.7728,-4.8177,-4.8177,-4.8655,-4.909,-4.909,-4.8596,-4.8177,-4.8177,-4.7713,-4.7309,-4.7309,-4.7309,-4.7309,-4.7309,-4.7309,-4.7337,-4.7424,-4.7337,-4.7624,-4.849,-4.7934,-4.7694,-4.8366,-4.7864,-4.7694,-4.8407,-4.7737,-4.7624,-4.8407,-4.7465,-4.6916,-4.6916,-4.6727,-4.655,-4.6447,-4.6255,-4.6064,-4.6005,-4.5797,-4.5722,-4.5722,-4.5722,-4.5068,-3.5066,-3.5464,-3.6004,-3.7405,-3.7002,-3.7045,-3.9974,-3.9851,-3.9794,-4.2199,-4.292,-4.3449,-4.4506,-4.5036,-4.5566,-4.6311,-4.6692,-4.7057,-4.7487,-4.7819,-4.8001,-4.8001,-4.8001,-4.8001,-4.8001,-4.8001,-4.8001,-4.8001,-4.8001,-4.8001,-4.8001,-4.8001,-4.8001,-4.8001,-4.8001,-4.8001,-4.8001,-4.8001,-4.8001,-4.8001,-4.8001,-4.8001,-4.8001,-4.8001,-4.8233,-4.8713,-4.9872,-5.0752,-5.1348,-5.1779,-5.2127,-5.2409,-5.2409,-5.2622,-5.292,-5.2523,-5.2409,-5.2409,-5.2409,-5.2409,-5.2404,-5.2421,-5.2425,-5.2305,-5.1565,-5.1335,-5.1159,-5.0274,-5.024,-5.0456,-5.0456,-5.0673,-5.089,-5.089,-5.0321,-4.9811,-4.9811,-4.9285,-4.8599,-4.813,-4.8449,-4.8449,-4.7467,-4.7694,-4.8061,-4.8061,-4.7624,-4.7424,-4.7822,-4.7553,-4.7424,-4.7822,-4.751,-4.7467,-4.7822,-4.7495,-4.7467,-4.7822,-4.7264,-4.6844,-4.6712,-4.6491,-4.6314,-4.6194,-4.6105,-4.6015,-4.6015,-4.5925,-4.588,-4.588,-4.588,-4.559,-3.6547,-3.7391,-3.8062,-3.9149,-3.9009,-3.9135,-4.1161,-4.1163,-4.1349,-4.3447,-4.3997,-4.4401,-4.542,-4.587,-4.6344,-4.7073,-4.7206,-4.7388,-4.7918,-4.8001,-4.8001,-4.8001,-4.8001,-4.8001,-4.8001,-4.8001,-4.8001,-4.8001,-4.8001,-4.8001,-4.8001,-4.8001,-4.8001,-4.8001,-4.8001,-4.8001,-4.8001,-4.8001,-4.8001,-4.8001,-4.8001,-4.8117,-4.8315,-4.8514,-4.9011,-4.9773,-5.0817,-5.1431,-5.168,-5.2373,-5.2672,-5.2688,-5.2887,-5.3284,-5.3649,-5.3152,-5.297,-5.297,-5.297,-5.297,-5.3016,-5.3276,-5.3367,-5.3299,-5.3022,-5.2948,-5.2813,-5.2152,-5.2131,-5.2289,-5.2289,-5.2416,-5.2527,-5.228,-5.1695,-5.1044,-5.0611,-5.0151,-4.9583,-4.8764,-4.9075,-4.906,-4.7849,-4.7976,-4.8256,-4.8256,-4.7694,-4.7381,-4.7624,-4.7467,-4.7309,-4.7309,-4.7309,-4.7309,-4.7309,-4.7207,-4.7207,-4.7309,-4.6931,-4.6653,-4.6594,-4.6269,-4.6046,-4.588,-4.588,-4.588,-4.588,-4.588,-4.588,-4.588,-4.588,-4.588,-3.8711,-3.9042,-3.9342,-4.062,-4.092,-4.1043,-4.1566,-4.2511,-4.3542,-4.447,-4.5032,-4.5866,-4.759,-4.7323,-4.7106,-4.7852,-4.7968,-4.7968,-4.8001,-4.8001,-4.8001,-4.8001,-4.8001,-4.8001,-4.8001,-4.8001,-4.8001,-4.8001,-4.8001,-4.8001,-4.8001,-4.8001,-4.8001,-4.8001,-4.8001,-4.8001,-4.8001,-4.8001,-4.8001,-4.8001,-4.8001,-4.8382,-4.9094,-4.9823,-5.0535,-5.1249,-5.1299,-5.173,-5.2407,-5.3102,-5.3384,-5.345,-5.4179,-5.444,-5.444,-5.4423,-5.4423,-5.4423,-5.4423,-5.4423,-5.4295,-5.3557,-5.3308,-5.3152,-5.2274,-5.2046,-5.203,-5.2005,-5.2479,-5.296,-5.296,-5.345,-5.3755,-5.306,-5.2365,-5.1423,-4.9866,-4.9665,-4.9583,-4.8764,-4.8599,-4.8599,-4.8573,-4.7892,-4.7352,-4.7352,-4.7309,-4.7624,-4.8449,-4.7822,-4.7309,-4.7309,-4.7309,-4.7309,-4.7309,-4.7062,-4.7019,-4.7266,-4.6624,-4.6358,-4.6594,-4.615,-4.5925,-4.588,-4.588,-4.588,-4.588,-4.588,-4.588,-4.588,-4.588,-4.588,-3.9958,-4.0682,-4.1795,-4.2749,-4.2978,-4.3245,-4.4138,-4.4708,-4.526,-4.5934,-4.6207,-4.6807,-4.8366,-4.806,-4.7824,-4.8596,-4.8576,-4.8356,-4.8033,-4.826,-4.8356,-4.8033,-4.8001,-4.8001,-4.8001,-4.8001,-4.8001,-4.8001,-4.8001,-4.8001,-4.8001,-4.8001,-4.8001,-4.8001,-4.8001,-4.8001,-4.8001,-4.8001,-4.8249,-4.8746,-4.9243,-4.9607,-4.9856,-5.0585,-5.1313,-5.2061,-5.2489,-5.3119,-5.3814,-5.4046,-5.4146,-5.4125,-5.439,-5.4787,-5.5218,-5.5218,-5.5554,-5.5819,-5.4858,-5.449,-5.4518,-5.4771,-5.4843,-5.4848,-5.5058,-5.5126,-5.5126,-5.5126,-5.5289,-5.5429,-5.5429,-5.5609,-5.5625,-5.4868,-5.4525,-5.3926,-5.2436,-5.2135,-5.1804,-5.0518,-5.0723,-5.0745,-4.9583,-4.9141,-4.8599,-4.7467,-4.7309,-4.7424,-4.7709,-4.7467,-4.7309,-4.7309,-4.7309,-4.7309,-4.7309,-4.7207,-4.7207,-4.7309,-4.6887,-4.6668,-4.6594,-4.6269,-4.606,-4.588,-4.588,-4.588,-4.588,-4.588,-4.588,-4.588,-4.588,-4.588,-4.1596,-4.2503,-4.3739,-4.4542,-4.4758,-4.4913,-4.562,-4.595,-4.6326,-4.7031,-4.7087,-4.7421,-4.875,-4.8525,-4.8331,-4.8956,-4.8988,-4.881,-4.845,-4.8576,-4.8593,-4.8292,-4.8082,-4.8066,-4.8244,-4.8099,-4.8001,-4.8001,-4.8001,-4.8001,-4.8001,-4.8001,-4.8001,-4.8001,-4.8001,-4.8001,-4.8001,-4.8001,-4.8382,-4.9127,-5.0386,-5.0982,-5.1015,-5.1993,-5.2688,-5.3169,-5.3616,-5.408,-5.4506,-5.4771,-5.487,-5.4903,-5.5189,-5.5587,-5.6001,-5.6001,-5.6299,-5.6547,-5.562,-5.5289,-5.5371,-5.5852,-5.6001,-5.6084,-5.6547,-5.668,-5.668,-5.668,-5.668,-5.668,-5.668,-5.668,-5.6498,-5.5764,-5.5383,-5.4861,-5.3609,-5.3201,-5.2752,-5.1674,-5.1724,-5.1582,-5.0461,-5.0017,-4.9343,-4.7976,-4.7779,-4.7651,-4.7337,-4.7207,-4.7164,-4.7164,-4.7077,-4.7077,-4.7164,-4.7077,-4.7077,-4.7164,-4.6844,-4.6565,-4.6447,-4.6225,-4.6046,-4.588,-4.588,-4.588,-4.588,-4.588,-4.588,-4.588,-4.588,-4.588,-4.3557,-4.4407,-4.5161,-4.5947,-4.6123,-4.6098,-4.6,-4.6286,-4.6808,-4.7637,-4.7588,-4.7689,-4.8773,-4.8741,-4.8664,-4.9028,-4.9281,-4.9355,-4.9158,-4.8917,-4.8765,-4.8702,-4.8292,-4.8212,-4.8608,-4.826,-4.8001,-4.8001,-4.8001,-4.8001,-4.8001,-4.8001,-4.8001,-4.8001,-4.8001,-4.8001,-4.8001,-4.8117,-4.8547,-4.9309,-5.1462,-5.2525,-5.2539,-5.3897,-5.4506,-5.4539,-5.4539,-5.4556,-5.4692,-5.535,-5.5648,-5.5714,-5.6432,-5.668,-5.668,-5.668,-5.668,-5.668,-5.668,-5.668,-5.668,-5.668,-5.668,-5.668,-5.668,-5.668,-5.668,-5.668,-5.668,-5.668,-5.668,-5.668,-5.6498,-5.5764,-5.5085,-5.4369,-5.3529,-5.2901,-5.2439,-5.2308,-5.1664,-5.1156,-5.1118,-5.0422,-4.9583,-4.8805,-4.8641,-4.8297,-4.7424,-4.7062,-4.6916,-4.6916,-4.6712,-4.6668,-4.6873,-4.6727,-4.6683,-4.6887,-4.6476,-4.621,-4.621,-4.6015,-4.588,-4.588,-4.588,-4.588,-4.588,-4.588,-4.588,-4.588,-4.588,-4.588,-4.4395,-4.5196,-4.5925,-4.6537,-4.6707,-4.6776,-4.7151,-4.7302,-4.7299,-4.6924,-4.6791,-4.7136,-4.8383,-4.8123,-4.8225,-4.9866,-5.0003,-4.9786,-4.9385,-4.958,-4.9492,-4.8796,-4.8593,-4.8435,-4.8212,-4.8066,-4.8001,-4.8001,-4.8001,-4.8001,-4.8001,-4.8001,-4.8001,-4.8001,-4.8001,-4.8001,-4.8001,-4.9624,-5.0817,-5.1562,-5.3202,-5.3964,-5.3997,-5.4361,-5.4787,-5.5301,-5.5301,-5.5636,-5.615,-5.6332,-5.6415,-5.6432,-5.6614,-5.668,-5.668,-5.668,-5.668,-5.668,-5.668,-5.668,-5.668,-5.668,-5.668,-5.668,-5.668,-5.668,-5.668,-5.668,-5.668,-5.668,-5.668,-5.668,-5.6498,-5.5764,-5.5885,-5.5797,-5.4479,-5.4064,-5.3791,-5.321,-5.2547,-5.1855,-5.1194,-5.0914,-5.0461,-4.9623,-4.8994,-4.8297,-4.7424,-4.7062,-4.6916,-4.6916,-4.6712,-4.6668,-4.6873,-4.6727,-4.6683,-4.6887,-4.6476,-4.621,-4.621,-4.6015,-4.588,-4.588,-4.588,-4.588,-4.588,-4.588,-4.588,-4.588,-4.588,-4.588,-4.5541,-4.6407,-4.7104,-4.7626,-4.7779,-4.7665,-4.7274,-4.7174,-4.7065,-4.6595,-4.6214,-4.6427,-4.7886,-4.7907,-4.8247,-4.9882,-5.032,-5.0335,-4.9942,-5.0017,-4.9902,-4.9372,-4.9148,-4.8995,-4.8951,-4.8562,-4.8292,-4.8292,-4.8115,-4.8001,-4.8001,-4.8001,-4.8001,-4.8001,-4.8315,-4.8796,-4.9425,-5.128,-5.2423,-5.2854,-5.4311,-5.497,-5.497,-5.5322,-5.5703,-5.6084,-5.6084,-5.6316,-5.668,-5.668,-5.668,-5.668,-5.668,-5.6895,-5.7177,-5.7177,-5.7376,-5.7657,-5.7657,-5.7657,-5.7558,-5.6895,-5.668,-5.668,-5.668,-5.668,-5.668,-5.668,-5.668,-5.668,-5.668,-5.668,-5.6581,-5.6183,-5.615,-5.6001,-5.5135,-5.4721,-5.4394,-5.3943,-5.3583,-5.3056,-5.2253,-5.2113,-5.1556,-5.001,-4.9423,-4.8625,-4.7322,-4.6931,-4.6712,-4.6609,-4.6403,-4.6358,-4.6565,-4.6491,-4.6491,-4.6565,-4.6343,-4.6165,-4.609,-4.597,-4.588,-4.588,-4.588,-4.588,-4.588,-4.588,-4.588,-4.588,-4.588,-4.588,-4.6774,-4.7589,-4.8186,-4.8768,-4.8818,-4.8348,-4.6848,-4.6504,-4.645,-4.6232,-4.5544,-4.5452,-4.7,-4.7411,-4.7949,-4.931,-5.0242,-5.0733,-5.0587,-5.0443,-5.028,-5.0119,-4.9727,-4.9639,-4.9959,-4.9252,-4.8765,-4.8702,-4.8324,-4.8066,-4.8001,-4.8001,-4.81,-4.8299,-4.9011,-5.0104,-5.1545,-5.2887,-5.3616,-5.3732,-5.5069,-5.5731,-5.5786,-5.6398,-5.668,-5.668,-5.668,-5.668,-5.668,-5.668,-5.668,-5.668,-5.668,-5.7144,-5.779,-5.779,-5.827,-5.8899,-5.8899,-5.8899,-5.8668,-5.7276,-5.6829,-5.6812,-5.6713,-5.668,-5.668,-5.668,-5.668,-5.668,-5.668,-5.668,-5.668,-5.668,-5.6216,-5.5747,-5.5847,-5.5322,-5.4738,-5.4638,-5.4593,-5.4345,-5.3814,-5.3616,-5.2786,-5.0579,-5.009,-4.9266,-4.7412,-4.6815,-4.6506,-4.621,-4.6001,-4.597,-4.6165,-4.6165,-4.6165,-4.621,-4.6253,-4.6222,-4.6011,-4.6084,-4.6142,-4.6142,-4.6142,-4.6098,-4.6011,-4.6011,-4.5967,-4.588,-4.5967,-4.5967,-4.7497,-4.7846,-4.7955,-4.8706,-4.8384,-4.7663,-4.6721,-4.6504,-4.6124,-4.4784,-4.3878,-4.369,-4.4904,-4.4778,-4.5382,-4.8254,-4.9535,-5.0312,-5.0768,-5.1317,-5.1291,-5.0217,-5.0017,-4.9844,-4.9551,-4.9372,-4.9118,-4.8733,-4.8608,-4.842,-4.8033,-4.8001,-4.8564,-4.979,-5.0518,-5.1595,-5.3036,-5.3897,-5.4643,-5.5218,-5.61,-5.6498,-5.6498,-5.663,-5.668,-5.668,-5.668,0.0,-5.668,-5.668,-5.668,-5.668,-5.668,-5.7144,-5.779,-5.779,-5.827,-5.8899,-5.8899,-5.8899,-5.875,-5.7889,-5.7608,-5.7492,-5.6862,-5.668,-5.668,-5.668,-5.668,-5.668,-5.668,-5.668,-5.668,-5.668,-5.6597,-5.668,-5.7293,-5.6829,-5.6133,-5.5554,-5.4903,-5.4638,-5.5118,-5.4705,-5.3926,-5.2766,-5.1511,-5.0172,-4.8678,-4.736,-4.6506,-4.621,-4.6001,-4.597,-4.6165,-4.6046,-4.6001,-4.621,-4.6496,-4.6664,-4.6664,-4.7172,-4.7448,-4.7448,-4.7448,-4.7201,-4.6664,-4.6664,-4.6403,-4.5895,-4.6417,-4.6388,-4.8645,-4.8738,-4.8532,-4.9329,-4.8931,-4.7877,-4.625,-4.5888,-4.5417,-4.3806,-4.2846,-4.2553,-4.3548,-4.3619,-4.4196,-4.6135,-4.8052,-4.9512,-5.018,-5.0926,-5.1335,-5.1113,-5.0736,-5.0436,-5.0211,-4.9919,-4.9669,-4.9449,-4.9583,-4.9354,-4.8597,-4.9293,-5.0506,-5.2281,-5.2751,-5.3483,-5.4506,-5.5289,-5.5819,-5.6183,-5.6531,-5.668,-5.668,-5.668,-5.668,-5.668,-5.668,-5.668,-5.668,-5.668,-5.668,-5.673,-5.7111,-5.7707,-5.8419,-5.88,-5.9413,-6.0042,-6.0042,-6.0042,-5.9926,-5.9181,-5.8684,-5.822,-5.7492,-5.726,-5.7177,-5.6796,-5.668,-5.6779,-5.716,-5.726,-5.7359,-5.774,-5.7243,-5.6895,-5.7624,-5.6928,-5.6249,-5.6663,-5.615,-5.5769,-5.6117,-5.5194,-5.3974,-5.2701,-5.1184,-4.9669,-4.8324,-4.7229,-4.6462,-4.609,-4.6046,-4.6046,-4.6046,-4.597,-4.6071,-4.6481,-4.6695,-4.6937,-4.7317,-4.7622,-4.7782,-4.7782,-4.7782,-4.7622,-4.7332,-4.7332,-4.7172,-4.6867,-4.6853,-4.6838,-4.9296,-4.9257,-4.8858,-4.9637,-4.9238,-4.8004,-4.5599,-4.5037,-4.4494,-4.2557,-4.1506,-4.1162,-4.1865,-4.2117,-4.2659,-4.3991,-4.63,-4.8326,-4.953,-5.0522,-5.1347,-5.1944,-5.1487,-5.1066,-5.0908,-5.0537,-5.0302,-5.0345,-5.0957,-5.0854,-4.9793,-5.114,-5.2677,-5.4282,-5.4582,-5.5069,-5.5852,-5.6398,-5.668,-5.668,-5.668,-5.668,-5.668,-5.668,-5.668,-5.668,-5.668,-5.668,-5.6697,-5.6862,-5.6928,-5.6995,-5.774,-5.8485,-5.9214,-5.9794,-6.0473,-6.1102,-6.1102,-6.1102,-6.1003,-6.0423,-5.9744,-5.8999,-5.8253,-5.8038,-5.7906,-5.7326,-5.716,-5.7293,-5.7873,-5.8038,-5.8171,-5.875,-5.8138,-5.7508,-5.7939,-5.7127,-5.6713,-5.8022,-5.7409,-5.6779,-5.7111,-5.5702,-5.4027,-5.2552,-5.0834,-4.9233,-4.7985,-4.7081,-4.6417,-4.5925,-4.6207,-4.634,-4.6174,-4.6174,-4.6405,-4.6998,-4.7027,-4.7317,-4.7956,-4.8116,-4.8235,-4.8235,-4.8235,-4.8116,-4.7985,-4.7985,-4.7912,-4.7767,-4.7404,-4.7433,-4.8565,-4.842,-4.8007,-4.8822,-4.8402,-4.7192,-4.4765,-4.4204,-4.3353,-4.0329,-3.9079,-3.8632,-3.9027,-3.8706,-3.94,-4.248,-4.45,-4.6647,-4.9328,-5.0978,-5.1899,-5.1986,-5.1934,-5.1645,-5.0961,-5.0863,-5.0934,-5.1171,-5.274,-5.312,-5.1799,-5.3212,-5.4142,-5.4468,-5.514,-5.5868,-5.6581,-5.6663,-5.668,-5.668,-5.668,-5.668,-5.668,-5.668,-5.668,-5.668,-5.668,-5.668,0.0,-5.7409,-5.769,-5.7757,-5.8502,-5.9247,-5.991,-5.9976,-6.0473,-6.1102,-6.1102,-6.1102,-6.1102,-6.1036,-6.0506,-5.9761,-5.9015,-5.88,-5.8784,-5.8717,-5.8701,-5.8701,-5.8784,-5.88,-5.8817,-5.8883,-5.9314,-5.9529,-5.8933,-5.8684,-5.8833,-5.9645,-5.8104,-5.7111,-5.8469,-5.6783,-5.4897,-5.3973,-5.1775,-4.9816,-4.8651,-4.7406,-4.6417,-4.5925,-4.6616,-4.7088,-4.7086,-4.7057,-4.7274,-4.7698,-4.7695,-4.797,-4.8609,-4.919,-4.9543,-4.9543,-4.9543,-4.9219,-4.8638,-4.8638,-4.8348,-4.7796,-4.8304,-4.8275,-4.7627,-4.7246,-4.6685,-4.8456,-4.721,-4.5273,-4.4313,-4.2973,-4.1307,-3.9115,-3.8046,-3.7329,-3.6876,-3.7256,-3.82,-3.9888,-4.2586,-4.5393,-4.7967,-4.9644,-5.1136,-5.2541,-5.1891,-5.14,-5.1558,-5.1558,-5.2194,-5.3702,-5.5353,-5.6116,-5.5684,-5.5635,-5.585,-5.6348,-5.6291,-5.6398,-5.668,-5.668,-5.668,-5.668,-5.668,-5.668,-5.668,-5.668,-5.668,-5.6713,-5.716,-5.7342,0.0,-5.8154,-5.8452,-5.8535,-5.9264,-5.9744,-6.0059,-6.0506,-6.0854,-6.1102,-6.1102,-6.1102,-6.1102,-6.1102,-6.1202,-6.1169,-6.0456,-5.991,-5.9562,-5.9562,-5.9247,-5.8999,-5.9446,-5.9893,-6.0225,-6.0225,-6.0109,-5.9926,-5.9628,-5.9214,-5.9115,-5.986,-5.8568,-5.7499,-5.7961,-5.6101,-5.4232,-5.3284,-5.1054,-4.9299,-4.8831,-4.7865,-4.7124,-4.69,-4.6678,-4.6721,-4.6947,-4.6612,-4.6991,-4.8261,-4.7985,-4.8232,-4.9248,-4.9538,-4.9717,-4.9717,-4.9717,-4.9553,-4.9291,-4.9291,-4.9175,-4.8914,-4.8783,-4.8798,-4.6468,-4.6504,-4.6359,-4.7844,-4.6305,-4.4277,-4.3552,-4.1686,-3.9588,-3.7848,-3.6801,-3.5961,-3.5187,-3.6022,-3.7145,-3.8141,-4.1081,-4.4115,-4.6677,-4.8766,-5.0733,-5.2611,-5.2277,-5.2014,-5.233,-5.2786,-5.3928,-5.6034,-5.7421,-5.8255,-5.8451,-5.774,-5.7486,-5.7811,-5.7406,-5.7181,-5.7181,-5.7063,-5.6949,-5.6949,-5.6812,-5.668,-5.6697,-5.6912,-5.7011,-5.7061,-5.7806,-5.8121,0.0,-5.8916,-5.9231,-5.9297,-6.0042,-6.034,-6.039,-6.092,-6.1102,-6.1102,-6.1102,-6.1102,-6.1102,-6.1102,-6.1301,-6.1516,-6.145,-6.1053,-6.0605,-6.039,-5.996,-5.9678,-6.0191,-6.0721,-6.1102,-6.1102,-6.0705,-6.034,-6.034,-5.9744,-5.9446,-6.0191,-5.8966,-5.7767,-5.7504,-5.5554,-5.3675,-5.2725,-5.0668,-4.9174,-4.9067,-4.8159,-4.7417,-4.7326,-4.6735,-4.6585,-4.7134,-4.6799,-4.7119,-4.8362,-4.8203,-4.8464,-4.9364,-4.9582,-4.9717,-4.9717,-4.9717,-4.9717,-4.9717,-4.9717,-4.9717,-4.9717,-4.9219,-4.9248,-4.5091,-4.6486,-4.75,-4.6721,-4.5906,-4.4657,-4.2266,-4.0366,-3.8491,-3.6278,-3.5024,-3.4271,-3.4042,-3.4688,-3.5847,-3.7802,-4.0077,-4.271,-4.5775,-4.8924,-5.1171,-5.1899,-5.3366,-5.398,-5.3271,-5.4577,-5.6122,-5.7667,-5.8527,0.0,-5.9282,-5.93,-5.9012,-5.8405,-5.8386,-5.8369,-5.8369,-5.7865,-5.7588,-5.7588,-5.6987,-5.668,-5.6713,-5.7442,-5.7773,-5.7823,-5.8568,-5.8883,0.0,-5.9678,-5.9993,-6.0059,-6.0804,-6.1102,-6.1102,-6.1102,-6.1102,-6.1102,-6.1102,-6.1102,-6.1102,-6.1102,-6.0622,-6.0291,-6.1774,-6.2188,-6.2039,-6.1285,-6.1086,-6.1086,-6.1102,-6.1102,-6.1102,-6.1102,-6.1102,-6.1102,-6.1102,-6.0506,-6.0208,-6.0953,-5.9314,-5.7767,-5.7504,-5.5554,-5.3675,-5.2725,-5.103,-4.9779,-4.953,-4.815,-4.7084,-4.6838,-4.6778,-4.7163,-4.8007,-4.8141,-4.8062,-4.7829,-4.8362,-4.8677,-4.8692,-4.9349,-4.9717,-4.9717,-4.9717,-4.9717,-4.9717,-4.9717,-4.9717,-4.9717,-4.9717,-4.9717,-4.232,-4.2809,-4.2991,-4.3824,-4.2629,-4.1071,-4.0293,-3.8326,-3.6312,-3.5211,-3.4101,-3.3321,-3.3257,-3.4212,-3.5862,-3.8482,-4.0446,-4.2868,-4.652,-4.8784,-5.0557,-5.1856,-5.3857,-5.5033,-5.4788,-5.6174,-5.7509,-5.8544,-5.9317,-5.978,-5.9846,-5.9846,-5.9401,-5.844,-5.8405,-5.8405,-5.8405,-5.7865,-5.7588,-5.7588,-5.6987,-5.6945,-5.7442,-5.7674,-5.8071,-5.8585,-5.933,-5.9645,-5.9711,-6.0456,-6.0755,-6.0771,-6.102,-6.1102,-6.1102,-6.1102,-6.1102,-6.1102,-6.1102,-6.1102,-6.1036,-6.0523,-6.0539,-6.0655,-6.0109,-6.0291,-6.0738,-6.1036,-6.1102,-6.1102,-6.1102,-6.1102,-6.1102,-6.1102,-6.1102,-6.1102,-6.1102,-6.092,-6.0821,-6.1053,-5.9728,-5.8141,-5.6835,-5.5169,-5.3459,-5.1865,-5.0661,-4.9887,-4.9794,-4.9176,-4.8725,-4.8647,-4.8112,-4.7622,-4.7236,-4.7675,-4.8065,-4.8391,-4.8609,-4.8914,-4.9349,-4.9567,-4.9717,-4.9717,-4.9717,-4.9717,-4.9717,-4.9717,-4.9717,-4.9717,-4.9717,-4.9717,-4.0111,-4.1343,-4.2031,-4.2719,-4.1343,-3.9749,-3.946,-3.7102,-3.4882,-3.4555,-3.358,-3.2893,-3.3179,-3.4392,-3.6319,-3.9255,-4.1271,-4.3728,-4.7309,-4.9398,-5.1259,-5.312,-5.4875,-5.6034,-5.635,-5.7526,-5.8579,-5.9369,-5.9843,-6.0089,-6.0089,-6.0089,-5.9781,-5.908,-5.9046,-5.9046,-5.9046,-5.828,-5.7901,-5.7901,-5.7101,-5.7077,-5.7806,-5.8088,-5.8618,-5.9363,-6.0092,-6.0423,0.0,-6.092,-6.1102,-6.1102,-6.1102,-6.1102,-6.1102,-6.1102,-6.1102,-6.1102,-6.1102,-6.1102,-6.1036,-6.0572,-6.0738,-6.0821,-5.9347,-5.9413,-6.0109,-6.0556,-6.0887,-6.1102,-6.1102,-6.1102,-6.1102,-6.1102,-6.1102,-6.1036,-6.0755,-6.0688,-6.0605,-6.0324,-5.9037,-5.751,-5.605,-5.4313,-5.2653,-5.1403,-5.0443,-4.9929,-5.0088,-4.9754,-4.9437,-4.9201,-4.8802,-4.8165,-4.7245,-4.755,-4.8003,-4.849,-4.8875,-4.9146,-4.9306,-4.9553,-4.9717,-4.9717,-4.9717,-4.9717,-4.9717,-4.9717,-4.9717,-4.9717,-4.9717,-4.9473,0.0,-4.127,-4.3425,-4.2756,-4.1433,-4.0148,-3.9405,-3.6639,0.0,-3.4377,-3.3546,-3.3049,-3.3757,-3.526,-3.736,-4.019,-4.2605,-4.5203,-4.8232,-5.0645,-5.2962,-5.5314,-5.6227,-5.7,-5.7807,-5.8615,-5.9369,-6.0054,-6.0089,-6.0089,-6.0089,-6.0089,-6.0089,-6.0089,-6.0089,-6.0089,-6.0089,-5.8978,-5.8405,-5.8369,-5.7218,-5.7094,-5.7889,-5.8585,-5.933,0.0,-6.0804,-6.1102,-6.1102,-6.1102,-6.1102,-6.1102,-6.1102,-6.1102,-6.1102,-6.1102,-6.1102,-6.1102,-6.1102,-6.1102,-6.1102,-6.1053,-6.0953,-6.0622,-5.9297,-5.9413,-5.9993,-5.9943,-6.0456,-6.1036,-6.1036,-6.1036,-6.1036,-6.1036,-6.0986,-6.0771,-6.0075,-5.9926,-5.9687,-5.8935,-5.7495,-5.6089,-5.5166,-5.3134,-5.1571,-5.1249,-5.0519,-5.0137,-5.0475,-4.9955,-4.9369,-4.8894,-4.8978,-4.8778,-4.8065,-4.7959,-4.8039,-4.8197,-4.916,-4.9407,-4.8827,-4.9364,-4.9717,-4.9717,-4.9717,-4.9669,-4.9571,-4.9571,-4.9571,-4.9571,-4.9522,-4.8951,-3.553,0.0,-3.877,-3.9205,-3.9024,-3.8518,0.0,-3.6676,-3.5737,-3.5313,-3.5137,-3.4956,-3.4695,-3.7304,-4.0088,-4.1955,-4.4694,-4.745,-4.9978,-5.1821,-5.377,-5.6069,-5.7035,-5.7842,-5.865,-5.9405,-5.9914,-6.0089,-6.0089,-6.0089,-6.0089,-6.0089,-6.0089,-6.0089,-6.0089,-6.0089,-6.0089,-5.8978,-5.8405,-5.8369,-5.7218,-5.7376,-5.8651,-5.8817,-5.9612,-6.0854,-6.1036,-6.1102,-6.1102,-6.1102,-6.1102,-6.1102,-6.1102,-6.1102,-6.1102,-6.1102,-6.1102,-6.1102,-6.1102,-6.1102,-6.102,-6.044,-5.9496,-5.8618,-5.8833,-5.9413,-5.9893,-5.9314,-5.9694,-6.0258,-6.0258,-6.0258,-6.0258,-6.0258,-5.9827,-5.9363,-5.9198,-5.9164,-5.8879,-5.7992,-5.705,-5.5904,-5.4284,-5.3093,-5.2122,-5.1324,-5.1048,-5.0847,-5.076,-5.0481,-5.0217,-5.0059,-4.9318,-4.9062,-4.9809,-4.9489,-4.9078,-4.8632,-4.9296,-4.9611,-4.9465,-4.9596,-4.9717,-4.9717,-4.9717,-4.9262,-4.8388,-4.8388,-4.8388,-4.8388,-4.7536,-4.7434,-3.4516,-3.6037,-3.7665,-3.81,-3.848,-3.8644,-3.8209,-3.7503,-3.6863,-3.6522,-3.6661,-3.6867,-3.6893,-3.974,-4.2552,-4.4109,-4.6976,-4.9802,-5.2119,-5.3787,-5.5209,-5.6455,-5.7649,-5.8527,0.0,-5.9668,-6.0089,-6.0089,-6.0089,-6.0089,-6.0089,-6.0089,-6.0089,-6.0089,-6.0089,-6.0089,-6.0089,-5.8978,-5.8405,-5.8369,-5.7218,-5.7458,-5.8899,-5.8899,-5.9694,-6.1102,-6.1102,-6.1102,-6.1102,-6.1102,-6.1102,-6.1102,-6.1102,-6.1102,-6.1102,-6.1102,-6.1102,-6.1102,-6.1102,-6.1102,-6.1036,-6.0639,-5.996,-5.933,-5.9396,-5.9446,-5.9413,-5.9015,-5.9181,-5.9496,-5.9496,-5.9496,-5.9496,-5.9496,-5.9181,-5.88,-5.8469,-5.8403,-5.8014,-5.675,-5.5863,-5.483,-5.346,-5.2245,-5.1425,-5.1216,-5.0881,-5.0636,-5.0763,-5.068,-5.0567,-5.0342,-4.9827,-4.9706,-5.0105,-4.9878,-4.9572,-4.9334,-4.9592,-4.9717,-4.9717,-4.9717,-4.9717,-4.9717,-4.9213,-4.8639,-4.8021,-4.7499,-4.7229,-4.7229,-4.6594,-4.6385,-3.4389,-3.6435,-3.8301,-3.8048,-3.8591,-3.9278,-3.9496,-3.8708,-3.8005,-3.8273,-3.8587,-3.9059,-3.9866,-4.2429,-4.494,-4.6477,-4.9381,-5.2137,-5.4191,-5.5701,-5.6648,-5.6771,-5.8105,0.0,-5.9159,-5.9721,-6.0089,-6.0089,-6.0089,-6.0089,-6.0089,-6.0089,-6.0089,-6.0089,-6.0089,-6.0089,-6.0089,-5.8978,-5.8405,-5.8386,-5.7336,-5.7574,-5.8899,-5.9015,-5.981,-6.1102,0.0,0.0,-6.1102,-6.1102,-6.1102,-6.1102,-6.1102,-6.1102,-6.1102,-6.1102,-6.1102,-6.1102,-6.1102,-6.1102,-6.1102,-6.1102,-6.1036,-6.0854,-6.0324,-5.9496,-5.875,-5.8866,-5.8817,-5.8734,-5.8734,-5.8734,-5.8734,-5.8734,-5.8651,-5.8386,-5.7757,-5.7624,-5.7173,-5.5588,-5.4611,-5.3719,-5.2769,-5.1349,-5.0539,-5.1124,-5.0564,-5.0275,-5.0795,-5.0807,-5.0632,-5.0264,-5.039,-5.0342,-4.9878,-4.9781,-4.9878,-5.0086,-4.9829,-4.9717,-4.9717,-4.9717,-4.9717,-4.9717,-4.8589,-4.792,-4.7768,-4.6594,-4.6071,-4.6071,-4.586,-4.5395,-3.4389,-3.6834,-3.8791,-3.7301,-3.7675,-3.8683,-3.9896,-3.9854,-3.9929,-4.1288,-4.186,-4.2324,-4.3061,-4.5203,-4.7362,-4.8907,-5.1751,-5.4138,-5.5174,-5.6069,-5.6859,-5.7526,0.0,-5.9247,-5.9861,-6.0019,-6.0089,-6.0089,-6.0089,-6.0089,-6.0089,-6.0089,-6.0089,-6.0089,-6.0089,-6.0089,-6.0089,-5.8978,-5.8405,-5.8386,-5.7871,-5.8071,-5.8916,-5.9545,-6.0307,-6.1102,0.0,-6.1102,-6.1102,-6.1102,-6.1102,-6.1102,-6.1102,-6.1102,-6.1102,-6.1102,-6.1102,-6.1102,-6.1102,-6.1102,-6.1102,-6.1102,-6.0688,-6.0274,-6.0788,-5.9545,-5.8088,-5.8717,-5.8436,-5.7972,-5.7972,-5.7972,-5.7972,-5.7972,-5.7475,-5.6995,-5.6879,-5.6862,-5.6562,-5.5491,-5.4611,-5.3719,-5.2769,-5.1743,-5.1063,-5.1199,-5.1092,-5.1016,-5.1105,-5.0964,-5.076,-5.0713,-5.0567,-5.0453,-5.039,-5.0183,-5.0038,-5.0086,-4.9829,-4.9717,-4.9717,-4.9717,-4.9717,-4.9717,-4.8589,-4.755,-4.6542,-4.5449,-4.494,-4.494,-4.3987,-4.3932,-3.5025,-3.6942,-3.8757,-3.8976,-4.0773,-4.2488,-4.2539,-4.3063,-4.3726,-4.4458,-4.4964,-4.5519,-4.6291,-4.8328,-5.0539,-5.2506,-5.3664,-5.4717,-5.5929,-5.6754,-5.7544,0.0,0.0,-5.9721,-6.0072,-6.0089,-6.0089,-6.0089,-6.0089,-6.0089,-6.0089,-6.0089,-6.0089,-6.0089,-6.0089,-6.0089,-6.0089,-5.93,-5.8875,-5.8875,-5.7758,-5.793,-5.9343,-5.9392,-6.0026,-6.1102,0.0,-6.1102,-6.1102,-6.1102,-6.1102,-6.1102,-6.1102,-6.1102,-6.1102,-6.1102,-6.1102,-6.1102,-6.1102,-6.1102,-6.1102,-6.1102,-6.087,-6.0672,-6.1003,-5.9827,-5.8469,-5.88,-5.8071,-5.7193,-5.7193,-5.7193,-5.7193,-5.7193,-5.6945,-5.668,-5.668,-5.668,-5.6297,-5.4861,-5.4274,-5.3545,-5.2078,-5.1479,-5.1214,-5.1214,-5.1214,-5.1214,-5.1214,-5.1073,-5.0964,-5.0807,-5.0728,-5.0614,-5.0501,-5.039,-5.0183,-4.9878,-4.9781,-4.9717,-4.9717,-4.9717,-4.9717,-4.9717,-4.7957,-4.6802,-4.6281,-4.4602,-4.3768,-4.378,-4.324,-4.3295,-3.5874,-3.7794,-3.9896,-4.1241,-4.3304,-4.5054,-4.5236,-4.5957,-4.679,-4.7539,-4.7978,-4.8521,-4.9486,-5.14,-5.3366,-5.4963,-5.5016,-5.5244,-5.642,-5.7456,-5.8316,-5.8931,-5.965,-6.0089,-6.0089,-6.0089,-6.0089,-6.0089,-6.0089,-6.0089,-6.0089,-6.0089,-6.0089,-6.0089,-6.0089,-6.0089,-6.0089,-5.9584,-5.93,-5.9267,-5.8002,-5.8141,-5.9446,-5.9428,-5.9943,-6.0854,-6.1036,-6.1102,-6.1102,-6.1102,-6.1102,-6.1102,-6.1102,-6.1102,-6.1102,-6.1102,-6.1003,-6.0854,-6.0854,-6.0738,-6.0589,-6.0589,-6.0589,-6.0589,-6.0589,-5.9678,-5.8634,-5.8634,-5.769,-5.668,-5.668,-5.668,-5.668,-5.668,-5.668,-5.668,-5.668,-5.6508,-5.5964,-5.4569,-5.3976,-5.3212,-5.1788,-5.1354,-5.1214,-5.1214,-5.1214,-5.1214,-5.1214,-5.1214,-5.112,-5.0917,-5.0902,-5.0837,-5.0581,-5.0581,-5.0375,-4.9926,-4.9829,-4.9781,-4.9717,-4.9717,-4.9571,-4.9311,-4.7317,-4.6176,-4.5913,-4.3987,-4.2974,-4.2974,-4.2974,-4.2974,-3.6705,-4.022,-4.3618,-4.3295,-4.2479,-4.2754,-4.6672,-4.7026,-4.7331,-5.0273,-5.0761,-5.1084,-5.2604,-5.4173,-5.5069,-5.4489,-5.5543,-5.6473,-5.6578,0.0,-5.8948,-5.9001,-5.965,-6.0089,-6.0089,-6.0089,-6.0089,-6.0089,-6.0089,-6.0089,-6.0089,-6.0089,-6.0089,-6.0089,-6.0089,-6.0089,-6.0089,-5.9584,-5.93,-5.9284,-5.942,-5.9245,-5.8812,-6.0277,-6.0639,-6.0125,-6.0804,-6.1102,-6.1102,-6.1102,-6.1102,-6.1102,-6.1102,-6.1102,-6.1102,-6.1102,-6.0672,-6.0075,-6.0075,-5.9628,-5.9065,-5.9065,-5.9065,-5.9065,-5.9065,-5.8502,-5.7873,-5.7873,-5.7293,-5.668,-5.668,-5.668,-5.668,-5.668,-5.668,-5.668,-5.668,-5.6044,-5.5337,-5.5215,-5.3832,-5.2651,-5.2516,-5.1788,-5.1214,-5.1214,-5.1214,-5.1214,-5.1214,-5.1214,-5.1167,-5.1167,-5.1167,-5.1058,-5.0807,-5.076,-5.0695,-5.0453,-5.0198,-4.9975,-4.9717,-4.9717,-4.9213,-4.8122,-4.6905,-4.5807,-4.4832,-4.3615,-4.2974,-4.2974,-4.2974,-4.2974,-3.8699,-4.1467,-4.4374,-4.6525,-4.6567,-4.6589,-4.8539,-4.9476,-5.04,-5.2081,-5.2378,-5.2646,-5.3682,-5.477,-5.556,-5.5701,-5.6227,-5.6947,-5.7948,-5.8632,-5.9176,-5.9633,-5.9931,-6.0089,-6.0089,-6.0089,-6.0089,-6.0089,-6.0089,-6.0089,-6.0089,-6.0089,-6.0089,-6.0089,-6.0089,-6.0089,-6.0089,-5.9896,-5.9781,-5.9799,-5.9678,-5.997,-6.0578,-6.0841,-6.0882,-6.0705,-6.0986,-6.1102,-6.1102,-6.1102,-6.1102,-6.1102,-6.1102,-6.0821,-6.0423,-6.0423,-5.996,-5.9314,-5.9314,-5.9131,-5.8899,-5.8899,-5.8899,-5.8899,-5.8899,-5.8369,-5.779,-5.779,-5.726,-5.668,-5.668,-5.668,-5.668,-5.668,-5.668,-5.668,-5.668,-5.5948,-5.5133,-5.4611,-5.3459,-5.2426,-5.1819,-5.1433,-5.1214,-5.1214,-5.1214,-5.1214,-5.1214,-5.1214,-5.1214,-5.1214,-5.1214,-5.1167,-5.1058,-5.1058,-5.0932,-5.0695,-5.0471,-5.0294,-5.0198,-4.9493,-4.8923,-4.851,-4.675,-4.5502,-4.494,-4.3823,-4.324,-4.324,-4.324,-4.3364,-4.0185,-4.2681,-4.5434,-4.8419,-4.9398,-4.9833,-5.0637,-5.161,-5.2681,-5.3699,-5.3928,-5.4068,-5.4595,-5.5139,-5.5753,0.0,-5.6806,-5.7456,-5.8808,-5.9211,-5.9527,-6.0036,-6.0089,-6.0089,-6.0089,-6.0089,-6.0089,-6.0089,-6.0089,-6.0089,-6.0089,-6.0089,-6.0089,-6.0089,-6.0089,-6.0089,-6.0089,-6.0089,-6.0148,-6.0181,-5.9961,-6.0122,-6.0674,-6.0803,-6.0565,-6.0109,-6.0804,-6.0986,-6.0771,-6.1003,-6.1102,-6.1086,-6.0854,-6.044,-5.9976,-5.9744,-5.9181,-5.8552,-5.8552,-5.8403,-5.8204,-5.8204,-5.8204,-5.8204,-5.8204,-5.7839,-5.7442,-5.7442,-5.7077,-5.668,-5.668,-5.668,-5.668,-5.668,-5.668,-5.6603,-5.6336,-5.5531,-5.4637,-5.3719,-5.2814,-5.1957,-5.1308,-5.1214,-5.1214,-5.1214,-5.1214,-5.1214,-5.1214,-5.1214,-5.1214,-5.1214,-5.1214,-5.1214,-5.1214,-5.087,-5.0618,-5.0412,-4.9979,-4.9815,-4.996,-4.9219,-4.8482,-4.7763,-4.6281,-4.5248,-4.475,-4.3958,-4.3585,-4.3585,-4.3585,-4.3708,-4.0896,-4.4049,-4.7244,-4.8597,-5.0097,-5.1582,-5.2923,-5.3236,-5.3658,-5.5191,-5.5507,-5.5507,-5.5507,-5.5525,-5.5753,-5.649,-5.728,-5.8105,-5.8913,-5.9633,-6.0089,-6.0089,-6.0089,-6.0089,-6.0089,-6.0089,-6.0107,-6.0089,-6.0089,-6.0089,-6.0089,-6.0089,-6.0089,-6.0089,-6.0089,-6.0089,-6.0089,-6.0089,-6.0198,-6.041,-6.0375,-5.9702,-5.8472,-6.0051,-5.9689,-5.7922,-6.0142,-6.0672,-6.0059,-6.0788,-6.1086,-6.102,-6.0274,-5.9993,-5.9893,-5.9164,-5.8419,-5.7773,-5.7773,-5.7293,-5.668,-5.668,-5.668,-5.668,-5.668,-5.668,-5.668,-5.668,-5.668,-5.668,-5.668,-5.668,-5.668,-5.668,-5.668,-5.6414,-5.5515,-5.4595,-5.3719,-5.2769,-5.1819,-5.1214,-5.1214,-5.1214,-5.1214,-5.1214,-5.1214,-5.1214,-5.1214,-5.1214,-5.1214,-5.1214,-5.1214,-5.1214,-5.1182,-5.022,-4.9625,-4.9576,-4.8596,-4.8231,-4.8745,-4.8795,-4.7763,-4.5555,-4.5502,-4.4953,-4.3899,-4.3899,-4.3899,-4.3899,-4.3899,-4.3899,-4.2533,-4.56,-4.8606,-5.1019,0.0,-5.3924,-5.4635,-5.4384,-5.4261,-5.5297,-5.5507,-5.5566,-5.5735,-5.6059,0.0,-5.7582,-5.8259,-5.8913,-5.9668,-5.9966,-6.0089,-6.0089,-6.0089,-6.0185,-6.0423,-6.0454,-6.0547,-6.0793,-6.0805,-6.0701,-6.0454,-6.0454,-6.0343,-6.0107,-6.0089,-6.0089,-6.0089,-5.9716,-5.964,-5.9832,-5.9392,-5.9262,-5.94,-5.9886,-5.9544,-5.8634,-5.9827,-5.991,-5.9247,-5.9463,-5.9562,-5.9529,-5.9314,-5.8916,-5.8419,-5.8204,-5.7657,-5.7011,-5.7011,-5.6862,-5.668,-5.668,-5.668,-5.668,-5.668,-5.668,-5.668,-5.668,-5.668,-5.668,-5.668,-5.6202,-5.5868,-5.6547,-5.6202,-5.5652,-5.5337,-5.4089,-5.2947,-5.2651,-5.1819,-5.1214,-5.1214,-5.1214,-5.1214,-5.1214,-5.1214,-5.1214,-5.1214,-5.1214,-5.1214,-5.1214,-5.1214,-5.0917,-5.0124,-4.9771,-4.9268,-4.8532,-4.8181,-4.808,-4.8231,-4.7536,-4.6829,-4.615,-4.5328,-4.4668,-4.4161,-4.4161,-4.4161,-4.4161,-4.4161,-4.4258,-4.4428,-4.7306,0.0,-5.2845,-5.4169,-5.4952,-5.5548,-5.5209,-5.494,-5.5531,-5.5666,-5.5812,-5.6297,-5.6623,0.0,-5.8491,-5.8866,-5.9264,-6.0001,-6.0089,-6.0089,-6.0089,-6.0216,-6.0392,-6.0578,-6.0732,-6.0884,-6.1093,-6.1093,-6.1004,-6.0793,-6.0793,-6.0701,-6.0499,-6.0499,-6.0499,-6.0499,-5.9893,-5.9516,-5.9417,-5.8789,-5.863,-5.8803,-5.9258,-5.8935,-5.8055,-5.88,-5.9032,-5.8899,-5.8899,-5.8899,-5.8866,-5.8568,-5.8187,-5.7757,-5.7458,-5.7061,-5.668,-5.668,-5.668,-5.668,-5.668,-5.668,-5.668,-5.668,-5.668,-5.668,-5.668,-5.6414,-5.6162,-5.6162,-5.5491,-5.501,-5.5908,-5.545,-5.4678,-5.4285,-5.3356,-5.2471,-5.2124,-5.1603,-5.1214,-5.1214,-5.1214,-5.1214,-5.1214,-5.1214,-5.1214,-5.1214,-5.1214,-5.1214,-5.1214,-5.1214,-5.0775,-4.9674,-4.9205,-4.8496,-4.7434,-4.6971,-4.6712,-4.6712,-4.6517,-4.6164,-4.5702,-4.5033,-4.4626,-4.4463,-4.4463,-4.4463,-4.4463,-4.4463,-4.4572,-4.6094,-4.8872,-5.134,-5.4108,-5.4965,-5.5284,-5.5823,-5.5764,-5.5637,-5.5861,0.0,-5.6177,-5.7003,-5.7198,-5.7729,-5.9248,-5.9298,-5.9366,-6.0033,-6.0171,-6.0171,-6.0171,-6.0454,-6.064,-6.0671,-6.0974,-6.1152,-6.1182,-6.1182,-6.1152,-6.1152,-6.1152,-6.1123,-6.1093,-6.1093,-6.1093,-6.1093,-6.0321,-5.9711,-5.9231,-5.8492,-5.7845,-5.7344,-5.8369,-5.8127,-5.6851,-5.7464,-5.8161,-5.8784,-5.8734,-5.8701,-5.8634,-5.7955,-5.769,-5.7608,-5.6945,-5.668,-5.668,-5.668,-5.668,-5.668,-5.668,-5.668,-5.668,-5.668,-5.668,-5.668,-5.6603,-5.5948,-5.5296,-5.5215,-5.4511,-5.4062,-5.4886,-5.4427,-5.3632,-5.2769,-5.2516,-5.2215,-5.1354,-5.1214,-5.1214,-5.1214,-5.1214,-5.1214,-5.1214,-5.1214,-5.1214,-5.1214,-5.1214,-5.1214,-5.1214,-5.112,-5.0618,-4.9562,-4.8482,-4.7369,-4.6321,-4.5301,-4.4668,-4.4668,-4.5702,-4.5755,-4.4722,-4.4668,-4.4668,-4.4668,-4.4668,-4.4668,-4.4668,-4.4668,-4.4668,-4.5156,-4.884,0.0,-5.485,-5.6634,-5.7583,-5.6532,-5.6263,-5.6134,-5.5947,-5.6116,-5.655,-5.7334,-5.7975,-5.8738,-5.9931,-6.0208,-6.0309,-6.0468,-6.0485,-6.0485,-6.0485,-6.0793,-6.1093,-6.1275,-6.1361,-6.1523,-6.1784,-6.1812,-6.1682,-6.1437,-6.1419,-6.1321,-6.1093,-6.1093,-6.1093,-6.1093,-5.9937,-5.9398,-5.9415,-5.828,-5.7662,-5.7551,-5.7644,-5.772,-5.7759,-5.7365,-5.7498,-5.7988,-5.7392,-5.716,-5.7144,-5.6995,-5.6928,-5.6912,-5.6746,-5.668,-5.668,-5.668,-5.668,-5.668,-5.668,-5.668,-5.668,-5.668,-5.668,-5.6564,-5.5812,-5.5474,-5.5133,-5.4485,-5.3589,-5.2947,-5.3152,-5.302,-5.2874,-5.2635,-5.2048,-5.1433,-5.1214,-5.1214,-5.1214,-5.1214,-5.1214,-5.1214,-5.1214,-5.1214,-5.1214,-5.1214,-5.1214,-5.1214,-5.1214,-5.0475,-4.9513,-4.8432,-4.7383,-4.6269,-4.514,-4.483,-4.4668,-4.4668,-4.4938,-4.4938,-4.4668,-4.4668,-4.4668,-4.4668,-4.4668,-4.4668,-4.4668,-4.4668,-4.4668,-4.6178,0.0,0.0,-5.5461,0.0,-5.8331,-5.6913,-5.66,-5.6528,-5.6365,-5.6474,-5.6958,-5.814,-5.8659,-5.9332,-6.065,-6.0849,-6.0823,-6.0823,-6.0823,-6.0823,-6.0823,-6.1105,-6.135,-6.1505,-6.1664,-6.1822,-6.1996,-6.1996,-6.1923,-6.1766,-6.172,-6.1682,-6.153,-6.153,-6.1368,-6.104,-6.0079,-5.9447,-5.9197,-5.8192,-5.7735,-5.7735,-5.7439,-5.7469,-5.7706,-5.7306,-5.7242,-5.7382,-5.7,-5.6812,-5.668,-5.668,-5.668,-5.668,-5.668,-5.668,-5.668,-5.668,-5.668,-5.668,-5.668,-5.668,-5.6603,-5.6162,-5.6027,-5.5829,-5.4927,-5.4343,-5.3902,-5.3459,-5.2635,-5.1911,-5.1911,-5.1911,-5.1911,-5.1911,-5.1572,-5.1214,-5.1214,-5.1214,-5.1214,-5.1214,-5.1214,-5.1214,-5.1214,-5.1214,-5.1214,-5.1214,-5.1214,-5.1011,-5.0475,-4.9917,-4.8958,-4.7383,-4.6725,-4.5914,-4.4776,-4.4668,-4.4604,-4.433,-4.4578,-4.4668,-4.4668,-4.4668,-4.4668,-4.4668,-4.4668,-4.4668,-4.4668,-4.4668,-4.4668,-4.69,0.0,-5.2723,-5.5991,-5.7738,0.0,-5.7271,-5.6955,-5.6873,-5.6873,-5.6873,-5.7297,-5.8745,-5.9105,-5.9672,-6.1158,-6.1261,-6.1182,-6.1182,-6.1182,-6.1182,-6.1182,-6.1408,-6.159,-6.159,-6.1822,-6.1996,-6.1996,-6.1996,-6.1996,-6.1996,-6.1996,-6.1996,-6.1996,-6.1996,-6.1692,-6.1016,-6.0331,-5.9644,-5.8892,-5.8244,-5.7881,-5.7881,-5.7551,-5.7402,-5.7364,-5.7364,-5.7252,-5.7063,-5.7025,-5.6911,-5.6757,-5.6719,-5.668,-5.668,-5.668,-5.668,-5.668,-5.668,-5.668,-5.668,-5.668,-5.6603,-5.6297,-5.5515,-5.5174,-5.4886,-5.4019,-5.3212,-5.2561,-5.2381,-5.1773,-5.1214,-5.1214,-5.1214,-5.1214,-5.1214,-5.1214,-5.1214,-5.1214,-5.1214,-5.1214,-5.1214,-5.1214,-5.1214,-5.1214,-5.1214,-5.1214,-5.1214,-5.1214,-5.0775,-4.9722,-4.9415,-4.856,-4.6583,-4.6216,-4.5702,-4.4776,-4.463,-4.4369,-4.3939,-4.4238,-4.4434,-4.4434,-4.4576,-4.4668,-4.4668,-4.4668,-4.4668,-4.4668,-4.4668,-4.4668,-4.4186,0.0,-5.4797,0.0,-5.7636,-5.8336,0.0,0.0,-5.7156,0.0,-5.7156,-5.7351,-5.8034,-5.8889,-5.9825,-6.0729,-6.1214,-6.1448,-6.1448,-6.1448,-6.1448,-6.1448,-6.1738,-6.1923,-6.1923,-6.1978,-6.1996,-6.1996,-6.1996,-6.1996,-6.1996,-6.1996,-6.1996,-6.1996,-6.1996,-6.1692,-6.1016,-6.0331,-5.9644,-5.8892,-5.8244,-5.7881,-5.7881,-5.7845,-5.7735,-5.7551,-5.7551,-5.7439,-5.7252,-5.7063,-5.6987,-5.6949,-5.6757,-5.668,-5.668,-5.668,-5.668,-5.668,-5.668,-5.668,-5.668,-5.668,-5.6162,-5.5474,-5.5337,-5.4762,-5.3976,-5.3035,-5.2695,-5.2426,-5.1603,-5.1308,-5.1214,-5.1214,-5.1214,-5.1214,-5.1214,-5.1214,-5.1214,-5.1214,-5.1214,-5.1214,-5.1214,-5.1214,-5.1214,-5.1214,-5.1214,-5.1214,-5.1214,-5.1214,-5.0775,-4.9722,-4.8745,-4.7726,-4.6531,-4.5502,-4.4884,-4.4722,-4.4251,-4.3951,-4.3926,-4.3467,-4.3245,-4.3245,-4.4225,-4.4668,-4.4668,-4.4668,-4.4668,-4.4668,-4.4668,-4.4668,-4.4965,-4.9764,-5.4013,0.0,-5.7384,-5.8249,-5.7686,-5.7727,-5.7732,-5.7279,-5.7188,-5.7416,-5.8101,-5.8613,-5.9343,-6.0611,-6.0973,-6.1289,-6.1722,-6.1794,-6.1794,-6.1794,-6.1923,-6.1996,-6.1996,-6.1996,-6.1996,-6.1996,-6.1996,-6.1996,-6.1996,-6.1996,-6.1996,-6.1996,-6.1996,-6.1505,-6.0454,-6.0156,-5.9447,-5.8334,-5.8046,-5.7881,-5.7881,-5.7881,-5.7845,-5.7772,-5.7772,-5.7662,-5.7476,-5.7364,-5.7289,-5.7176,-5.7063,-5.7025,-5.7025,-5.6911,-5.6872,-5.6834,-5.6719,-5.6757,-5.6741,-5.6106,-5.5716,-5.5239,-5.4115,-5.353,-5.3035,-5.2078,-5.1819,-5.1742,-5.1308,-5.1214,-5.1214,-5.1214,-5.1214,-5.1214,-5.1214,-5.1214,-5.1214,-5.1214,-5.1214,-5.1214,-5.1214,-5.1214,-5.1214,-5.1214,-5.1214,-5.1214,-5.1214,-5.068,-4.9902,-4.8795,-4.7726,-4.666,-4.5555,-4.4979,-4.4591,-4.4264,-4.4016,-4.3638,-4.2996,-4.2984,-4.2866,-4.2552,-4.3663,-4.4251,-4.4251,-4.4565,-4.4668,-4.4668,-4.4668,-4.4668,0.0,0.0,-5.1647,-5.4418,-5.6156,-5.7315,0.0,0.0,-5.7985,0.0,-5.7333,-5.7387,-5.7985,-5.8257,-5.88,-5.9995,-6.0538,-6.1,-6.1598,-6.1869,-6.1996,-6.1996,-6.1996,-6.1996,-6.1996,-6.1996,-6.1996,-6.1996,-6.1996,-6.1996,-6.1996,-6.1996,-6.1923,-6.1766,-6.1923,-6.1286,-5.9741,-5.9546,-5.8926,-5.7881,-5.7881,-5.7881,-5.7881,-5.7881,-5.7881,-5.7881,-5.7881,-5.7808,-5.7662,-5.7625,-5.7514,-5.7364,-5.7327,-5.7289,-5.7289,-5.7139,-5.7063,-5.7063,-5.6911,-5.6796,-5.6625,-5.5772,-5.5255,-5.4746,-5.3152,-5.2516,-5.217,-5.1433,-5.1214,-5.1214,-5.1214,-5.1214,-5.1214,-5.1214,-5.1214,-5.1214,-5.1214,-5.1214,-5.1214,-5.1214,-5.1214,-5.1214,-5.1214,-5.1214,-5.1214,-5.1214,-5.1214,-5.112,-5.0822,-5.0061,-4.9106,-4.7726,-4.6881,-4.5966,-4.4776,-4.4591,-4.433,-4.3952,-4.3651,-4.3114,-4.2251,-4.2435,-4.2383,-4.1964,-4.3075,-4.3729,-4.3926,-4.4304,-4.4591,-4.4668,-4.4668,-4.4668,0.0,-4.4367,0.0,-5.1701,-5.3313,-5.4925,0.0,0.0,-5.746,-5.8184,-5.7732,-5.7206,-5.7243,-5.7895,-5.8438,-5.851,-5.9814,-6.0801,-6.0864,-6.1507,-6.1996,-6.1996,-6.1996,-6.1996,-6.1996,-6.1996,-6.1996,-6.1996,-6.1996,-6.1996,-6.1996,-6.1996,-6.1692,-6.1075,-6.1664,-6.1016,-5.8994,-5.8334,-5.7954,-5.7881,-5.7881,-5.7881,-5.7881,-5.7881,-5.7881,-5.7881,-5.7881,-5.7881,-5.7881,-5.7662,-5.7588,-5.7551,-5.7364,-5.7289,-5.7289,-5.7289,-5.7289,-5.7289,-5.7289,-5.6724,-5.606,-5.5964,-5.4794,-5.3343,-5.3051,-5.2366,-5.1587,-5.1308,-5.1214,-5.1214,-5.1214,-5.1214,-5.1214,-5.1214,-5.1214,-5.1214,-5.1214,-5.1214,-5.1214,-5.1214,-5.1214,-5.1214,-5.1214,-5.1214,-5.1214,-5.1214,-5.1214,-5.0822,-4.982,-4.9611,-4.8809,-4.6725,-4.6426,-4.5966,-4.4776,-4.4225,-4.3912,-4.3926,-4.2905,-4.2277,-4.2211,-4.1677,-4.1389,-4.1363,-4.2487,-4.3337,-4.3926,-4.3912,-4.4199,-4.4668,-4.4668,-4.4668,0.0,0.0,0.0,-4.9075,-5.1176,-5.2788,-5.5251,-5.6935,-5.7913,-5.7677,-5.7804,-5.7804,-5.7297,-5.7442,-5.7804,-5.8329,-5.8891,-5.9452,-5.9977,-6.0738,-6.1218,-6.1218,-6.167,-6.1996,-6.1996,-6.1996,-6.1996,-6.1996,-6.1996,-6.1996,-6.1996,-6.1996,-6.1692,-6.1016,-6.1239,-6.056,-5.8926,-5.8244,-5.7881,-5.7881,-5.7881,-5.7881,-5.7881,-5.7881,-5.7881,-5.7881,-5.7881,-5.7881,-5.7881,-5.7808,-5.7772,-5.7772,-5.7698,-5.7698,-5.7662,-5.7551,-5.7476,-5.7476,-5.7327,-5.6801,-5.6067,-5.5353,-5.4385,-5.3343,-5.2607,-5.2094,-5.1787,-5.1541,-5.1448,-5.1401,-5.1261,-5.1214,-5.1214,-5.1214,-5.1214,-5.1214,-5.1214,-5.1214,-5.1214,-5.1214,-5.1214,-5.1214,-5.1214,-5.1214,-5.1214,-5.1214,-5.0618,-5.0013,-4.9674,-4.841,-4.7242,-4.6478,-4.5755,-4.4982,-4.4266,-4.399,-4.3611,-4.2879,-4.2447,-4.2004,-4.1638,-4.1415,-4.1481,-4.186,-4.2265,-4.2762,-4.3323,-4.4068,-4.4526,-4.4668,-4.4668,-4.4668,-3.955,0.0,0.0,0.0,-4.8912,-5.1067,-5.3204,-5.5721,-5.7514,-5.7243,-5.7623,-5.7822,-5.7297,-5.7188,-5.7369,-5.7913,-5.822,-5.8601,-5.9126,-5.9905,-6.0412,-6.0412,-6.0883,-6.129,-6.1562,-6.158,-6.1706,0.0,0.0,0.0,-6.1996,-6.1996,-6.1692,-6.1016,-6.0326,-5.9626,-5.8892,-5.8244,-5.7881,-5.7881,-5.7881,-5.7881,-5.7881,-5.7881,-5.7881,-5.7881,-5.7881,-5.7881,-5.7881,-5.7881,-5.7881,-5.7881,-5.7881,-5.7881,-5.7881,-5.7735,-5.7698,-5.7698,-5.7551,-5.6822,-5.5852,-5.5092,-5.4147,-5.3155,-5.2367,-5.2109,-5.2063,-5.1772,-5.168,-5.1587,-5.1401,-5.1261,-5.1214,-5.1214,-5.1214,-5.1214,-5.1308,-5.1261,-5.1214,-5.1214,-5.1214,-5.1073,-5.0713,-5.0964,-5.0964,-5.0254,-4.982,-4.9317,-4.861,-4.7294,-4.6269,-4.5861,-4.4969,-4.4291,-4.3912,-4.3572,-4.3023,-4.2264,-4.199,-4.1716,-4.1337,-4.1311,-4.1494,-4.1873,-4.2252,-4.2631,-4.3023,-4.3977,-4.4539,-4.4668,-4.4668,-4.4668,0.0,0.0,0.0,0.0,0.0,0.0,-5.2788,0.0,-5.6174,-5.6935,-5.717,-5.7224,-5.717,-5.717,-5.7188,-5.7188,-5.7858,-5.8365,-5.8365,-5.9072,-5.9561,-5.9561,-5.9597,-5.9923,-6.0701,0.0,0.0,0.0,-6.1924,-6.1924,-6.1924,-6.1878,-6.1564,-6.0915,-5.8925,-5.814,-5.8789,-5.8176,-5.7831,-5.7831,-5.7831,-5.7831,-5.7831,-5.7831,-5.7831,-5.7831,-5.7831,-5.7831,-5.7831,-5.7848,-5.7865,-5.7865,-5.7865,-5.7865,-5.7881,-5.7881,-5.7881,-5.7898,-5.7881,-5.6751,-5.5312,-5.5255,-5.4094,-5.2669,-5.2397,-5.2306,-5.2261,-5.2078,-5.1834,-5.1634,-5.1587,-5.1401,-5.1214,-5.1214,-5.1214,-5.1308,-5.1541,-5.1401,-5.1214,-5.1214,-5.1214,-5.087,-4.982,-5.0475,-5.046,-4.8332,-4.8844,-4.8759,-4.6673,-4.636,-4.5887,-4.4804,-4.4186,-4.3846,-4.382,-4.2853,-4.2211,-4.2185,-4.1625,-4.1311,-4.1311,-4.1311,-4.1324,-4.135,-4.2448,-4.3036,-4.3049,-4.3611,-4.4186,-4.4668,-4.4668,-4.4668,-3.772,0.0,0.0,0.0,0.0,0.0,0.0,0.0,-5.5106,-5.4744,-5.6482,-5.7713,-5.6536,-5.6808,-5.7188,-5.7188,-5.7387,-5.7532,-5.7532,-5.822,-5.8728,-5.8728,-5.9253,0.0,0.0,0.0,0.0,0.0,-6.0267,-6.0267,-6.0267,-5.9395,-5.8804,-5.8623,-5.7088,-5.6415,-5.6591,-5.6415,-5.6325,-5.6325,-5.6325,-5.6325,-5.6325,-5.6325,-5.6325,-5.6325,-5.6325,-5.6325,-5.6359,-5.6884,-5.7103,-5.7103,-5.7103,-5.7425,-5.7881,-5.7881,-5.7881,-5.7808,-5.7164,-5.6231,-5.5215,-5.4553,-5.3593,-5.2713,-5.2608,-5.2608,-5.2563,-5.2276,-5.2063,-5.1787,-5.1401,-5.1401,-5.1494,-5.1494,-5.1649,-5.1803,-5.1895,-5.1849,-5.1803,-5.1803,-5.1602,-5.1137,-5.0095,-5.0143,-4.979,-4.8231,-4.7587,-4.7088,-4.6478,-4.5341,-4.4467,-4.4161,-4.3598,-4.3088,-4.2722,-4.2395,-4.199,-4.1585,-4.1402,-4.1311,-4.1311,-4.1311,-4.152,-4.1925,-4.2644,-4.3219,-4.3637,-4.4212,-4.4565,-4.4668,-4.4668,-4.4668,0.0,0.0,0.0,0.0,0.0,0.0,0.0,0.0,0.0,0.0,-5.5432,-5.6645,-5.5703,-5.6174,-5.6699,-5.6699,-5.6971,-5.7188,-5.7188,-5.7605,-5.7895,-5.7895,0.0,0.0,0.0,-5.9108,-5.9253,-5.9579,-5.9615,-5.9491,-5.924,-5.8,-5.7279,-5.7279,-5.6235,-5.5681,-5.5681,-5.5681,-5.5681,-5.5681,-5.5681,-5.5681,-5.5681,-5.5681,-5.5681,-5.5681,-5.5681,-5.5547,-5.5277,-5.57,-5.6055,-5.6342,-5.6342,-5.6613,-5.6985,-5.6985,-5.6771,-5.6409,-5.5892,-5.4937,-5.383,-5.3349,-5.259,-5.1867,-5.1867,-5.2067,-5.2238,-5.2088,-5.2108,-5.2017,-5.1649,-5.1649,-5.1787,-5.1787,-5.1895,-5.2033,-5.2109,-5.2078,-5.1849,-5.1401,-5.1199,-5.0636,-4.9092,-4.919,-4.8929,-4.7242,-4.652,-4.6007,-4.5603,-4.4375,-4.352,-4.352,-4.301,-4.2526,-4.2251,-4.1951,-4.1664,-4.1337,-4.1311,-4.1311,-4.1311,-4.1311,-4.1481,-4.1808,-4.2383,-4.3062,-4.3926,-4.4447,-4.4668,-4.4668,-4.4668,-4.4668,0.0,0.0,0.0,0.0,-4.156,0.0,0.0,0.0,0.0,0.0,-5.3548,-5.4218,-5.4128,-5.478,-5.5395,-5.5577,-5.621,-5.679,-5.7152,-5.7188,-5.7188,0.0,0.0,0.0,-5.8202,-5.8275,-5.8565,-5.9289,-5.9273,-5.8988,-5.8456,-5.7157,-5.6458,-5.6458,-5.5792,-5.548,-5.548,-5.548,-5.548,-5.548,-5.548,-5.548,-5.548,-5.548,-5.548,-5.548,-5.548,-5.5091,-5.4465,-5.4465,-5.4921,-5.5598,-5.5598,-5.5562,-5.5559,-5.5559,-5.508,-5.4353,-5.4278,-5.323,-5.1995,-5.1887,-5.1334,-5.0697,-5.0697,-5.1113,-5.159,-5.1546,-5.1812,-5.2062,-5.1896,-5.1926,-5.1941,-5.2017,-5.1987,-5.2018,-5.2199,-5.2017,-5.1515,-5.0334,-5.0294,-4.9727,-4.7503,-4.7945,-4.7867,-4.5713,-4.5543,-4.5294,-4.4335,-4.348,-4.2931,-4.2931,-4.2409,-4.212,-4.212,-4.1611,-4.1311,-4.1311,-4.1311,-4.1311,-4.1311,-4.1311,-4.1311,-4.1311,-4.1938,-4.2827,-4.3964,-4.4487,-4.4668,-4.4668,-4.4668,-4.4668,0.0,0.0,0.0,0.0,0.0,0.0,0.0,-4.5091,-4.6558,0.0,-4.8623,-4.9868,-4.9217,-5.0271,-5.1688,-5.2969,-5.3313,-5.4291,-5.6844,-5.7188,0.0,0.0,0.0,0.0,-5.7424,-5.7424,-5.7496,-5.7659,-5.7226,-5.6885,-5.6757,-5.5566,-5.4839,-5.4839,-5.4242,-5.394,-5.394,-5.394,-5.394,-5.394,-5.394,-5.394,-5.394,-5.394,-5.394,-5.394,-5.394,-5.3856,-5.3721,-5.3721,-5.4143,-5.4803,-5.4803,-5.4774,-5.4739,-5.4739,-5.4225,-5.3408,-5.2733,-5.2265,-5.1887,-5.1165,-5.0854,-5.0697,-5.0697,-5.079,-5.0839,-5.0634,-5.0638,-5.0779,-5.1091,-5.1302,-5.1544,-5.2093,-5.1999,-5.1765,-5.1809,-5.1379,-5.0436,-4.8573,-4.9581,-4.9886,-4.7269,-4.6985,-4.6431,-4.447,-4.4193,-4.4062,-4.3635,-4.3057,-4.2612,-4.2382,-4.1821,-4.1481,-4.1481,-4.1376,-4.1311,-4.1311,-4.1311,-4.1311,-4.1311,-4.1311,-4.1311,-4.1311,-4.233,-4.3415,-4.4565,-4.467,-4.4668,-4.4668,-4.4668,-4.4668,0.0,0.0,0.0,-3.8716,0.0,0.0,0.0,0.0,-4.4331,-4.5128,-4.6576,-4.7591,-4.7192,-4.8098,-4.9293,-5.0506,-5.1375,-5.2444,-5.4037,-5.5595,0.0,0.0,0.0,0.0,-5.6627,-5.6953,-5.7188,-5.7188,-5.6635,-5.6174,-5.5876,-5.4931,-5.4249,-5.3946,-5.3668,-5.3501,-5.3501,-5.3501,-5.3501,-5.3501,-5.3501,-5.3501,-5.3501,-5.3501,-5.3501,-5.3501,-5.3501,-5.3501,-5.3501,-5.3501,-5.3721,-5.4042,-5.4042,-5.3779,-5.3404,-5.3404,-5.2632,-5.1517,-5.1112,-5.0684,-5.0232,-4.9804,-4.9651,-4.9651,-4.9651,-4.9912,-5.0251,-5.0445,-5.0493,-5.0526,-5.0806,-5.0927,-5.1091,-5.1429,-5.1348,-5.1205,-5.1205,-5.0548,-4.9508,-4.7992,-4.8155,-4.7912,-4.602,-4.5729,-4.5381,-4.4377,-4.3878,-4.3576,-4.3411,-4.2804,-4.2245,-4.1981,-4.1681,-4.1461,-4.1311,-4.1311,-4.1311,-4.1311,-4.1311,-4.1311,-4.1311,-4.1311,-4.1311,-4.1311,-4.216,-4.301,-4.3872,-4.416,-4.4447,-4.4668,-4.4668,-4.4668,0.0,0.0,0.0,0.0,0.0,-3.9731,0.0,0.0,0.0,0.0,0.0,0.0,0.0,0.0,0.0,0.0,0.0,0.0,0.0,-5.2299,0.0,0.0,0.0,0.0,0.0,-5.7062,-5.7644,-5.7072,-5.6886,-5.6336,-5.5254,-5.4596,-5.3994,-5.3501,-5.3501,-5.3501,-5.3501,-5.3501,-5.3501,-5.3501,-5.3501,-5.3501,-5.3501,-5.3501,-5.3501,-5.3501,-5.3501,-5.3501,-5.3501,-5.3501,-5.3501,-5.3501,-5.3501,-5.2903,-5.2076,-5.2076,-5.1048,-4.9646,-4.9646,-4.9203,-4.862,-4.862,-4.862,-4.862,-4.862,-4.902,-4.9589,-5.0143,-5.0297,-5.0328,-5.0466,-5.0497,-5.0528,-5.0667,-5.059,-5.0454,-5.0266,-4.9487,-4.8461,-4.7256,-4.641,-4.5567,-4.4688,-4.4529,-4.4488,-4.4366,-4.3733,-4.326,-4.321,-4.2632,-4.2079,-4.1796,-4.1796,-4.1696,-4.1461,-4.1461,-4.1411,-4.1361,-4.1361,-4.1361,-4.1311,-4.1311,-4.1363,-4.1481,-4.2043,-4.2618,-4.318,-4.3755,-4.4278,-4.4668,-4.4668,-4.4668,0.0,0.0,0.0,0.0,-3.8807,0.0,0.0,0.0,-3.8988,-3.9876,0.0,0.0,0.0,0.0,0.0,0.0,0.0,0.0,-4.299,-4.6178,-4.9709,0.0,0.0,0.0,0.0,-5.8293,-5.9276,-5.6608,-5.7753,-5.7399,-5.4652,-5.3913,-5.3551,-5.3501,-5.3501,-5.3501,-5.3501,-5.3501,-5.3501,-5.3501,-5.3501,-5.3501,-5.3501,-5.3501,-5.3501,-5.3501,-5.3501,-5.3501,-5.3501,-5.3501,-5.3501,-5.3501,-5.3501,-5.259,-5.122,-5.122,-5.019,-4.8728,-4.8728,-4.8687,-4.862,-4.862,-4.862,-4.862,-4.862,-4.8666,-4.8743,-4.8835,-4.885,-4.9004,-4.9635,-4.9805,-4.9943,-5.0559,-5.0236,-4.9561,-4.8663,-4.792,-4.6874,-4.5022,-4.4603,-4.4375,-4.3966,-4.3927,-4.3701,-4.3172,-4.3036,-4.2885,-4.2654,-4.2503,-4.2351,-4.2079,-4.2029,-4.2029,-4.2029,-4.2029,-4.1881,-4.1647,-4.1647,-4.1547,-4.1311,-4.1311,-4.1546,-4.2107,-4.2631,-4.3206,-4.3781,-4.4343,-4.467,-4.4668,-4.4668,-4.4668,0.0,0.0,0.0,0.0,0.0,0.0,-3.9604,0.0,-3.8299,0.0,0.0,0.0,0.0,0.0,0.0,0.0,-4.1542,0.0,0.0,0.0,-4.7337,0.0,0.0,0.0,0.0,0.0,0.0,0.0,-5.7576,-5.7497,-5.454,-5.4171,-5.3865,-5.3501,-5.3501,-5.3501,-5.3501,-5.3501,-5.3501,-5.3501,-5.3501,-5.3501,-5.3501,-5.3501,-5.3501,-5.3501,-5.3501,-5.3501,-5.3501,-5.3501,-5.3501,-5.3501,-5.3501,-5.252,-5.1107,-5.1107,-5.0033,-4.862,-4.862,-4.862,-4.862,-4.862,-4.862,-4.862,-4.862,-4.862,-4.862,-4.862,-4.862,-4.8681,-4.8989,-4.9066,-4.9002,-4.8736,-4.8455,-4.7985,-4.7037,-4.6133,-4.5252,-4.4452,-4.3871,-4.3458,-4.331,-4.3267,-4.3172,-4.2928,-4.2887,-4.2838,-4.2741,-4.2741,-4.2644,-4.2338,-4.2351,-4.2289,-4.2128,-4.2079,-4.2029,-4.1931,-4.1931,-4.1881,-4.1796,-4.1746,-4.1901,-4.2153,-4.2203,-4.2718,-4.3638,-4.3664,-4.4028,-4.4668,-4.4668,-4.4668,-4.5743,0.0,0.0,0.0,0.0,0.0,0.0,0.0,0.0,0.0,0.0,0.0,0.0,0.0,0.0,0.0,0.0,-4.0275,0.0,-4.1216,0.0,0.0,0.0,0.0,0.0,0.0,0.0,0.0,0.0,-5.7193,-5.4321,-5.3933,-5.3707,-5.3501,-5.3501,-5.3501,-5.3501,-5.3501,-5.3501,-5.3501,-5.3501,-5.3501,-5.3501,-5.3501,-5.3501,-5.3501,-5.3501,-5.3501,-5.3501,-5.3501,-5.3501,-5.3467,-5.3246,-5.2326,-5.1107,-5.1107,-5.0033,-4.862,-4.862,-4.862,-4.862,-4.862,-4.862,-4.862,-4.862,-4.862,-4.862,-4.862,-4.862,-4.862,-4.862,-4.862,-4.8355,-4.742,-4.7204,-4.6886,-4.5629,-4.4823,-4.4219,-4.3951,-4.3375,-4.2887,-4.2887,-4.2887,-4.2887,-4.2887,-4.2887,-4.2887,-4.2887,-4.2887,-4.2838,-4.2644,-4.2595,-4.2547,-4.2338,-4.2324,-4.2289,-4.2226,-4.2128,-4.2079,-4.2079,-4.2079,-4.2079,-4.2079,-4.22,-4.2682,-4.3515,-4.3651,-4.4071,-4.4843,-4.4735,-4.4668,0.0,0.0,0.0,-4.3425,0.0,0.0,0.0,0.0,-4.1162,0.0,0.0,0.0,0.0,0.0,0.0,0.0,0.0,0.0,0.0,0.0,0.0,0.0,0.0,0.0,0.0,0.0,0.0,0.0,0.0,0.0,-5.3669,-5.279,-5.2739,-5.3484,-5.3501,-5.3501,-5.3501,-5.3501,-5.3501,-5.3501,-5.3501,-5.3501,-5.3501,-5.3501,-5.3501,-5.3501,-5.3501,-5.3501,-5.3501,-5.3501,-5.3501,-5.3433,-5.2642,-5.1842,-5.1107,-5.1107,-5.0033,-4.862,-4.862,-4.862,-4.862,-4.862,-4.862,-4.862,-4.862,-4.862,-4.862,-4.862,-4.862,-4.862,-4.862,-4.862,-4.8355,-4.742,-4.7204,-4.6652,-4.4762,-4.4312,-4.4045,-4.3115,-4.2935,-4.2887,-4.2887,-4.2887,-4.2887,-4.2887,-4.2887,-4.2887,-4.2887,-4.2887,-4.2887,-4.2887,-4.2887,-4.2887,-4.2887,-4.2887,-4.2741,-4.2498,-4.2239,-4.2079,-4.2079,-4.2079,-4.2079,-4.2079,-4.3184,-4.3719,-4.3772,-4.493,-4.5408,-4.5193,-4.4843,-4.4668,0.0,0.0,-4.9094,-4.6685,0.0,0.0,0.0,0.0,0.0,0.0,0.0,0.0,0.0,0.0,0.0,0.0,0.0,0.0,0.0,0.0,0.0,0.0,0.0,0.0,0.0,0.0,0.0,0.0,0.0,0.0,0.0,-5.2959,-5.2976,-5.2706,-5.323,-5.3501,-5.3501,-5.3501,-5.3501,-5.3501,-5.3501,-5.3501,-5.3501,-5.3501,-5.3501,-5.3501,-5.3501,-5.3501,-5.3501,-5.3501,-5.3212,-5.2677,-5.243,-5.1459,-5.0322,-5.0322,-4.959,-4.862,-4.862,-4.862,-4.862,-4.862,-4.862,-4.862,-4.862,-4.862,-4.862,-4.862,-4.862,-4.862,-4.862,-4.813,-4.742,-4.6491,-4.5764,-4.4946,-4.3648,-4.3375,-4.3293,-4.2984,-4.2887,-4.2887,-4.2887,-4.2887,-4.2887,-4.2887,-4.2887,-4.2887,-4.2887,-4.2887,-4.2887,-4.2887,-4.2887,-4.2887,-4.2887,-4.2887,-4.2838,-4.279,-4.2693,-4.2631,-4.2631,-4.2631,-4.2631,-4.2631,-4.3214,-4.3704,-4.4042,-4.4727,-4.5143,-4.5448,-4.5328,-4.4642,-5.3101,-5.2335,0.0,-4.8731,-4.8113,0.0,-4.5436,0.0,-4.2954,0.0,0.0,0.0,0.0,0.0,0.0,0.0,0.0,0.0,0.0,-3.4609,0.0,0.0,0.0,0.0,0.0,0.0,0.0,0.0,0.0,0.0,0.0,0.0,-5.257,-5.2317,-5.2807,-5.3213,-5.3501,-5.3501,-5.3501,-5.3501,-5.3501,-5.3501,-5.3501,-5.3501,-5.3501,-5.3501,-5.3501,-5.3501,-5.3501,-5.3501,-5.3024,-5.2272,-5.2004,-5.1048,-4.9908,-4.9908,-4.9365,-4.862,-4.862,-4.862,-4.862,-4.862,-4.862,-4.862,-4.862,-4.862,-4.862,-4.862,-4.862,-4.862,-4.862,-4.8172,-4.7377,-4.6092,-4.5312,-4.4452,-4.3163,-4.2887,-4.2887,-4.2887,-4.2887,-4.2887,-4.2887,-4.2887,-4.2887,-4.2887,-4.2887,-4.2887,-4.2887,-4.2887,-4.2887,-4.2887,-4.2887,-4.2887,-4.2887,-4.2887,-4.2887,-4.2887,-4.2887,-4.2887,-4.2887,-4.2887,-4.2982,-4.3199,-4.3647,-4.4155,-4.4684,-4.5108,-4.5473,-4.5755,-4.5755,-4.4858]},{"header":{"parameterUnit":"m.s-1","parameterCategory":1,"la1":30.6,"la2":29.2853,"lo1":-89.7004,"lo2":-87.6739,"dx":0.0162,"dy":0.0183,"nx":112,"ny":82,"refTime":"2022-12-28T06:00:00:Z","depth":0,"parameterNumber":3,"parameterNumberName":"V-component_of_WINDS"},"data":[0.0,0.0,0.0,0.0,0.0,0.0,0.0,0.0,0.0,0.0,0.0,0.0,0.0,0.0,0.0,0.0,0.0,0.0,0.0,0.0,0.0,0.0,0.0,0.0,0.0,0.0,0.0,0.0,0.0,0.0,0.0,0.0,0.0,0.0,0.0,0.0,0.0,0.0,0.0,0.0,0.0,0.0,0.0,0.0,0.0,0.0,0.0,0.0,0.0,0.0,0.0,0.0,0.0,0.0,0.0,0.0,0.0,0.0,0.0,0.0,0.0,0.0,0.0,0.0,0.0,0.0,0.0,0.0,0.0,0.0,0.0,0.0,0.0,0.0,0.0,0.0,0.0,0.0,0.0,0.0,0.0,0.0,0.0,0.0,0.0,0.0,0.0,0.0,0.0,0.0,-1.9893,-2.0098,-1.999,-1.9582,-1.8861,-1.9524,-1.9072,-1.6843,0.0,0.0,0.0,0.0,0.0,0.0,0.0,0.0,0.0,0.0,0.0,0.0,0.0,0.0,0.0,0.0,0.0,0.0,0.0,0.0,0.0,0.0,0.0,0.0,0.0,0.0,0.0,0.0,0.0,0.0,0.0,0.0,0.0,0.0,0.0,0.0,0.0,0.0,0.0,0.0,0.0,0.0,0.0,0.0,0.0,0.0,0.0,0.0,0.0,0.0,0.0,0.0,0.0,0.0,0.0,0.0,0.0,0.0,0.0,0.0,0.0,0.0,0.0,0.0,0.0,0.0,0.0,0.0,0.0,0.0,0.0,0.0,0.0,0.0,0.0,0.0,0.0,0.0,0.0,0.0,0.0,0.0,0.0,0.0,0.0,0.0,0.0,0.0,0.0,0.0,0.0,0.0,0.0,0.0,0.0,0.0,0.0,0.0,0.0,0.0,0.0,0.0,0.0,0.0,-1.9805,-2.0878,-2.0323,-1.9863,-1.9699,-2.0176,-1.9394,-1.6853,0.0,0.0,0.0,0.0,0.0,0.0,0.0,0.0,0.0,0.0,0.0,0.0,0.0,0.0,0.0,0.0,0.0,0.0,0.0,0.0,0.0,0.0,0.0,0.0,0.0,0.0,0.0,0.0,0.0,0.0,0.0,0.0,0.0,0.0,0.0,0.0,0.0,0.0,0.0,0.0,0.0,0.0,0.0,0.0,0.0,0.0,0.0,0.0,0.0,0.0,0.0,0.0,0.0,0.0,0.0,0.0,0.0,0.0,0.0,0.0,0.0,0.0,0.0,0.0,0.0,0.0,0.0,0.0,0.0,0.0,0.0,0.0,0.0,0.0,0.0,0.0,0.0,0.0,0.0,0.0,0.0,0.0,0.0,0.0,0.0,0.0,0.0,0.0,0.0,0.0,0.0,0.0,0.0,0.0,0.0,0.0,0.0,0.0,0.0,0.0,0.0,0.0,0.0,-1.9597,-2.0654,-2.1491,-2.0898,-2.0386,-2.0299,-2.0677,-1.9766,-1.7012,-1.7113,0.0,0.0,0.0,0.0,0.0,0.0,0.0,0.0,0.0,0.0,0.0,0.0,0.0,0.0,0.0,0.0,0.0,0.0,0.0,0.0,0.0,0.0,0.0,0.0,0.0,0.0,0.0,0.0,0.0,0.0,0.0,0.0,0.0,0.0,0.0,0.0,0.0,0.0,0.0,0.0,0.0,0.0,0.0,0.0,0.0,0.0,0.0,0.0,0.0,0.0,0.0,0.0,0.0,0.0,0.0,0.0,0.0,0.0,0.0,0.0,0.0,0.0,0.0,0.0,0.0,0.0,0.0,0.0,0.0,0.0,0.0,0.0,0.0,0.0,0.0,0.0,0.0,0.0,0.0,0.0,0.0,0.0,0.0,0.0,0.0,0.0,0.0,0.0,0.0,0.0,0.0,0.0,0.0,0.0,0.0,0.0,0.0,0.0,0.0,0.0,0.0,0.0,-2.0731,-2.1441,-2.197,-2.139,-2.0961,-2.0893,-2.1084,-2.0122,-1.7533,-1.7571,0.0,0.0,0.0,0.0,0.0,0.0,0.0,0.0,0.0,0.0,0.0,0.0,0.0,0.0,0.0,0.0,0.0,0.0,0.0,0.0,0.0,0.0,0.0,0.0,0.0,0.0,0.0,0.0,0.0,0.0,0.0,0.0,0.0,0.0,0.0,0.0,0.0,0.0,0.0,0.0,0.0,0.0,0.0,0.0,0.0,0.0,0.0,0.0,0.0,0.0,0.0,0.0,0.0,0.0,0.0,0.0,0.0,0.0,0.0,0.0,0.0,0.0,0.0,0.0,0.0,0.0,0.0,0.0,0.0,0.0,0.0,0.0,0.0,0.0,0.0,0.0,0.0,0.0,0.0,0.0,0.0,0.0,0.0,0.0,0.0,0.0,0.0,0.0,0.0,0.0,0.0,0.0,0.0,0.0,0.0,0.0,0.0,0.0,0.0,0.0,0.0,0.0,-2.0542,-2.1528,-2.2351,-2.1679,-2.1366,-2.1748,-2.1426,-2.041,-1.8593,-1.7998,0.0,0.0,0.0,0.0,0.0,0.0,0.0,0.0,0.0,0.0,0.0,0.0,0.0,0.0,0.0,0.0,0.0,0.0,0.0,0.0,0.0,0.0,0.0,0.0,0.0,0.0,0.0,0.0,0.0,0.0,0.0,0.0,0.0,0.0,0.0,0.0,0.0,0.0,0.0,0.0,0.0,0.0,0.0,0.0,0.0,0.0,0.0,0.0,0.0,0.0,0.0,0.0,0.0,0.0,0.0,0.0,0.0,0.0,0.0,0.0,0.0,0.0,0.0,0.0,0.0,0.0,0.0,0.0,0.0,0.0,0.0,0.0,0.0,0.0,0.0,0.0,0.0,0.0,0.0,0.0,0.0,0.0,0.0,0.0,0.0,0.0,0.0,0.0,0.0,0.0,0.0,0.0,0.0,0.0,0.0,0.0,0.0,0.0,0.0,0.0,0.0,0.0,-2.1173,-2.2241,-2.2859,-2.2268,-2.2075,-2.2654,-2.2275,-2.1315,-1.9712,0.0,0.0,0.0,0.0,0.0,0.0,0.0,0.0,0.0,0.0,0.0,0.0,0.0,0.0,0.0,0.0,0.0,0.0,0.0,0.0,0.0,0.0,0.0,0.0,0.0,0.0,0.0,0.0,0.0,0.0,0.0,0.0,0.0,0.0,0.0,0.0,0.0,0.0,0.0,0.0,0.0,0.0,0.0,0.0,0.0,0.0,0.0,0.0,0.0,0.0,0.0,0.0,0.0,0.0,0.0,0.0,0.0,0.0,0.0,0.0,0.0,0.0,0.0,0.0,0.0,0.0,0.0,0.0,0.0,0.0,0.0,0.0,0.0,0.0,0.0,0.0,0.0,0.0,0.0,0.0,0.0,0.0,0.0,0.0,0.0,0.0,0.0,0.0,0.0,0.0,0.0,0.0,0.0,0.0,0.0,0.0,0.0,0.0,0.0,0.0,0.0,0.0,-2.0449,-2.1793,-2.2961,-2.3546,-2.2959,-2.2744,-2.337,-2.2853,-2.1997,-2.0765,0.0,0.0,0.0,0.0,0.0,0.0,0.0,0.0,0.0,0.0,0.0,0.0,0.0,0.0,0.0,0.0,0.0,0.0,0.0,0.0,0.0,0.0,0.0,0.0,0.0,0.0,0.0,0.0,0.0,0.0,0.0,0.0,0.0,0.0,0.0,0.0,0.0,0.0,0.0,0.0,0.0,0.0,0.0,0.0,0.0,0.0,0.0,0.0,0.0,0.0,0.0,0.0,0.0,0.0,0.0,0.0,0.0,0.0,0.0,0.0,0.0,0.0,0.0,0.0,0.0,0.0,0.0,0.0,0.0,0.0,0.0,0.0,0.0,0.0,0.0,0.0,0.0,0.0,0.0,0.0,0.0,0.0,0.0,0.0,0.0,0.0,0.0,0.0,0.0,0.0,0.0,0.0,0.0,0.0,0.0,0.0,0.0,0.0,0.0,0.0,0.0,0.0,-2.1181,-2.2407,-2.3577,-2.4447,-2.3774,-2.3421,-2.3898,-2.309,-2.2353,0.0,0.0,0.0,0.0,0.0,0.0,0.0,0.0,0.0,0.0,0.0,0.0,0.0,0.0,0.0,0.0,0.0,0.0,0.0,0.0,0.0,0.0,0.0,0.0,0.0,0.0,0.0,0.0,0.0,0.0,0.0,0.0,0.0,0.0,0.0,0.0,0.0,0.0,0.0,0.0,0.0,0.0,0.0,0.0,0.0,0.0,0.0,0.0,0.0,0.0,0.0,0.0,0.0,0.0,0.0,0.0,0.0,0.0,0.0,0.0,0.0,0.0,0.0,0.0,0.0,0.0,0.0,0.0,0.0,0.0,0.0,0.0,0.0,0.0,0.0,0.0,0.0,0.0,0.0,0.0,0.0,0.0,0.0,0.0,0.0,0.0,0.0,0.0,0.0,0.0,0.0,0.0,0.0,0.0,0.0,0.0,0.0,0.0,0.0,0.0,0.0,0.0,0.0,-2.2467,-2.431,-2.5771,-2.6408,-2.5905,-2.5871,-2.671,-2.5871,-2.5008,-2.423,0.0,0.0,0.0,0.0,0.0,0.0,0.0,0.0,0.0,0.0,0.0,0.0,0.0,0.0,0.0,0.0,0.0,0.0,0.0,0.0,0.0,0.0,0.0,0.0,0.0,0.0,0.0,0.0,0.0,0.0,0.0,0.0,0.0,0.0,0.0,0.0,0.0,0.0,0.0,0.0,0.0,0.0,0.0,0.0,0.0,0.0,0.0,0.0,0.0,0.0,0.0,0.0,0.0,0.0,0.0,0.0,0.0,0.0,0.0,0.0,0.0,0.0,0.0,0.0,0.0,0.0,0.0,0.0,0.0,0.0,0.0,0.0,0.0,0.0,0.0,0.0,0.0,0.0,0.0,0.0,0.0,0.0,0.0,0.0,0.0,0.0,0.0,0.0,0.0,0.0,0.0,0.0,0.0,0.0,0.0,0.0,0.0,0.0,0.0,0.0,0.0,0.0,-2.3384,-2.4898,-2.6102,-2.6661,-2.6651,-2.6813,-2.7358,-2.7062,-2.6502,-2.5777,0.0,0.0,0.0,0.0,0.0,0.0,0.0,0.0,0.0,0.0,0.0,0.0,0.0,0.0,0.0,0.0,0.0,0.0,0.0,0.0,0.0,0.0,0.0,0.0,0.0,0.0,0.0,0.0,0.0,0.0,0.0,0.0,0.0,0.0,0.0,0.0,0.0,0.0,0.0,0.0,0.0,0.0,0.0,0.0,0.0,0.0,0.0,0.0,0.0,0.0,0.0,0.0,0.0,0.0,0.0,0.0,0.0,0.0,0.0,0.0,0.0,0.0,0.0,0.0,0.0,0.0,0.0,0.0,0.0,0.0,0.0,0.0,0.0,0.0,0.0,0.0,0.0,0.0,0.0,0.0,0.0,0.0,0.0,0.0,0.0,0.0,0.0,0.0,0.0,0.0,0.0,0.0,0.0,0.0,0.0,0.0,0.0,0.0,0.0,0.0,0.0,0.0,-2.4241,-2.5015,-2.5786,-2.6398,-2.6868,-2.711,-2.7015,-2.7292,-2.729,-2.6787,0.0,0.0,0.0,0.0,0.0,0.0,0.0,0.0,0.0,0.0,0.0,0.0,0.0,0.0,0.0,0.0,0.0,0.0,0.0,0.0,0.0,0.0,0.0,0.0,0.0,0.0,0.0,0.0,0.0,0.0,0.0,0.0,0.0,0.0,0.0,0.0,0.0,0.0,0.0,0.0,0.0,0.0,0.0,0.0,0.0,0.0,0.0,0.0,0.0,0.0,0.0,0.0,0.0,0.0,0.0,0.0,0.0,0.0,0.0,0.0,-1.9493,-1.7989,0.0,0.0,0.0,0.0,0.0,0.0,0.0,0.0,0.0,0.0,0.0,0.0,0.0,0.0,0.0,0.0,0.0,0.0,0.0,0.0,0.0,0.0,0.0,0.0,0.0,0.0,0.0,0.0,0.0,0.0,0.0,0.0,0.0,0.0,0.0,0.0,0.0,0.0,0.0,0.0,-2.6462,-2.8222,-2.9785,-3.0773,-3.0589,-3.058,-3.0954,-2.9699,-2.8824,-2.8717,-2.6594,0.0,0.0,0.0,0.0,0.0,0.0,0.0,0.0,0.0,0.0,0.0,0.0,0.0,0.0,0.0,0.0,0.0,0.0,0.0,0.0,0.0,0.0,0.0,0.0,0.0,0.0,0.0,0.0,0.0,0.0,0.0,0.0,0.0,0.0,0.0,0.0,0.0,0.0,0.0,0.0,0.0,0.0,0.0,0.0,0.0,0.0,0.0,0.0,0.0,0.0,0.0,0.0,0.0,0.0,0.0,0.0,0.0,0.0,0.0,-2.1304,-2.0042,0.0,0.0,0.0,0.0,0.0,0.0,0.0,0.0,0.0,0.0,0.0,0.0,0.0,0.0,0.0,0.0,0.0,0.0,0.0,0.0,0.0,0.0,0.0,0.0,0.0,0.0,0.0,0.0,0.0,0.0,0.0,0.0,0.0,0.0,0.0,0.0,0.0,0.0,0.0,0.0,-2.7681,-2.8875,-2.9715,-3.0103,-3.0353,-3.0486,-3.0487,-2.9762,-2.9197,-2.8951,-2.7573,0.0,0.0,0.0,0.0,0.0,0.0,0.0,0.0,0.0,0.0,0.0,0.0,0.0,0.0,0.0,0.0,0.0,0.0,0.0,0.0,0.0,0.0,0.0,0.0,0.0,0.0,0.0,0.0,0.0,0.0,0.0,0.0,0.0,0.0,0.0,0.0,0.0,0.0,0.0,0.0,0.0,0.0,0.0,0.0,0.0,0.0,0.0,0.0,0.0,0.0,0.0,0.0,0.0,-2.2544,-2.2636,-2.225,-2.2828,-2.3317,-2.3759,-2.2869,-2.2119,-2.1472,-2.0707,0.0,0.0,0.0,0.0,0.0,0.0,0.0,0.0,0.0,0.0,0.0,0.0,0.0,0.0,0.0,0.0,0.0,0.0,0.0,0.0,0.0,0.0,0.0,0.0,-2.7258,-2.7183,-2.6005,0.0,0.0,0.0,0.0,0.0,0.0,0.0,0.0,0.0,0.0,0.0,-2.8711,-2.9032,-2.9106,-2.8959,-2.9721,-3.0107,-2.9722,-2.9568,-2.9343,-2.906,-2.8057,-2.7258,0.0,0.0,0.0,0.0,0.0,0.0,0.0,0.0,0.0,0.0,0.0,0.0,0.0,0.0,0.0,0.0,0.0,0.0,0.0,0.0,0.0,0.0,0.0,0.0,0.0,0.0,0.0,0.0,0.0,0.0,0.0,0.0,-1.5979,-1.6089,0.0,0.0,0.0,0.0,0.0,0.0,0.0,0.0,0.0,0.0,0.0,0.0,0.0,-2.0969,-2.1128,-2.1751,-2.2085,-2.2156,-2.3248,-2.3712,-2.3681,-2.4485,-2.4908,-2.4959,-2.4836,0.0,-2.2969,-2.3411,0.0,0.0,0.0,0.0,0.0,0.0,0.0,0.0,0.0,0.0,0.0,0.0,0.0,0.0,0.0,0.0,0.0,0.0,0.0,0.0,0.0,0.0,-3.0555,-3.1195,-3.1423,-3.1411,0.0,-2.8261,-2.5414,-2.4805,-2.4701,0.0,0.0,0.0,0.0,0.0,0.0,0.0,-3.0537,-3.125,-3.2087,-3.2995,-3.3219,-3.3486,-3.3839,-3.1608,-3.0481,-3.1144,-2.8022,-2.6638,-2.7759,-2.6225,0.0,0.0,0.0,0.0,0.0,0.0,0.0,0.0,0.0,0.0,0.0,0.0,0.0,0.0,0.0,0.0,0.0,0.0,0.0,0.0,0.0,0.0,0.0,0.0,0.0,0.0,0.0,0.0,0.0,-1.598,-1.6951,-1.7563,-1.7536,-1.7526,0.0,0.0,0.0,0.0,0.0,0.0,0.0,0.0,0.0,-2.1486,-2.1934,-2.2492,-2.3094,-2.3638,-2.403,-2.4277,-2.5034,-2.5298,-2.507,-2.5689,-2.5989,-2.5989,-2.5989,-2.5637,-2.5057,-2.4448,-2.3748,-2.3023,0.0,0.0,0.0,0.0,-2.4279,-2.4737,-2.6001,-2.7117,-2.79,-2.7307,0.0,0.0,0.0,0.0,0.0,0.0,0.0,0.0,0.0,0.0,-3.1648,-3.3214,-3.3144,-3.2792,-3.3093,-3.1685,-2.99,0.0,-2.7212,-2.7042,-2.8252,0.0,0.0,0.0,0.0,-3.1089,-3.157,-3.2498,-3.3127,-3.3011,-3.333,-3.354,-3.3456,-3.2043,-3.1171,-3.1258,-2.9906,-2.9242,-2.9565,-2.8011,-2.6725,0.0,0.0,0.0,0.0,0.0,0.0,0.0,0.0,0.0,0.0,0.0,0.0,0.0,0.0,0.0,0.0,0.0,0.0,0.0,0.0,0.0,0.0,0.0,0.0,0.0,0.0,0.0,0.0,-1.7407,-1.8363,-1.9183,-1.9023,-1.8944,0.0,0.0,0.0,0.0,0.0,0.0,-2.1166,-2.1752,-2.236,-2.2941,-2.3412,-2.4113,-2.5013,-2.5399,-2.5792,-2.6283,-2.6625,-2.6615,-2.6248,-2.6713,-2.691,-2.691,-2.691,-2.6982,-2.6982,-2.5461,-2.4746,-2.4633,-2.4469,-2.4425,-2.4536,-2.5615,-2.6153,-2.6596,-2.814,-2.9379,-3.0167,-2.9732,-3.0049,-3.035,-2.9337,0.0,0.0,0.0,0.0,-2.9775,-3.1563,-3.2134,-3.2744,-3.4853,-3.4726,-3.4236,-3.465,-3.4545,-3.3657,0.0,-3.0061,-2.9781,-3.1125,0.0,0.0,-3.2775,-3.2438,-3.2099,-3.2769,-3.347,-3.3687,-3.3168,-3.3545,-3.3749,-3.3515,-3.2828,-3.2171,-3.1611,-3.165,-3.1514,-3.1208,-3.0007,-2.9117,-2.8518,0.0,0.0,0.0,0.0,0.0,0.0,0.0,0.0,0.0,0.0,0.0,0.0,0.0,0.0,0.0,0.0,0.0,0.0,0.0,0.0,0.0,0.0,0.0,0.0,0.0,0.0,0.0,0.0,0.0,-2.1054,-2.161,0.0,0.0,0.0,0.0,-2.1737,-2.2201,-2.2544,-2.2767,-2.3647,-2.444,-2.5034,-2.5513,-2.5978,-2.6511,-2.6542,-2.6781,-2.7237,-2.7258,-2.7258,-2.7247,-2.7655,-2.7852,-2.7852,-2.7852,-2.811,-2.84,-2.7034,-2.6206,-2.5813,-2.5813,-2.5813,-2.6041,-2.8004,-2.9272,-3.0257,-3.1672,-3.3126,-3.4297,-3.3796,-3.2802,-3.1676,-3.1155,-3.0359,0.0,0.0,-3.1632,-3.2731,-3.4167,-3.4898,-3.5574,-3.6797,-3.701,-3.6985,-3.701,-3.6308,-3.5077,0.0,-3.3308,-3.3614,-3.3702,0.0,-3.4415,-3.4573,-3.4535,-3.451,-3.4555,-3.4186,-3.4254,-3.5261,-3.5386,-3.5624,-3.6175,-3.4829,-3.3764,-3.3234,-3.2324,-3.1973,-3.231,-3.1757,-3.1031,-3.0216,-2.9072,0.0,0.0,0.0,0.0,0.0,0.0,0.0,0.0,0.0,0.0,0.0,0.0,0.0,0.0,0.0,0.0,0.0,0.0,0.0,0.0,0.0,0.0,0.0,0.0,0.0,0.0,0.0,0.0,-2.1645,-2.1995,0.0,-2.2948,-2.2737,-2.2778,-2.3358,-2.3922,-2.4317,-2.436,-2.5259,-2.5871,-2.6082,-2.6806,-2.7272,-2.7438,-2.7738,-2.7966,-2.8131,-2.8131,-2.8131,-2.8131,-2.8297,-2.8369,-2.8369,-2.8369,-2.8462,-2.8576,-2.809,-2.779,-2.7665,-2.7966,-2.8079,-2.8299,-2.9925,-3.0745,-3.1296,-3.316,-3.4184,-3.4709,-3.5335,-3.5419,-3.5233,-3.4686,-3.4518,-3.4576,-3.4499,-3.5012,-3.5655,-3.6197,-3.6709,-3.7324,-3.809,-3.799,-3.7814,-3.8191,-3.7717,-3.7009,-3.6386,-3.5065,-3.4561,-3.6263,-3.5529,-3.5077,-3.6144,-3.5658,-3.5082,-3.4718,-3.5165,-3.5504,-3.5495,-3.5868,-3.6157,-3.6392,-3.5886,-3.5338,-3.4746,-3.4384,-3.4081,-3.3872,-3.3385,-3.2754,-3.2109,-3.1742,-3.0429,0.0,0.0,0.0,0.0,0.0,0.0,0.0,0.0,0.0,0.0,0.0,0.0,0.0,0.0,0.0,0.0,0.0,0.0,0.0,0.0,0.0,0.0,0.0,0.0,0.0,-2.0663,-2.1739,-2.2402,-2.2757,-2.3289,-2.4041,-2.3995,-2.4214,-2.4964,-2.5558,-2.5978,-2.6088,-2.6848,-2.7251,-2.7251,-2.7841,-2.8235,-2.839,-2.869,-2.8928,-2.9073,-2.9073,-2.9073,-2.9073,-2.9073,-2.9073,-2.9073,-2.9073,-2.9073,-2.9073,-2.9073,-2.9073,-2.9104,-2.9415,-2.9632,-3.0026,-3.1829,-3.2498,-3.2806,-3.4984,-3.5746,-3.5905,-3.6682,-3.7186,-3.7387,-3.7023,-3.7174,-3.7387,-3.7048,-3.7199,-3.7513,-3.7701,-3.8027,-3.8442,-3.9019,-3.8856,-3.868,-3.9069,-3.8843,-3.8567,-3.8567,-3.6862,-3.5964,-3.7715,-3.6797,-3.627,-3.7563,-3.6646,-3.583,-3.583,-3.5981,-3.6019,-3.583,-3.6307,-3.6681,-3.6681,-3.7209,-3.7086,-3.611,-3.6586,-3.6473,-3.5592,-3.5124,-3.4545,-3.3864,-3.3136,-3.2178,-3.1003,0.0,0.0,0.0,0.0,0.0,0.0,0.0,0.0,0.0,0.0,0.0,0.0,0.0,0.0,0.0,0.0,0.0,0.0,0.0,0.0,0.0,0.0,0.0,-2.0774,-2.1222,-2.2123,-2.3494,-2.4195,-2.4954,-2.5834,-2.5982,-2.6179,-2.6646,-2.7092,-2.7489,-2.7924,-2.838,-2.8628,-2.8628,-2.8649,-2.8866,-2.9321,-2.9321,-2.9549,-2.9994,-2.9994,-2.9994,-2.9994,-2.9994,-2.9994,-2.9994,-2.9994,-2.9994,-2.9994,-2.9994,-3.0005,-3.0015,-3.0036,-3.0315,-3.1018,-3.3656,-3.4664,-3.5028,-3.7218,-3.8003,-3.8052,-3.8052,-3.8052,-3.8052,-3.8052,-3.8052,-3.8052,-3.8052,-3.8052,-3.8191,-3.8743,-3.8944,-3.9082,-3.9572,-3.9697,-3.9697,-3.9697,-3.9697,-3.9697,-3.9697,-3.8806,-3.8052,-3.8052,-3.8052,-3.8228,-3.8831,-3.7511,0.0,-3.7864,-3.6561,-3.583,-3.643,-3.6958,-3.7236,-3.7236,-3.873,-3.8969,-3.7312,-3.8743,-3.8906,-3.7274,-3.6986,-3.6359,-3.5346,-3.3243,-3.2285,-3.2509,0.0,0.0,0.0,0.0,0.0,0.0,0.0,0.0,0.0,0.0,0.0,0.0,0.0,0.0,0.0,0.0,0.0,0.0,0.0,0.0,0.0,-2.1298,-2.2573,-2.2737,-2.3289,-2.4083,-2.5158,-2.573,-2.6237,-2.6874,-2.7169,-2.7552,-2.8017,-2.8173,-2.8297,-2.8421,-2.8866,-2.9114,-2.9114,-2.9446,-2.9673,-2.9808,-2.9808,-2.987,-2.9994,-2.9994,-2.9994,-2.9994,-2.9994,-2.9994,-2.9994,-2.9994,-2.9994,-2.9994,-2.9994,-3.0191,-3.0532,-3.0864,-3.1071,-3.1387,-3.2757,-3.4329,-3.5879,-3.6467,-3.7818,-3.9233,-3.9233,-3.9233,-3.9233,-3.9233,-3.9233,-3.9233,-3.9233,-3.9233,-3.927,-3.9433,-3.9471,-3.9509,-3.9659,-3.9697,-3.9697,-3.9697,-3.9697,-3.9697,-3.9697,-3.9446,-3.9233,-3.9233,-3.8894,-3.8693,-3.8894,-3.8128,0.0,-3.7965,-3.7613,-3.755,-3.8177,-3.8366,-3.8404,-3.8404,-3.8881,-3.8718,-3.7839,-3.8216,-3.8266,-3.7801,-3.7705,-3.7147,-3.6106,-3.5499,-3.5003,0.0,0.0,0.0,0.0,0.0,0.0,0.0,0.0,0.0,0.0,0.0,0.0,0.0,0.0,0.0,0.0,0.0,0.0,0.0,0.0,0.0,0.0,-2.2714,-2.3926,-2.4998,-2.5127,-2.544,-2.6351,-2.6858,-2.7314,-2.7779,-2.8059,-2.8411,-2.8866,-2.8897,-2.899,-2.9187,-2.9446,-2.9591,-2.9591,-2.986,-2.9994,-2.9994,-2.9994,-2.9994,-2.9994,-2.9994,-2.9994,-2.9994,-2.9994,-2.9994,-2.9994,-2.9994,-2.9994,-2.9994,-2.9994,-3.0263,0.0,0.0,0.0,0.0,0.0,-3.4902,-3.6846,-3.6348,-3.7725,-3.9633,-3.9089,-3.931,-3.9697,-3.9697,-3.9697,-3.9697,-3.9697,-3.9697,-3.9697,-3.9697,-3.9697,-3.9697,-3.9697,-3.9697,-3.9697,-3.9697,-3.9697,-3.9697,-3.9697,-3.9697,0.0,-3.9697,-3.9433,-3.9129,-3.8916,-3.8603,-3.8291,-3.7986,-3.7565,-3.7617,-3.8417,-3.8301,-3.8336,-3.8868,-3.9509,0.0,0.0,0.0,-3.9127,-3.8585,-3.8364,0.0,0.0,0.0,0.0,0.0,0.0,0.0,0.0,-3.2644,-3.2692,0.0,0.0,0.0,0.0,0.0,0.0,0.0,0.0,0.0,0.0,0.0,0.0,0.0,0.0,0.0,0.0,-2.4308,-2.5409,-2.7081,-2.6729,-2.6548,-2.7372,-2.781,-2.8245,-2.8649,-2.8742,-2.8938,-2.9352,-2.9384,-2.9559,-2.9973,-2.9994,0.0,0.0,0.0,-2.9994,-2.9994,-2.9994,-2.9994,-2.9994,-2.9994,-2.9994,-2.9994,-2.9994,-2.9994,-2.9994,-2.9994,-2.9994,-3.0005,-3.0056,-3.0377,-3.0874,-3.1298,-3.1723,-3.228,-3.3781,-3.5663,-3.734,-3.636,0.0,0.0,-3.8056,-3.8437,-3.931,-3.9478,-3.9478,-3.953,-3.9645,-3.9697,-3.9697,-3.9697,-3.9697,-3.9697,-3.9697,-3.9697,-3.9697,-3.9697,-3.9697,-3.9697,-3.9697,-3.9697,-3.9697,-3.9697,-3.9697,-3.9524,-3.9004,-3.8926,-3.8711,-3.7995,-3.7184,-3.7037,-3.7967,0.0,0.0,-3.9006,-4.0282,-4.063,-3.976,-4.0614,-4.0591,-3.9375,-3.893,-3.8519,-3.8081,-3.7006,-3.637,-3.6164,-3.5967,-3.5737,-3.5569,-3.6309,-3.6061,0.0,0.0,0.0,0.0,0.0,0.0,0.0,0.0,0.0,0.0,0.0,0.0,0.0,0.0,0.0,-2.4258,-2.5675,-2.6905,-2.7258,-2.8059,-2.8566,-2.8369,-2.8763,-2.9073,-2.9166,-2.9508,-2.9766,-2.986,-2.986,-2.9901,-2.9994,-2.9994,-2.9994,-2.9994,-2.9994,-2.9994,-2.9994,-2.9994,-2.9994,-2.9994,0.0,0.0,-2.9994,-2.9994,-2.9994,-2.9994,-2.9994,-2.9994,-3.0025,-3.0398,-3.104,-3.1729,-3.1878,-3.2132,-3.2602,-3.2913,-3.3931,-3.5135,-3.4902,-3.5717,-3.6846,-3.6619,-3.6684,-3.7061,-3.795,-3.8279,0.0,-3.9426,-3.9697,-3.9697,-3.9697,-3.9697,-3.9697,-3.9697,-3.9697,-3.9697,-3.9697,-3.9697,-3.9697,-3.9697,-3.9697,-3.9697,-3.9697,-3.9697,-3.9671,-3.9551,-3.9556,-3.9134,-3.8043,-3.858,-3.8941,-3.8652,-3.9352,-3.9925,-4.0147,-3.9644,-3.9386,-3.9683,-3.9885,-3.9894,-3.9621,-3.9521,-3.9262,-3.8752,-3.8705,-3.8416,-3.7927,-3.8306,-3.8445,-3.8359,-3.6877,-3.5986,0.0,0.0,0.0,0.0,0.0,0.0,0.0,0.0,0.0,0.0,0.0,-2.2193,-2.3084,0.0,-2.4753,-2.5751,-2.6708,-2.7548,-2.8193,-2.8876,-2.9218,-2.899,-2.9363,-2.9653,-2.9653,-2.986,-2.9994,-2.9994,-2.9994,-2.9994,-2.9994,-2.9994,-2.9994,-2.9994,-2.9994,-2.9994,-2.9994,-2.9994,-2.9994,-2.9994,-2.9994,-2.9994,-2.9994,-2.9994,-2.9994,-2.9994,-2.9994,-3.0129,-3.0398,-3.1081,-3.1629,-3.2008,-3.2246,-3.2473,-3.2669,-3.2669,-3.3434,-3.4424,-3.3829,-3.4736,-3.6131,-3.5542,-3.5761,-3.6402,-3.7554,-3.7897,-3.8161,-3.9362,-3.9697,-3.9697,-3.9697,-3.9697,-3.9697,-3.9697,-3.9697,-3.9697,-3.9697,-3.9697,-3.9697,-3.9697,-3.9697,-3.9697,-3.9697,-3.9697,-3.9478,-3.8868,-3.931,-3.9258,-3.8056,-3.8437,-3.8927,-3.9238,-3.9222,-3.9433,-4.0047,-3.9603,-3.9374,-3.9658,-3.9839,-3.989,-3.989,-4.0044,-3.9893,-3.9471,-3.9471,-3.929,-3.8812,-3.9043,-3.9201,-3.9162,-3.8257,-3.7815,0.0,0.0,0.0,0.0,0.0,0.0,0.0,-2.1113,-2.1024,-2.2463,-2.3063,-2.3526,-2.4296,-2.4813,-2.5709,-2.7272,-2.7652,-2.8087,-2.9145,-2.9384,-2.9435,-2.9435,-2.9766,-2.9994,-2.9994,-2.9994,-2.9994,-2.9994,-2.9994,-2.9994,-2.9994,-2.9994,-2.9994,-2.9994,-2.9994,-2.9994,-2.9994,-2.9994,-2.9994,-2.9994,-2.9994,-2.9994,-2.9994,-2.9994,-2.9994,-3.0005,-3.0087,-3.0439,-3.1008,-3.1688,-3.2039,-3.2153,-3.2525,-3.2669,-3.2669,-3.2669,-3.3332,-3.3987,-3.3058,-3.392,-3.5432,-3.4747,-3.5113,-3.6143,-3.7512,-3.7897,-3.8161,-3.9362,-3.9772,-3.9848,-3.9848,-3.9936,-4.0011,-4.0011,-3.9936,-3.9848,-3.9848,-3.9772,-3.9697,-3.9697,-3.9697,-3.9697,-3.9697,-3.9697,-3.9362,-3.8384,-3.9089,-3.9258,-3.8056,-3.8108,-3.8542,-3.9258,-3.8712,-3.8542,-3.931,-3.9581,-3.9581,-3.9362,-3.9814,-4.007,-4.007,-4.0351,-4.0387,-4.0124,-3.9974,-3.9792,-3.9524,-3.9573,-3.9622,-3.9622,-3.9829,-3.9821,-1.5561,-1.6043,-1.7387,-2.0701,-2.0771,-2.0769,0.0,-2.3617,-2.3638,-2.5135,-2.5823,-2.6392,-2.7256,-2.7462,-2.77,-2.8359,-2.8804,-2.9135,-2.929,-2.9653,-2.9922,-2.9922,-2.9963,-2.9994,-2.9994,-2.9994,-2.9994,-2.9994,-2.9994,-2.9994,-2.9994,-2.9994,-2.9994,-2.9994,-2.9994,-2.9994,-2.9994,-2.9994,-2.9994,-2.9994,-2.9994,-2.9994,-2.9994,-2.9994,-2.9994,-3.0015,-3.0429,-3.1102,-3.1843,-3.1946,-3.2225,-3.2607,-3.2659,-3.2669,-3.2669,-3.2669,-3.2784,-3.2898,-3.2727,-3.2887,-3.3275,-3.4201,-3.458,-3.5068,-3.7245,-3.7897,-3.8161,-3.9362,-4.0049,-4.0425,-4.0425,-4.0736,-4.11,-4.11,-4.0777,-4.0425,-4.0425,-4.0036,-3.9697,-3.9697,-3.9697,-3.9697,-3.9697,-3.9697,-3.9633,-3.953,-3.9633,-3.9258,-3.8056,-3.8816,-3.9141,-3.8214,-3.8933,-3.9141,-3.8161,-3.9089,-3.9258,-3.8161,-3.9389,-4.007,-4.007,-4.0351,-4.0465,-4.0465,-4.0654,-4.0754,-4.0702,-4.0965,-4.1078,-4.1078,-4.1078,-4.0579,-1.7388,-1.8118,-1.9194,-2.1814,-2.1959,-2.2039,-2.4556,-2.4421,-2.4326,-2.6305,-2.6884,-2.7216,-2.781,-2.8142,-2.8473,-2.8938,-2.9177,-2.9404,-2.9673,-2.988,-2.9994,-2.9994,-2.9994,-2.9994,-2.9994,-2.9994,-2.9994,-2.9994,-2.9994,-2.9994,-2.9994,-2.9994,-2.9994,-2.9994,-2.9994,-2.9994,-2.9994,-2.9994,-2.9994,-2.9994,-2.9994,-2.9994,-2.9994,-2.9994,-3.0139,-3.0439,-3.1164,-3.1636,-3.2008,-3.2277,-3.2494,-3.2669,-3.2669,-3.2882,-3.3068,-3.282,-3.2669,-3.2669,-3.2669,-3.2669,-3.2825,-3.3637,-3.3883,-3.4211,-3.6106,-3.6701,-3.6914,-3.8142,-3.8637,-3.8804,-3.8804,-3.8971,-3.9137,-3.9137,-3.8788,-3.8394,-3.8394,-3.7989,-3.7885,-3.8542,-3.8108,-3.8108,-3.9478,-3.9141,-3.8659,-3.8659,-3.9258,-3.953,-3.8985,-3.9374,-3.953,-3.8985,-3.9426,-3.9478,-3.8985,-3.9413,-3.9478,-3.8985,-3.9659,-4.0185,-4.0338,-4.0593,-4.0795,-4.0959,-4.106,-4.1161,-4.1161,-4.1261,-4.1311,-4.1311,-4.1311,-4.105,-1.8873,-1.962,-2.0398,-2.266,-2.2978,-2.3225,-2.5162,-2.4856,-2.4661,-2.6364,-2.6962,-2.7275,-2.763,-2.8316,-2.8959,-2.9415,-2.9497,-2.9611,-2.9942,-2.9994,-2.9994,-2.9994,-2.9994,-2.9994,-2.9994,-2.9994,-2.9994,-2.9994,-2.9994,-2.9994,-2.9994,-2.9994,-2.9994,-2.9994,-2.9994,-2.9994,-2.9994,-2.9994,-2.9994,-2.9994,-2.9994,-3.0067,-3.0191,-3.0315,-3.0626,-3.1102,-3.1754,-3.206,-3.2215,-3.2727,-3.2913,-3.2923,-3.3047,-3.3296,-3.3524,-3.3213,-3.3099,-3.3099,-3.3099,-3.3099,-3.3209,-3.3859,-3.408,-3.4366,-3.5848,-3.6305,-3.6467,-3.7372,-3.7702,-3.7816,-3.7816,-3.7908,-3.7988,-3.7896,-3.7472,-3.7171,-3.7365,-3.6772,-3.6522,-3.7672,-3.7233,-3.7222,-3.8921,-3.8764,-3.8384,-3.8384,-3.9141,-3.9581,-3.9258,-3.9478,-3.9697,-3.9697,-3.9697,-3.9697,-3.9697,-3.9788,-3.9788,-3.9697,-4.0083,-4.0377,-4.0504,-4.0846,-4.1097,-4.1311,-4.1311,-4.1311,-4.1311,-4.1311,-4.1311,-4.1311,-4.1311,-4.1311,-1.8828,-1.9306,-2.01,-2.3275,-2.4044,-2.4297,-2.5285,-2.5229,-2.5012,-2.516,-2.6065,-2.6883,-2.7062,-2.8294,-2.9435,-2.9901,-2.9973,-2.9973,-2.9994,-2.9994,-2.9994,-2.9994,-2.9994,-2.9994,-2.9994,-2.9994,-2.9994,-2.9994,-2.9994,-2.9994,-2.9994,-2.9994,-2.9994,-2.9994,-2.9994,-2.9994,-2.9994,-2.9994,-2.9994,-2.9994,-2.9994,-3.0232,-3.0677,-3.1133,-3.1578,-3.1946,-3.1977,-3.2246,-3.2747,-3.3182,-3.3358,-3.3399,-3.3855,-3.41,-3.41,-3.409,-3.409,-3.409,-3.409,-3.409,-3.4258,-3.5365,-3.5704,-3.5936,-3.7201,-3.7554,-3.7542,-3.761,-3.7954,-3.8389,-3.8389,-3.8745,-3.9055,-3.855,-3.8045,-3.7877,-3.861,-3.7425,-3.6522,-3.7672,-3.7885,-3.7885,-3.795,-3.8868,-3.9645,-3.9645,-3.9697,-3.9258,-3.8108,-3.8985,-3.9697,-3.9697,-3.9697,-3.9697,-3.9697,-3.9929,-3.9981,-3.9749,-4.044,-4.0744,-4.0504,-4.101,-4.1261,-4.1311,-4.1311,-4.1311,-4.1311,-4.1311,-4.1311,-4.1311,-4.1311,-4.1311,-1.9435,-2.0784,-2.2281,-2.3635,-2.3946,-2.3909,-2.4027,-2.3834,-2.375,-2.4231,-2.4633,-2.5085,-2.5649,-2.6984,-2.81,-2.8483,-2.89,-2.9343,-2.9942,-2.9501,-2.9343,-2.9942,-2.9994,-2.9994,-2.9994,-2.9994,-2.9994,-2.9994,-2.9994,-2.9994,-2.9994,-2.9994,-2.9994,-2.9994,-2.9994,-2.9994,-2.9994,-2.9994,-3.0149,-3.046,-3.077,-3.0998,-3.1153,-3.1609,-3.2064,-3.2452,-3.2799,-3.3192,-3.3627,-3.3772,-3.3834,-3.3903,-3.4069,-3.4318,-3.4588,-3.4588,-3.4714,-3.4879,-3.4279,-3.4132,-3.4232,-3.4893,-3.5107,-3.5279,-3.5926,-3.6142,-3.6142,-3.6142,-3.6249,-3.6428,-3.6428,-3.6546,-3.6556,-3.6144,-3.5919,-3.5693,-3.5285,-3.4753,-3.4615,-3.5455,-3.5024,-3.4958,-3.6522,-3.7115,-3.7885,-3.9478,-3.9697,-3.953,-3.9154,-3.9478,-3.9697,-3.9697,-3.9697,-3.9697,-3.9697,-3.9788,-3.9788,-3.9697,-4.0134,-4.0389,-4.0504,-4.0846,-4.111,-4.1311,-4.1311,-4.1311,-4.1311,-4.1311,-4.1311,-4.1311,-4.1311,-4.1311,-2.0175,-2.1598,-2.2951,-2.3311,-2.3362,-2.3318,-2.3182,-2.2785,-2.2595,-2.3066,-2.3349,-2.3643,-2.4041,-2.5598,-2.6859,-2.6858,-2.7645,-2.8465,-2.9112,-2.89,-2.891,-2.9448,-2.9827,-2.9889,-2.9564,-2.9837,-2.9994,-2.9994,-2.9994,-2.9994,-2.9994,-2.9994,-2.9994,-2.9994,-2.9994,-2.9994,-2.9994,-2.9994,-3.0232,-3.0698,-3.1485,-3.1857,-3.1878,-3.2489,-3.2923,-3.3223,-3.3503,-3.3793,-3.4142,-3.4308,-3.437,-3.4391,-3.4486,-3.4734,-3.4993,-3.4993,-3.518,-3.5335,-3.4755,-3.4548,-3.46,-3.49,-3.4993,-3.5045,-3.5335,-3.5418,-3.5418,-3.5418,-3.5418,-3.5418,-3.5418,-3.5418,-3.5304,-3.493,-3.4691,-3.4531,-3.4317,-3.3649,-3.3445,-3.4528,-3.3993,-3.3818,-3.5333,-3.5925,-3.6846,-3.8764,-3.9037,-3.9193,-3.9633,-3.9788,-3.9839,-3.9839,-3.9942,-3.9942,-3.9839,-3.9942,-3.9942,-3.9839,-4.0185,-4.0478,-4.0643,-4.0896,-4.1097,-4.1311,-4.1311,-4.1311,-4.1311,-4.1311,-4.1311,-4.1311,-4.1311,-4.1311,-2.1009,-2.1719,-2.2088,-2.2348,-2.2433,-2.2484,-2.2685,-2.2139,-2.1579,-2.1646,-2.2127,-2.2555,-2.2356,-2.4235,-2.5671,-2.5183,-2.6341,-2.7428,-2.7741,-2.8242,-2.8581,-2.8688,-2.9448,-2.9617,-2.8847,-2.9501,-2.9994,-2.9994,-2.9994,-2.9994,-2.9994,-2.9994,-2.9994,-2.9994,-2.9994,-2.9994,-2.9994,-3.0067,-3.0336,-3.0812,-3.2157,-3.2742,-3.283,-3.3679,-3.4142,-3.4163,-3.4163,-3.4173,-3.4176,-3.4671,-3.4857,-3.4899,-3.5262,-3.5418,-3.5418,-3.5418,-3.5418,-3.5418,-3.5418,-3.5418,-3.5418,-3.5418,-3.5418,-3.5418,-3.5418,-3.5418,-3.5418,-3.5418,-3.5418,-3.5418,-3.5418,-3.5418,-3.5304,-3.493,-3.4505,-3.447,-3.5514,-3.419,-3.3246,-3.4704,-3.4684,-3.4424,-3.448,-3.5388,-3.6522,-3.7619,-3.7832,-3.8332,-3.953,-3.9929,-4.007,-4.007,-4.0338,-4.0389,-4.0121,-4.0351,-4.0402,-4.0134,-4.058,-4.0883,-4.0883,-4.1161,-4.1311,-4.1311,-4.1311,-4.1311,-4.1311,-4.1311,-4.1311,-4.1311,-4.1311,-4.1311,-2.1653,-2.2105,-2.2214,-2.1515,-2.1285,-2.1132,-2.038,-2.0078,-1.9834,-1.9617,-1.9681,-2.0069,-2.0975,-2.2504,-2.4044,-2.4998,-2.5891,-2.6681,-2.7375,-2.706,-2.7222,-2.8528,-2.891,-2.9175,-2.9617,-2.9889,-2.9994,-2.9994,-2.9994,-2.9994,-2.9994,-2.9994,-2.9994,-2.9994,-2.9994,-2.9994,-2.9994,-3.1008,-3.1754,-3.2219,-3.3244,-3.372,-3.3741,-3.3969,-3.4318,-3.464,-3.464,-3.4766,-3.5086,-3.52,-3.5252,-3.5262,-3.5376,-3.5418,-3.5418,-3.5418,-3.5418,-3.5418,-3.5418,-3.5418,-3.5418,-3.5418,-3.5418,-3.5418,-3.5418,-3.5418,-3.5418,-3.5418,-3.5418,-3.5418,-3.5418,-3.5418,-3.5304,-3.493,-3.4921,-3.4951,-3.4624,-3.4112,-3.3776,-3.3817,-3.3476,-3.3434,-3.4368,-3.4747,-3.5333,-3.6468,-3.734,-3.8332,-3.953,-3.9929,-4.007,-4.007,-4.0338,-4.0389,-4.0121,-4.0351,-4.0402,-4.0134,-4.058,-4.0883,-4.0883,-4.1161,-4.1311,-4.1311,-4.1311,-4.1311,-4.1311,-4.1311,-4.1311,-4.1311,-4.1311,-4.1311,-2.1478,-2.1702,-2.1777,-2.0708,-2.0404,-2.0171,-1.928,-1.906,-1.9016,-1.8825,-1.8672,-1.8876,-1.9896,-2.133,-2.2562,-2.326,-2.461,-2.5716,-2.6345,-2.6245,-2.6463,-2.7438,-2.7877,-2.8145,-2.8262,-2.8963,-2.9448,-2.9448,-2.9774,-2.9994,-2.9994,-2.9994,-2.9994,-2.9994,-3.0191,-3.0491,-3.0884,-3.2043,-3.2758,-3.3027,-3.3938,-3.4432,-3.4432,-3.4569,-3.4807,-3.5045,-3.5045,-3.519,-3.5418,-3.5418,-3.5418,-3.5418,-3.5418,-3.5552,-3.5728,-3.5728,-3.5852,-3.6028,-3.6028,-3.6028,-3.5966,-3.5552,-3.5418,-3.5418,-3.5418,-3.5418,-3.5418,-3.5418,-3.5418,-3.5418,-3.5418,-3.5418,-3.5355,-3.5107,-3.5086,-3.4993,-3.4536,-3.4277,-3.3989,-3.3789,-3.3482,-3.3476,-3.3933,-3.4005,-3.453,-3.6002,-3.6738,-3.782,-3.962,-4.0083,-4.0338,-4.0427,-4.0694,-4.0744,-4.0478,-4.0593,-4.0593,-4.0478,-4.0732,-4.0933,-4.1047,-4.1211,-4.1311,-4.1311,-4.1311,-4.1311,-4.1311,-4.1311,-4.1311,-4.1311,-4.1311,-4.1311,-2.0947,-2.094,-2.089,-2.0014,-1.9786,-1.9595,-1.8928,-1.8789,-1.8767,-1.8679,-1.8401,-1.8421,-1.9228,-2.0369,-2.1285,-2.1441,-2.3228,-2.4744,-2.5084,-2.5633,-2.6035,-2.6091,-2.6789,-2.6952,-2.6354,-2.7653,-2.8581,-2.8688,-2.9396,-2.9889,-2.9994,-2.9994,-3.0056,-3.018,-3.0626,-3.1309,-3.2209,-3.3047,-3.3503,-3.3575,-3.4494,-3.4909,-3.4859,-3.5242,-3.5418,-3.5418,-3.5418,-3.5418,-3.5418,-3.5418,-3.5418,-3.5418,-3.5418,-3.5707,-3.6111,-3.6111,-3.6411,-3.6804,-3.6804,-3.6804,-3.666,-3.579,-3.5511,-3.55,-3.5438,-3.5418,-3.5418,-3.5418,-3.5418,-3.5418,-3.5418,-3.5418,-3.5418,-3.5418,-3.5128,-3.492,-3.4982,-3.4569,-3.4287,-3.4225,-3.4113,-3.3958,-3.3627,-3.3503,-3.4116,-3.5911,-3.6225,-3.7209,-3.9696,-4.0338,-4.0605,-4.0883,-4.1147,-4.1211,-4.0933,-4.0933,-4.0933,-4.0883,-4.1011,-4.1164,-4.1428,-4.1494,-4.1546,-4.1546,-4.1546,-4.1507,-4.1428,-4.1428,-4.1389,-4.1311,-4.1389,-4.1389,-2.1147,-2.0494,-1.968,-1.9802,-1.961,-1.9257,-1.8877,-1.8789,-1.8635,-1.8094,-1.7728,-1.793,-1.9525,-1.947,-2.0087,-2.2822,-2.3494,-2.3998,-2.4761,-2.5237,-2.5643,-2.6072,-2.6245,-2.6572,-2.7114,-2.7438,-2.7931,-2.8635,-2.8847,-2.9237,-2.9942,-2.9994,-3.0346,-3.1112,-3.1567,-3.224,-3.3141,-3.3679,-3.4145,-3.4588,-3.5055,-3.5304,-3.5304,-3.5387,-3.5418,-3.5418,-3.5418,0.0,-3.5418,-3.5418,-3.5418,-3.5418,-3.5418,-3.5707,-3.6111,-3.6111,-3.6411,-3.6804,-3.6804,-3.6804,-3.6711,-3.6173,-3.5997,-3.5925,-3.5531,-3.5418,-3.5418,-3.5418,-3.5418,-3.5418,-3.5418,-3.5418,-3.5418,-3.5418,-3.5366,-3.5418,-3.5801,-3.5511,-3.5076,-3.4714,-3.4391,-3.4225,-3.4526,-3.4266,-3.4438,-3.5843,-3.6488,-3.7465,-3.9418,-4.0182,-4.0605,-4.0883,-4.1147,-4.1211,-4.0933,-4.1097,-4.1147,-4.0883,-4.159,-4.2017,-4.2017,-4.2474,-4.2722,-4.2722,-4.2722,-4.25,-4.2017,-4.2017,-4.1781,-4.1324,-4.1794,-4.1768,-2.0711,-2.0188,-1.9608,-1.993,-1.9769,-1.9404,-1.8686,-1.854,-1.835,-1.7699,-1.7311,-1.7409,-1.8373,-1.8853,-1.9677,-2.1452,-2.2791,-2.3815,-2.4407,-2.4838,-2.5246,-2.5693,-2.5573,-2.556,-2.5999,-2.6472,-2.6898,-2.734,-2.7981,-2.8927,-3.0293,-3.0801,-3.1254,-3.1647,-3.2564,-3.342,-3.4142,-3.4548,-3.4879,-3.5107,-3.5324,-3.5418,-3.5418,-3.5418,-3.5418,-3.5418,-3.5418,-3.5418,-3.5418,-3.5418,-3.5418,-3.5449,-3.5687,-3.6059,-3.6504,-3.6742,-3.7125,-3.7519,-3.7519,-3.7519,-3.7446,-3.698,-3.667,-3.638,-3.5925,-3.578,-3.5728,-3.549,-3.5418,-3.548,-3.5718,-3.578,-3.5842,-3.608,-3.5769,-3.5552,-3.6008,-3.5573,-3.5148,-3.5407,-3.5086,-3.4848,-3.5066,-3.5247,-3.5725,-3.6731,-3.7444,-3.8545,-4.028,-4.0516,-4.0656,-4.1047,-4.1097,-4.1097,-4.1097,-4.1211,-4.1391,-4.1577,-4.1953,-4.2355,-4.2605,-4.2879,-4.3023,-4.3023,-4.3023,-4.2879,-4.2618,-4.2618,-4.2474,-4.22,-4.2186,-4.2173,-2.0167,-1.9901,-1.974,-2.0055,-1.9894,-1.9456,-1.8423,-1.8196,-1.7977,-1.714,-1.6769,-1.6735,-1.7234,-1.8095,-1.9049,-1.999,-2.1837,-2.344,-2.4091,-2.4641,-2.5044,-2.5335,-2.5112,-2.4907,-2.483,-2.5404,-2.5907,-2.6208,-2.7595,-2.9065,-3.0588,-3.1492,-3.2123,-3.2374,-3.3612,-3.4494,-3.49,-3.5242,-3.5418,-3.5418,-3.5418,-3.5418,-3.5418,-3.5418,-3.5418,-3.5418,-3.5418,-3.5418,-3.5428,-3.5531,-3.5573,-3.5614,-3.608,-3.6546,-3.7001,-3.7363,-3.7788,-3.8181,-3.8181,-3.8181,-3.8119,-3.7757,-3.7332,-3.6867,-3.6401,-3.6266,-3.6183,-3.5821,-3.5718,-3.5801,-3.6163,-3.6266,-3.6349,-3.6711,-3.6328,-3.5935,-3.6204,-3.5697,-3.5438,-3.6256,-3.5873,-3.548,-3.5687,-3.626,-3.7045,-3.7919,-3.8567,-3.9602,-4.1255,-4.0927,-4.0707,-4.1261,-4.1151,-4.1178,-4.1393,-4.1393,-4.1692,-4.2317,-4.2343,-4.2605,-4.318,-4.3323,-4.3336,-4.3336,-4.3336,-4.3323,-4.3206,-4.3206,-4.3141,-4.301,-4.2683,-4.2709,-1.9683,-1.9625,-1.9396,-1.9725,-1.9617,-1.9067,-1.8086,-1.786,-1.7516,-1.6294,-1.5789,-1.5903,-1.7071,-1.683,-1.7388,-2.0319,-2.1166,-2.2062,-2.3926,-2.4864,-2.5383,-2.5426,-2.54,-2.5189,-2.4855,-2.4876,-2.5395,-2.6567,-2.8487,-2.9901,-3.0588,-3.1422,-3.2532,-3.3871,-3.4455,-3.491,-3.5355,-3.5407,-3.5418,-3.5418,-3.5418,-3.5418,-3.5418,-3.5418,-3.5418,-3.5418,-3.5418,-3.5418,0.0,-3.5873,-3.6049,-3.609,-3.6556,-3.7022,-3.7436,-3.7477,-3.7788,-3.8181,-3.8181,-3.8181,-3.8181,-3.814,-3.7808,-3.7343,-3.6877,-3.6742,-3.6732,-3.6691,-3.668,-3.668,-3.6732,-3.6742,-3.6753,-3.6794,-3.7063,-3.7198,-3.6825,-3.667,-3.6763,-3.727,-3.6308,-3.5687,-3.6535,-3.6963,-3.7641,-3.8855,-3.946,-4.034,-4.1828,-4.1118,-4.0707,-4.1261,-4.1515,-4.166,-4.175,-4.1724,-4.2009,-4.2853,-4.2944,-4.3193,-4.3768,-4.4291,-4.4511,-4.4511,-4.4511,-4.4317,-4.3794,-4.3794,-4.3533,-4.3036,-4.3493,-4.3467,-1.9242,-1.9089,-1.8862,-1.9639,-1.9074,-1.8291,-1.7904,-1.7362,-1.6689,-1.5804,-1.5323,-1.5272,-1.5796,-1.6248,-1.7107,-1.8812,-2.037,-2.1834,-2.333,-2.4213,-2.4941,-2.5626,-2.5309,-2.5069,-2.5146,-2.5146,-2.5668,-2.6848,-2.8128,-2.929,-3.0391,-3.1879,-3.3062,-3.3941,-3.4749,-3.5242,-3.5418,-3.5418,-3.5418,-3.5418,-3.5418,-3.5418,-3.5418,-3.5418,-3.5418,-3.5438,-3.5718,-3.5832,0.0,-3.6339,-3.6525,-3.6577,-3.7032,-3.7332,-3.7529,-3.7808,-3.8026,-3.8181,-3.8181,-3.8181,-3.8181,-3.8181,-3.8243,-3.8222,-3.7777,-3.7436,-3.7218,-3.7218,-3.7022,-3.6867,-3.7146,-3.7425,-3.7632,-3.7632,-3.756,-3.7446,-3.726,-3.7001,-3.6939,-3.7405,-3.6597,-3.6279,-3.773,-3.8198,-3.8862,-4.0152,-4.0701,-4.1184,-4.1798,-4.1334,-4.1055,-4.1311,-4.1297,-4.1426,-4.1994,-4.1694,-4.2033,-4.3454,-4.3206,-4.3428,-4.4343,-4.4604,-4.4668,-4.4668,-4.4668,-4.4617,-4.4382,-4.4382,-4.4278,-4.4042,-4.3925,-4.3938,-1.8774,-1.8789,-1.873,-1.933,-1.8708,-1.7889,-1.7596,-1.6948,-1.6196,-1.5292,-1.4962,-1.485,-1.5027,-1.585,-1.6879,-1.7938,-1.976,-2.1516,-2.2766,-2.3785,-2.4744,-2.566,-2.5497,-2.5369,-2.5523,-2.5746,-2.6302,-2.733,-2.8006,-2.8965,-3.0347,-3.1759,-3.2773,-3.3461,-3.4153,-3.4528,-3.4528,-3.4797,-3.4984,-3.4984,-3.5242,-3.5418,-3.5428,-3.5562,-3.5625,-3.5656,-3.6121,-3.6318,0.0,-3.6815,-3.7011,-3.7053,-3.7519,-3.7705,-3.7736,-3.8067,-3.8181,-3.8181,-3.8181,-3.8181,-3.8181,-3.8181,-3.8305,-3.844,-3.8398,-3.815,-3.7871,-3.7736,-3.7467,-3.7291,-3.7612,-3.7943,-3.8181,-3.8181,-3.7933,-3.7705,-3.7705,-3.7332,-3.7146,-3.7612,-3.6846,-3.6624,-3.8423,-3.899,-3.9627,-4.0916,-4.1582,-4.1998,-4.2093,-4.168,-4.1492,-4.1595,-4.1439,-4.1578,-4.2254,-4.1954,-4.2241,-4.3546,-4.3402,-4.3637,-4.4447,-4.4643,-4.4668,-4.4668,-4.4668,-4.4668,-4.4668,-4.4668,-4.4668,-4.4668,-4.4317,-4.4343,-1.8218,-1.8782,-1.9191,-1.8877,-1.8547,-1.8043,-1.713,-1.672,-1.6141,-1.4796,-1.4508,-1.4636,-1.5112,-1.5535,-1.6431,-1.8285,-1.9547,-2.0831,-2.2388,-2.3862,-2.4958,-2.5383,-2.6028,-2.6328,-2.591,-2.6619,-2.7372,-2.8126,-2.8545,0.0,-3.0696,-3.0788,-3.1295,-3.2374,-3.2447,-3.2438,-3.2438,-3.3408,-3.3922,-3.3922,-3.4922,-3.5418,-3.5438,-3.5894,-3.6101,-3.6132,-3.6597,-3.6794,0.0,-3.7291,-3.7488,-3.7529,-3.7995,-3.8181,-3.8181,-3.8181,-3.8181,-3.8181,-3.8181,-3.8181,-3.8181,-3.8181,-3.7881,-3.7674,-3.8507,-3.8765,-3.8672,-3.8295,-3.8171,-3.8171,-3.8181,-3.8181,-3.8181,-3.8181,-3.8181,-3.8181,-3.8181,-3.7808,-3.7622,-3.8088,-3.7063,-3.6624,-3.8423,-3.899,-3.9627,-4.0916,-4.1973,-4.2703,-4.2961,-4.2226,-4.184,-4.2173,-4.2211,-4.228,-4.2566,-4.2591,-4.2709,-4.2971,-4.3546,-4.3926,-4.3939,-4.4434,-4.4668,-4.4668,-4.4668,-4.4668,-4.4668,-4.4668,-4.4668,-4.4668,-4.4668,-4.4668,-1.7152,-1.735,-1.7369,-1.7706,-1.7223,-1.6594,-1.6279,-1.5826,-1.5227,-1.4361,-1.4387,-1.4618,-1.4764,-1.5546,-1.677,-1.8717,-1.9727,-2.0908,-2.2689,-2.3794,-2.4658,-2.5292,-2.6268,-2.6842,-2.6722,-2.7398,-2.8049,-2.8554,-2.8931,-2.9318,-2.9757,-2.9757,-3.0593,-3.231,-3.2374,-3.2374,-3.2374,-3.3408,-3.3922,-3.3922,-3.4922,-3.5583,-3.5894,-3.6039,-3.6287,-3.6608,-3.7074,-3.727,-3.7312,-3.7777,-3.7964,-3.7974,-3.8129,-3.8181,-3.8181,-3.8181,-3.8181,-3.8181,-3.8181,-3.8181,-3.814,-3.7819,-3.7829,-3.7902,-3.756,-3.7674,-3.7953,-3.814,-3.8181,-3.8181,-3.8181,-3.8181,-3.8181,-3.8181,-3.8181,-3.8181,-3.8181,-3.8067,-3.8005,-3.815,-3.7322,-3.7308,-3.9612,-3.9533,-3.9919,-4.2093,-4.2509,-4.2607,-4.2716,-4.2654,-4.2637,-4.2756,-4.2565,-4.2411,-4.2345,-4.2645,-4.3088,-4.3572,-4.3768,-4.4042,-4.4434,-4.463,-4.4668,-4.4668,-4.4668,-4.4668,-4.4668,-4.4668,-4.4668,-4.4668,-4.4668,-4.4668,-1.6206,-1.6704,-1.6982,-1.726,-1.6704,-1.606,-1.5943,-1.5463,-1.4896,-1.4313,-1.4514,-1.486,-1.5033,-1.5855,-1.7129,-1.9093,-2.0129,-2.1328,-2.3074,-2.4093,-2.5001,-2.5908,-2.6765,-2.733,-2.7484,-2.8057,-2.8571,-2.8956,-2.9188,-2.9307,-2.9307,-2.9307,-2.9887,-3.1166,-3.123,-3.123,-3.123,-3.2638,-3.3345,-3.3345,-3.4735,-3.5666,-3.6121,-3.6297,-3.6629,-3.7094,-3.755,-3.7757,0.0,-3.8067,-3.8181,-3.8181,-3.8181,-3.8181,-3.8181,-3.8181,-3.8181,-3.8181,-3.8181,-3.8181,-3.814,-3.785,-3.7953,-3.8005,-3.7084,-3.7125,-3.756,-3.7839,-3.8046,-3.8181,-3.8181,-3.8181,-3.8181,-3.8181,-3.8181,-3.814,-3.7964,-3.7922,-3.7871,-3.7695,-3.743,-3.7885,-3.998,-3.9915,-4.0402,-4.2656,-4.2798,-4.2738,-4.3063,-4.3061,-4.3069,-4.3338,-4.3082,-4.28,-4.2539,-4.2814,-4.3127,-4.3374,-4.3911,-4.4251,-4.4395,-4.4617,-4.4668,-4.4668,-4.4668,-4.4668,-4.4668,-4.4668,-4.4668,-4.4668,-4.4668,-4.4938,0.0,-1.6674,-1.7545,-1.722,-1.674,-1.6221,-1.5921,-1.5505,0.0,-1.4636,-1.4979,-1.5455,-1.5786,-1.6536,-1.767,-1.9493,-2.078,-2.2047,-2.3589,-2.4701,-2.5831,-2.6979,-2.7424,-2.7801,-2.8194,-2.8588,-2.8956,-2.929,-2.9307,-2.9307,-2.9307,-2.9307,-2.9307,-2.9307,-2.9307,-2.9307,-2.9307,-3.1359,-3.2374,-3.2438,-3.4465,-3.5676,-3.6173,-3.6608,-3.7074,0.0,-3.7995,-3.8181,-3.8181,-3.8181,-3.8181,-3.8181,-3.8181,-3.8181,-3.8181,-3.8181,-3.8181,-3.8181,-3.8181,-3.8181,-3.8181,-3.815,-3.8088,-3.7881,-3.7053,-3.7125,-3.7488,-3.7457,-3.7777,-3.814,-3.814,-3.814,-3.814,-3.814,-3.8109,-3.7974,-3.7539,-3.7446,-3.7387,-3.7006,-3.7516,-3.8459,-3.9805,-4.0221,-4.093,-4.2718,-4.2768,-4.2916,-4.378,-4.3425,-4.3295,-4.3831,-4.3619,-4.3345,-4.3088,-4.3088,-4.297,-4.2735,-4.3973,-4.4487,-4.3964,-4.4447,-4.4668,-4.4668,-4.4668,-4.4722,-4.483,-4.483,-4.483,-4.483,-4.4884,-4.5449,-1.4355,0.0,-1.5615,-1.579,-1.5717,-1.5562,0.0,-1.5568,-1.5771,-1.5081,-1.6013,-1.6814,-1.6271,-1.7743,-1.939,-2.0463,-2.1799,-2.3143,-2.4376,-2.5275,-2.6225,-2.7347,-2.7818,-2.8212,-2.8605,-2.8974,-2.9222,-2.9307,-2.9307,-2.9307,-2.9307,-2.9307,-2.9307,-2.9307,-2.9307,-2.9307,-2.9307,-3.1359,-3.2374,-3.2438,-3.4465,-3.5852,-3.6649,-3.6753,-3.725,-3.8026,-3.814,-3.8181,-3.8181,-3.8181,-3.8181,-3.8181,-3.8181,-3.8181,-3.8181,-3.8181,-3.8181,-3.8181,-3.8181,-3.8181,-3.8129,-3.7767,-3.7177,-3.6629,-3.6763,-3.7125,-3.7425,-3.7063,-3.7301,-3.7653,-3.7653,-3.7653,-3.7653,-3.7653,-3.7384,-3.7094,-3.6991,-3.697,-3.724,-3.8112,-3.8119,-3.8692,-4.0999,-4.1109,-4.1367,-4.2781,-4.2929,-4.3045,-4.3449,-4.3594,-4.3749,-4.39,-4.3825,-4.3789,-4.3682,-4.4074,-4.4093,-4.3596,-4.4289,-4.467,-4.4539,-4.4657,-4.4668,-4.4668,-4.4668,-4.514,-4.6019,-4.6019,-4.6019,-4.6019,-4.6816,-4.6919,-1.3945,-1.456,-1.517,-1.5345,-1.5498,-1.5564,-1.5389,-1.5919,-1.6316,-1.5927,-1.6998,-1.7931,-1.7696,-1.9168,-2.0754,-2.1573,-2.2912,-2.429,-2.542,-2.6234,-2.6927,-2.7535,-2.8117,-2.8545,0.0,-2.9102,-2.9307,-2.9307,-2.9307,-2.9307,-2.9307,-2.9307,-2.9307,-2.9307,-2.9307,-2.9307,-2.9307,-3.1359,-3.2374,-3.2438,-3.4465,-3.5904,-3.6804,-3.6804,-3.7301,-3.8181,-3.8181,-3.8181,-3.8181,-3.8181,-3.8181,-3.8181,-3.8181,-3.8181,-3.8181,-3.8181,-3.8181,-3.8181,-3.8181,-3.8181,-3.814,-3.7891,-3.7467,-3.7074,-3.7115,-3.7146,-3.7125,-3.6877,-3.698,-3.7177,-3.7177,-3.7177,-3.7177,-3.7177,-3.698,-3.6742,-3.6535,-3.6494,-3.6781,-3.783,-3.8304,-3.92,-4.1114,-4.1558,-4.1922,-4.288,-4.2884,-4.2962,-4.3356,-4.3572,-4.3764,-4.4052,-4.3987,-4.3976,-4.4232,-4.4518,-4.4537,-4.4129,-4.4457,-4.4668,-4.4668,-4.4668,-4.4668,-4.4668,-4.5194,-4.5755,-4.6374,-4.6881,-4.7126,-4.7126,-4.7726,-4.7929,-1.3894,-1.4721,-1.5474,-1.5421,-1.5641,-1.587,-1.6008,-1.648,-1.6921,-1.699,-1.8045,-1.905,-1.9444,-2.0694,-2.1919,-2.2731,-2.4085,-2.5429,-2.6431,-2.7167,-2.7629,-2.7689,-2.834,0.0,-2.8854,-2.9128,-2.9307,-2.9307,-2.9307,-2.9307,-2.9307,-2.9307,-2.9307,-2.9307,-2.9307,-2.9307,-2.9307,-3.1359,-3.2374,-3.2447,-3.4536,-3.5976,-3.6804,-3.6877,-3.7374,-3.8181,0.0,0.0,-3.8181,-3.8181,-3.8181,-3.8181,-3.8181,-3.8181,-3.8181,-3.8181,-3.8181,-3.8181,-3.8181,-3.8181,-3.8181,-3.8181,-3.814,-3.8026,-3.7695,-3.7177,-3.6711,-3.6784,-3.6753,-3.6701,-3.6701,-3.6701,-3.6701,-3.6701,-3.6649,-3.6484,-3.609,-3.6008,-3.6248,-3.7143,-3.8328,-3.9569,-4.0858,-4.1768,-4.2502,-4.2898,-4.2806,-4.2844,-4.3288,-4.3394,-4.3628,-4.4081,-4.3997,-4.4052,-4.4518,-4.4626,-4.4518,-4.4313,-4.4572,-4.4668,-4.4668,-4.4668,-4.4668,-4.4668,-4.5808,-4.6478,-4.6635,-4.7726,-4.8231,-4.8231,-4.8432,-4.8894,-1.3894,-1.4882,-1.5771,-1.5594,-1.5509,-1.5727,-1.6628,-1.7277,-1.7882,-1.8383,-1.9575,-2.0643,-2.1002,-2.2047,-2.31,-2.3853,-2.5241,-2.6405,-2.691,-2.7347,-2.7732,-2.8057,0.0,-2.8896,-2.9196,-2.9273,-2.9307,-2.9307,-2.9307,-2.9307,-2.9307,-2.9307,-2.9307,-2.9307,-2.9307,-2.9307,-2.9307,-3.1359,-3.2374,-3.2447,-3.4858,-3.6287,-3.6815,-3.7208,-3.7684,-3.8181,0.0,-3.8181,-3.8181,-3.8181,-3.8181,-3.8181,-3.8181,-3.8181,-3.8181,-3.8181,-3.8181,-3.8181,-3.8181,-3.8181,-3.8181,-3.8181,-3.7922,-3.7664,-3.7984,-3.7208,-3.6297,-3.6691,-3.6515,-3.6225,-3.6225,-3.6225,-3.6225,-3.6225,-3.5914,-3.5614,-3.5542,-3.5531,-3.5861,-3.7078,-3.8328,-3.9569,-4.0858,-4.2088,-4.2942,-4.2961,-4.2967,-4.2997,-4.3073,-4.324,-4.3449,-4.3504,-4.3764,-4.3955,-4.3997,-4.4203,-4.4367,-4.4313,-4.4572,-4.4668,-4.4668,-4.4668,-4.4668,-4.4668,-4.5808,-4.6829,-4.7777,-4.8844,-4.9366,-4.9366,-5.0268,-5.0316,-1.4196,-1.4926,-1.5856,-1.6846,-1.7412,-1.7871,-1.8497,-1.9342,-2.01,-2.0378,-2.1327,-2.2201,-2.2578,-2.3571,-2.465,-2.5609,-2.6174,-2.6687,-2.7278,-2.7681,-2.8066,0.0,0.0,-2.9128,-2.9299,-2.9307,-2.9307,-2.9307,-2.9307,-2.9307,-2.9307,-2.9307,-2.9307,-2.9307,-2.9307,-2.9307,-2.9307,-3.0788,-3.1552,-3.1552,-3.4362,-3.5848,-3.601,-3.6753,-3.7508,-3.8181,0.0,-3.8181,-3.8181,-3.8181,-3.8181,-3.8181,-3.8181,-3.8181,-3.8181,-3.8181,-3.8181,-3.8181,-3.8181,-3.8181,-3.8181,-3.8181,-3.8036,-3.7912,-3.8119,-3.7384,-3.6535,-3.6742,-3.6287,-3.5738,-3.5738,-3.5738,-3.5738,-3.5738,-3.5583,-3.5418,-3.5418,-3.5418,-3.5951,-3.797,-3.8803,-3.9803,-4.1797,-4.2625,-4.2974,-4.2974,-4.2974,-4.2974,-4.2974,-4.3141,-4.324,-4.3394,-4.3517,-4.3708,-4.3899,-4.3997,-4.4203,-4.4518,-4.4626,-4.4668,-4.4668,-4.4668,-4.4668,-4.4668,-4.6413,-4.7522,-4.803,-4.9645,-5.046,-5.0475,-5.0964,-5.0917,-1.4494,-1.527,-1.6424,-1.82,-1.8942,-1.9473,-2.0318,-2.1186,-2.1943,-2.2231,-2.2948,-2.3665,-2.4136,-2.5069,-2.6028,-2.6807,-2.6833,-2.6944,-2.7518,-2.8023,-2.8443,-2.8742,-2.9093,-2.9307,-2.9307,-2.9307,-2.9307,-2.9307,-2.9307,-2.9307,-2.9307,-2.9307,-2.9307,-2.9307,-2.9307,-2.9307,-2.9307,-3.0278,-3.0788,-3.0852,-3.3911,-3.5281,-3.5191,-3.6507,-3.7457,-3.8026,-3.814,-3.8181,-3.8181,-3.8181,-3.8181,-3.8181,-3.8181,-3.8181,-3.8181,-3.8181,-3.8119,-3.8026,-3.8026,-3.7953,-3.786,-3.786,-3.786,-3.786,-3.786,-3.7291,-3.6639,-3.6639,-3.6049,-3.5418,-3.5418,-3.5418,-3.5418,-3.5418,-3.5418,-3.5418,-3.5418,-3.5654,-3.6431,-3.8387,-3.9216,-4.028,-4.2219,-4.2806,-4.2974,-4.2974,-4.2974,-4.2974,-4.2974,-4.2974,-4.3085,-4.3295,-4.3283,-4.3419,-4.3776,-4.3776,-4.3984,-4.4463,-4.4572,-4.4626,-4.4668,-4.4668,-4.483,-4.5087,-4.7009,-4.8131,-4.8382,-5.0268,-5.1214,-5.1214,-5.1214,-5.1214,-1.4783,-1.6199,-1.79,-1.9107,-1.8636,-1.859,-2.1454,-2.1991,-2.226,-2.3577,-2.428,-2.4915,-2.5586,-2.6422,-2.6859,-2.6576,-2.709,-2.7544,-2.7595,0.0,-2.8751,-2.8777,-2.9093,-2.9307,-2.9307,-2.9307,-2.9307,-2.9307,-2.9307,-2.9307,-2.9307,-2.9307,-2.9307,-2.9307,-2.9307,-2.9307,-2.9307,-3.0278,-3.0788,-3.0861,-3.3876,-3.5072,-3.4729,-3.7028,-3.7891,-3.757,-3.7995,-3.8181,-3.8181,-3.8181,-3.8181,-3.8181,-3.8181,-3.8181,-3.8181,-3.8181,-3.7912,-3.7539,-3.7539,-3.726,-3.6908,-3.6908,-3.6908,-3.6908,-3.6908,-3.6556,-3.6163,-3.6163,-3.5801,-3.5418,-3.5418,-3.5418,-3.5418,-3.5418,-3.5418,-3.5418,-3.5418,-3.6308,-3.7237,-3.7418,-3.9381,-4.1043,-4.1215,-4.2219,-4.2974,-4.2974,-4.2974,-4.2974,-4.2974,-4.2974,-4.303,-4.303,-4.303,-4.3129,-4.3394,-4.3449,-4.3585,-4.3955,-4.4216,-4.4409,-4.4668,-4.4668,-4.5194,-4.6269,-4.742,-4.8482,-4.9464,-5.0618,-5.1214,-5.1214,-5.1214,-5.1214,-1.5635,-1.707,-1.8778,-2.0593,-2.0977,-2.1355,-2.3087,-2.3798,-2.431,-2.5051,-2.5335,-2.5677,-2.6182,-2.6713,-2.7098,-2.7167,-2.7424,-2.7775,-2.8263,-2.8597,-2.8862,-2.9085,-2.923,-2.9307,-2.9307,-2.9307,-2.9307,-2.9307,-2.9307,-2.9307,-2.9307,-2.9307,-2.9307,-2.9307,-2.9307,-2.9307,-2.9307,-2.97,-2.9887,-2.9896,-3.2571,-3.4016,-3.4448,-3.6017,-3.7126,-3.7933,-3.8109,-3.8181,-3.8181,-3.8181,-3.8181,-3.8181,-3.8181,-3.8005,-3.7757,-3.7757,-3.7467,-3.7063,-3.7063,-3.6949,-3.6804,-3.6804,-3.6804,-3.6804,-3.6804,-3.6473,-3.6111,-3.6111,-3.578,-3.5418,-3.5418,-3.5418,-3.5418,-3.5418,-3.5418,-3.5418,-3.5418,-3.642,-3.7539,-3.8328,-3.9919,-4.1329,-4.215,-4.2681,-4.2974,-4.2974,-4.2974,-4.2974,-4.2974,-4.2974,-4.2974,-4.2974,-4.2974,-4.303,-4.3129,-4.3129,-4.3308,-4.3585,-4.3874,-4.4107,-4.4216,-4.4858,-4.5422,-4.5834,-4.7573,-4.8795,-4.9366,-5.0412,-5.0964,-5.0964,-5.0964,-5.0885,-1.6594,-1.8117,-1.9873,-2.1811,-2.2773,-2.3503,-2.4493,-2.5172,-2.5694,-2.6191,-2.6302,-2.6371,-2.6628,-2.6893,-2.7193,0.0,-2.7706,-2.8023,-2.8682,-2.8879,-2.9033,-2.9282,-2.9307,-2.9307,-2.9307,-2.9307,-2.9307,-2.9307,-2.9307,-2.9307,-2.9307,-2.9307,-2.9307,-2.9307,-2.9307,-2.9307,-2.9307,-2.9307,-2.9499,-3.0005,-3.1631,-3.2899,-3.3719,-3.5193,-3.6481,-3.756,-3.7995,-3.8109,-3.7974,-3.8119,-3.8181,-3.8171,-3.8026,-3.7767,-3.7477,-3.7332,-3.698,-3.6587,-3.6587,-3.6494,-3.637,-3.637,-3.637,-3.637,-3.637,-3.6142,-3.5894,-3.5894,-3.5666,-3.5418,-3.5418,-3.5418,-3.5418,-3.5418,-3.5418,-3.5541,-3.589,-3.7017,-3.8257,-3.9569,-4.0801,-4.198,-4.2862,-4.2974,-4.2974,-4.2974,-4.2974,-4.2974,-4.2974,-4.2974,-4.2974,-4.2974,-4.2974,-4.2974,-4.2974,-4.3351,-4.3615,-4.3823,-4.4315,-4.4559,-4.4396,-4.5101,-4.5807,-4.6528,-4.803,-4.9057,-4.9591,-5.0346,-5.0695,-5.0695,-5.0695,-5.0614,-1.7623,-1.9382,-2.1282,-2.2597,-2.3494,-2.4328,-2.5598,-2.5893,-2.6098,-2.6919,-2.7073,-2.7073,-2.7073,-2.7081,-2.7193,-2.7552,-2.7938,-2.834,-2.8734,-2.9085,-2.9307,-2.9307,-2.9307,-2.9307,-2.9307,-2.9307,-2.9316,-2.9307,-2.9307,-2.9307,-2.9307,-2.9307,-2.9307,-2.9307,-2.9307,-2.9307,-2.9307,-2.9307,-3.0014,-3.1364,-3.1429,-3.1744,-3.2495,-3.4933,-3.6042,-3.6194,-3.7581,-3.7912,-3.7529,-3.7984,-3.8171,-3.8129,-3.7664,-3.7488,-3.7425,-3.697,-3.6504,-3.6101,-3.6101,-3.5801,-3.5418,-3.5418,-3.5418,-3.5418,-3.5418,-3.5418,-3.5418,-3.5418,-3.5418,-3.5418,-3.5418,-3.5418,-3.5418,-3.5418,-3.5418,-3.5767,-3.7006,-3.8317,-3.9569,-4.0858,-4.215,-4.2974,-4.2974,-4.2974,-4.2974,-4.2974,-4.2974,-4.2974,-4.2974,-4.2974,-4.2974,-4.2974,-4.2974,-4.2974,-4.3042,-4.4042,-4.4683,-4.4737,-4.5714,-4.6071,-4.5555,-4.5502,-4.6528,-4.8745,-4.8795,-4.9381,-5.0501,-5.0501,-5.0501,-5.0501,-5.0501,-5.0501,-1.7509,-1.9239,-2.1198,-2.2983,0.0,-2.536,-2.65,-2.6525,-2.6465,-2.697,-2.7073,-2.6952,-2.651,-2.6964,0.0,-2.7311,-2.8023,-2.8734,-2.9102,-2.9248,-2.9307,-2.9307,-2.9307,-2.9111,-2.8659,-2.8593,-2.8395,-2.7865,-2.7791,-2.8064,-2.8593,-2.8593,-2.8782,-2.9316,-2.9307,-2.9307,-2.9307,-3.0018,-3.047,-3.0651,-3.1413,-3.2681,-3.4381,-3.51,-3.5866,-3.6639,-3.7384,-3.7436,-3.7022,-3.7156,-3.7218,-3.7198,-3.7063,-3.6815,-3.6504,-3.637,-3.6028,-3.5625,-3.5625,-3.5531,-3.5418,-3.5418,-3.5418,-3.5418,-3.5418,-3.5418,-3.5418,-3.5418,-3.5418,-3.5418,-3.5418,-3.6063,-3.6542,-3.5592,-3.6063,-3.6835,-3.7237,-3.9028,-4.0628,-4.1043,-4.215,-4.2974,-4.2974,-4.2974,-4.2974,-4.2974,-4.2974,-4.2974,-4.2974,-4.2974,-4.2974,-4.2974,-4.2974,-4.3295,-4.4152,-4.452,-4.5047,-4.5754,-4.6123,-4.6228,-4.6071,-4.6816,-4.755,-4.8209,-4.9036,-4.9717,-5.0246,-5.0246,-5.0246,-5.0246,-5.0246,-5.0135,-1.8346,-2.0019,0.0,-2.3874,-2.4972,-2.5698,-2.6495,-2.6704,-2.6722,-2.671,-2.67,-2.6621,-2.6326,-2.6781,0.0,-2.7352,-2.8157,-2.8905,-2.9265,-2.9307,-2.9307,-2.9307,-2.9045,-2.8725,-2.8329,-2.7998,-2.7666,-2.72,-2.72,-2.74,-2.7865,-2.7865,-2.8064,-2.8452,-2.8452,-2.8452,-2.8452,-2.9617,-3.0325,-3.052,-3.1754,-3.3171,-3.4897,-3.4819,-3.5324,-3.6277,-3.6742,-3.6887,-3.6804,-3.6804,-3.6804,-3.6784,-3.6597,-3.6359,-3.609,-3.5904,-3.5656,-3.5418,-3.5418,-3.5418,-3.5418,-3.5418,-3.5418,-3.5418,-3.5418,-3.5418,-3.5418,-3.5418,-3.5767,-3.6125,-3.6125,-3.7078,-3.7719,-3.6481,-3.7138,-3.8197,-3.8721,-4.0024,-4.1272,-4.1741,-4.2444,-4.2974,-4.2974,-4.2974,-4.2974,-4.2974,-4.2974,-4.2974,-4.2974,-4.2974,-4.2974,-4.2974,-4.2974,-4.3462,-4.4629,-4.5088,-4.582,-4.6919,-4.7383,-4.7638,-4.7638,-4.7855,-4.8223,-4.8688,-4.936,-4.9781,-4.9926,-4.9926,-4.9926,-4.9926,-4.9926,-4.9829,-1.9625,-2.1124,-2.2791,-2.4872,-2.5485,-2.5633,-2.5956,-2.6449,-2.6761,-2.6197,0.0,-2.6121,-2.643,-2.652,-2.6766,-2.7392,-2.8204,-2.8875,-2.9199,-2.9185,-2.9185,-2.9185,-2.8593,-2.8196,-2.813,-2.7467,-2.7067,-2.7,-2.7,-2.7067,-2.7067,-2.7067,-2.7134,-2.72,-2.72,-2.72,-2.72,-2.8691,-2.9852,-3.0752,-3.2256,-3.3481,-3.4371,-3.4211,-3.4582,-3.5438,-3.5821,-3.6255,-3.6732,-3.6701,-3.668,-3.6639,-3.6215,-3.6049,-3.5997,-3.5583,-3.5418,-3.5418,-3.5418,-3.5418,-3.5418,-3.5418,-3.5418,-3.5418,-3.5418,-3.5418,-3.5418,-3.5541,-3.642,-3.7298,-3.7418,-3.8436,-3.9098,-3.7899,-3.8554,-3.9686,-4.0858,-4.1215,-4.1627,-4.2806,-4.2974,-4.2974,-4.2974,-4.2974,-4.2974,-4.2974,-4.2974,-4.2974,-4.2974,-4.2974,-4.2974,-4.2974,-4.3085,-4.3615,-4.4724,-4.5807,-4.6957,-4.8072,-4.9114,-4.9717,-4.9717,-4.8688,-4.8639,-4.9669,-4.9717,-4.9717,-4.9717,-4.9717,-4.9717,-4.9717,-4.9717,-4.9717,-1.8474,-2.0043,0.0,-2.3636,-2.5067,-2.5864,-2.5392,-2.5418,-2.5656,-2.6014,-2.5647,-2.54,-2.5752,-2.604,-2.6152,-2.6059,-2.7359,-2.8443,-2.8518,-2.8527,-2.8527,-2.8527,-2.7865,-2.72,-2.6643,-2.6442,-2.6115,-2.5592,-2.5524,-2.5786,-2.6316,-2.6308,-2.6584,-2.72,-2.72,-2.72,-2.72,-2.9395,-3.0428,-3.0437,-3.2638,-3.3796,-3.3985,-3.421,-3.4768,-3.5568,-3.5239,-3.5581,-3.6235,-3.5863,-3.5718,-3.5707,-3.5614,-3.5573,-3.5562,-3.5459,-3.5418,-3.5418,-3.5418,-3.5418,-3.5418,-3.5418,-3.5418,-3.5418,-3.5418,-3.5418,-3.5603,-3.6592,-3.7067,-3.7539,-3.8506,-3.9744,-4.0628,-4.0326,-4.05,-4.0755,-4.1031,-4.1866,-4.2681,-4.2974,-4.2974,-4.2974,-4.2974,-4.2974,-4.2974,-4.2974,-4.2974,-4.2974,-4.2974,-4.2974,-4.2974,-4.2974,-4.378,-4.4778,-4.586,-4.6971,-4.8122,-4.9262,-4.9571,-4.9717,-4.9717,-4.9473,-4.9473,-4.9717,-4.9717,-4.9717,-4.9717,-4.9717,-4.9717,-4.9717,-4.9717,-4.9717,-1.8657,0.0,0.0,-2.3399,0.0,-2.5818,-2.482,-2.461,-2.4726,-2.5095,-2.4849,-2.4766,-2.528,-2.5506,-2.5722,-2.5822,-2.6933,-2.7799,-2.7799,-2.7799,-2.7799,-2.7799,-2.7126,-2.6517,-2.6107,-2.5779,-2.545,-2.5127,-2.5127,-2.5255,-2.5584,-2.5644,-2.5786,-2.6197,-2.6197,-2.6525,-2.7177,-2.906,-3.029,-3.0816,-3.2756,-3.367,-3.367,-3.4173,-3.4616,-3.5017,-3.4774,-3.4992,-3.5509,-3.5273,-3.5242,-3.5418,-3.5418,-3.5418,-3.5418,-3.5418,-3.5418,-3.5418,-3.5418,-3.5418,-3.5418,-3.5418,-3.5418,-3.5541,-3.6125,-3.6298,-3.6603,-3.7839,-3.8673,-3.9252,-3.9919,-4.1031,-4.2037,-4.2037,-4.2037,-4.2037,-4.2037,-4.2513,-4.2974,-4.2974,-4.2974,-4.2974,-4.2974,-4.2974,-4.2974,-4.2974,-4.2974,-4.2974,-4.2974,-4.2974,-4.3184,-4.378,-4.4357,-4.5355,-4.6971,-4.7652,-4.8489,-4.962,-4.9717,-4.9538,-4.9233,-4.9509,-4.9717,-4.9717,-4.9717,-4.9717,-4.9717,-4.9717,-4.9717,-4.9717,-4.9717,-4.9717,-1.9008,0.0,-2.1435,-2.3551,-2.4881,0.0,-2.4384,-2.4029,-2.3922,-2.3922,-2.3922,-2.4174,-2.486,-2.5012,-2.5176,-2.5724,-2.6478,-2.7,-2.7,-2.7,-2.7,-2.7,-2.6383,-2.5906,-2.5906,-2.545,-2.5127,-2.5127,-2.5127,-2.5127,-2.5127,-2.5127,-2.5127,-2.5127,-2.5127,-2.5712,-2.7086,-2.8534,-2.99,-3.1313,-3.2702,-3.3418,-3.3418,-3.3985,-3.4235,-3.4298,-3.4298,-3.4485,-3.4797,-3.4859,-3.5046,-3.5294,-3.5356,-3.5418,-3.5418,-3.5418,-3.5418,-3.5418,-3.5418,-3.5418,-3.5418,-3.5418,-3.5541,-3.5951,-3.7006,-3.7478,-3.7899,-3.9157,-4.028,-4.1157,-4.1386,-4.2206,-4.2974,-4.2974,-4.2974,-4.2974,-4.2974,-4.2974,-4.2974,-4.2974,-4.2974,-4.2974,-4.2974,-4.2974,-4.2974,-4.2974,-4.2974,-4.2974,-4.2974,-4.2974,-4.3462,-4.4574,-4.4886,-4.5781,-4.7819,-4.8173,-4.8688,-4.962,-4.9567,-4.9277,-4.8692,-4.9132,-4.9349,-4.9349,-4.9616,-4.9717,-4.9717,-4.9717,-4.9717,-4.9717,-4.9717,-4.9717,-1.7852,0.0,-2.2348,0.0,-2.4021,-2.4015,0.0,0.0,-2.3238,0.0,-2.3238,-2.3536,-2.4485,-2.4468,-2.4399,-2.4768,-2.5591,-2.6241,-2.6241,-2.6241,-2.6241,-2.6241,-2.5652,-2.5255,-2.5255,-2.5119,-2.5127,-2.5127,-2.5127,-2.5127,-2.5127,-2.5127,-2.5127,-2.5127,-2.5127,-2.5712,-2.7086,-2.8534,-2.99,-3.1313,-3.2702,-3.3418,-3.3418,-3.3481,-3.367,-3.3985,-3.3985,-3.4173,-3.4485,-3.4797,-3.4922,-3.4984,-3.5294,-3.5418,-3.5418,-3.5418,-3.5418,-3.5418,-3.5418,-3.5418,-3.5418,-3.5418,-3.6125,-3.7067,-3.7237,-3.8078,-3.9216,-4.0512,-4.0985,-4.1329,-4.2444,-4.2862,-4.2974,-4.2974,-4.2974,-4.2974,-4.2974,-4.2974,-4.2974,-4.2974,-4.2974,-4.2974,-4.2974,-4.2974,-4.2974,-4.2974,-4.2974,-4.2974,-4.2974,-4.2974,-4.3462,-4.4574,-4.5555,-4.6594,-4.7869,-4.8902,-4.9522,-4.9669,-4.9146,-4.8812,-4.8677,-4.8275,-4.8029,-4.8029,-4.9117,-4.9717,-4.9717,-4.9717,-4.9717,-4.9717,-4.9717,-4.9717,-1.8167,-2.0106,-2.1891,0.0,-2.3403,-2.3608,-2.3747,-2.3543,-2.3325,-2.3142,-2.3106,-2.3271,-2.3918,-2.3905,-2.3976,-2.4488,-2.4945,-2.5308,-2.5487,-2.5517,-2.5517,-2.5517,-2.5255,-2.5127,-2.5127,-2.5127,-2.5127,-2.5127,-2.5127,-2.5127,-2.5127,-2.5127,-2.5127,-2.5127,-2.5127,-2.6107,-2.8271,-2.8854,-3.029,-3.2502,-3.3092,-3.3418,-3.3418,-3.3418,-3.3481,-3.3607,-3.3607,-3.3796,-3.411,-3.4298,-3.4423,-3.461,-3.4797,-3.4859,-3.4859,-3.5046,-3.5108,-3.517,-3.5356,-3.5294,-3.5284,-3.6175,-3.6703,-3.7347,-3.8957,-3.9791,-4.0512,-4.1797,-4.215,-4.2275,-4.2862,-4.2974,-4.2974,-4.2974,-4.2974,-4.2974,-4.2974,-4.2974,-4.2974,-4.2974,-4.2974,-4.2974,-4.2974,-4.2974,-4.2974,-4.2974,-4.2974,-4.2974,-4.2974,-4.3572,-4.4344,-4.5502,-4.6594,-4.7689,-4.8852,-4.941,-4.9524,-4.9161,-4.8885,-4.8358,-4.7648,-4.7738,-4.7608,-4.7259,-4.8493,-4.9146,-4.9146,-4.9494,-4.9717,-4.9717,-4.9717,-4.9717,0.0,0.0,-2.0867,-2.1986,-2.2689,-2.3157,0.0,0.0,-2.3427,0.0,-2.3164,-2.3186,-2.3427,-2.3537,-2.3757,-2.424,-2.4459,-2.4723,-2.4965,-2.5075,-2.5127,-2.5127,-2.5127,-2.5127,-2.5127,-2.5127,-2.5127,-2.5127,-2.5127,-2.5127,-2.5127,-2.5127,-2.5255,-2.5584,-2.5255,-2.6568,-2.9705,-3.0095,-3.1332,-3.3418,-3.3418,-3.3418,-3.3418,-3.3418,-3.3418,-3.3418,-3.3418,-3.3544,-3.3796,-3.3859,-3.4047,-3.4298,-3.436,-3.4423,-3.4423,-3.4673,-3.4797,-3.4797,-3.5046,-3.5232,-3.5469,-3.6653,-3.7358,-3.8067,-4.0326,-4.1215,-4.1684,-4.2681,-4.2974,-4.2974,-4.2974,-4.2974,-4.2974,-4.2974,-4.2974,-4.2974,-4.2974,-4.2974,-4.2974,-4.2974,-4.2974,-4.2974,-4.2974,-4.2974,-4.2974,-4.2974,-4.2974,-4.3085,-4.3406,-4.4193,-4.5195,-4.6594,-4.7499,-4.8438,-4.962,-4.9524,-4.9233,-4.8706,-4.8373,-4.7778,-4.6821,-4.7129,-4.7071,-4.6606,-4.784,-4.8566,-4.8677,-4.9204,-4.9524,-4.9717,-4.9717,-4.9717,0.0,-1.7925,0.0,-2.0889,-2.154,-2.2191,0.0,0.0,-2.3215,-2.3508,-2.3325,-2.3113,-2.3128,-2.3391,-2.361,-2.364,-2.4166,-2.4643,-2.4591,-2.4929,-2.5127,-2.5127,-2.5127,-2.5127,-2.5127,-2.5127,-2.5127,-2.5127,-2.5127,-2.5127,-2.5127,-2.5127,-2.5712,-2.6953,-2.5779,-2.7086,-3.112,-3.2502,-3.3292,-3.3418,-3.3418,-3.3418,-3.3418,-3.3418,-3.3418,-3.3418,-3.3418,-3.3418,-3.3418,-3.3796,-3.3922,-3.3985,-3.4298,-3.4423,-3.4423,-3.4423,-3.4423,-3.4423,-3.4423,-3.5273,-3.6319,-3.6431,-3.81,-4.0106,-4.0524,-4.1468,-4.2525,-4.2862,-4.2974,-4.2974,-4.2974,-4.2974,-4.2974,-4.2974,-4.2974,-4.2974,-4.2974,-4.2974,-4.2974,-4.2974,-4.2974,-4.2974,-4.2974,-4.2974,-4.2974,-4.2974,-4.2974,-4.3406,-4.4466,-4.467,-4.5515,-4.7652,-4.7971,-4.8438,-4.962,-4.9117,-4.8769,-4.8677,-4.7546,-4.685,-4.6778,-4.6287,-4.5967,-4.5938,-4.7187,-4.813,-4.8677,-4.8769,-4.9088,-4.9717,-4.9717,-4.9717,0.0,0.0,0.0,-1.9828,-2.0676,-2.1328,-2.2323,-2.3003,-2.3398,-2.3303,-2.3354,-2.3354,-2.3149,-2.3208,-2.3354,-2.3567,-2.3793,-2.402,-2.4232,-2.454,-2.4811,-2.4811,-2.4995,-2.5127,-2.5127,-2.5127,-2.5127,-2.5127,-2.5127,-2.5127,-2.5127,-2.5127,-2.5712,-2.7086,-2.6627,-2.7998,-3.1249,-3.2702,-3.3418,-3.3418,-3.3418,-3.3418,-3.3418,-3.3418,-3.3418,-3.3418,-3.3418,-3.3418,-3.3418,-3.3544,-3.3607,-3.3607,-3.3733,-3.3733,-3.3796,-3.3985,-3.411,-3.411,-3.436,-3.5149,-3.6237,-3.7248,-3.8614,-4.0106,-4.1194,-4.1903,-4.2312,-4.2581,-4.2694,-4.275,-4.2918,-4.2974,-4.2974,-4.2974,-4.2974,-4.2974,-4.2974,-4.2974,-4.2974,-4.2974,-4.2974,-4.2974,-4.2974,-4.2974,-4.2974,-4.2974,-4.3615,-4.4248,-4.4629,-4.5939,-4.7139,-4.792,-4.8639,-4.9089,-4.9054,-4.8856,-4.8329,-4.7517,-4.7039,-4.665,-4.6243,-4.5996,-4.6069,-4.649,-4.694,-4.7491,-4.8116,-4.8943,-4.9451,-4.9717,-4.9717,-4.9717,-1.5979,0.0,0.0,0.0,-1.9762,-2.0633,-2.1496,-2.2513,-2.3237,-2.3128,-2.3281,-2.3362,-2.3149,-2.3106,-2.3179,-2.3398,-2.3523,-2.3676,-2.3888,-2.4203,-2.4408,-2.4408,-2.4598,-2.4841,-2.4951,-2.4958,-2.5009,0.0,0.0,0.0,-2.5127,-2.5127,-2.5712,-2.7086,-2.8452,-2.9891,-3.1313,-3.2702,-3.3418,-3.3418,-3.3418,-3.3418,-3.3418,-3.3418,-3.3418,-3.3418,-3.3418,-3.3418,-3.3418,-3.3418,-3.3418,-3.3418,-3.3418,-3.3418,-3.3418,-3.367,-3.3733,-3.3733,-3.3985,-3.5077,-3.6531,-3.7599,-3.898,-4.042,-4.1561,-4.1915,-4.1972,-4.23,-4.2413,-4.2525,-4.275,-4.2918,-4.2974,-4.2974,-4.2974,-4.2974,-4.2862,-4.2918,-4.2974,-4.2974,-4.2974,-4.3141,-4.3504,-4.324,-4.324,-4.3974,-4.4466,-4.4993,-4.5728,-4.7088,-4.8122,-4.8539,-4.9075,-4.919,-4.8769,-4.8286,-4.7677,-4.6836,-4.6635,-4.633,-4.5909,-4.588,-4.6084,-4.6505,-4.6925,-4.7346,-4.7782,-4.8841,-4.9465,-4.9717,-4.9717,-4.9717,0.0,0.0,0.0,0.0,0.0,0.0,-2.1328,0.0,-2.2696,-2.3003,-2.3098,-2.312,-2.3098,-2.3098,-2.3106,-2.3106,-2.3376,-2.3581,-2.3581,-2.3866,-2.4064,-2.4064,-2.4079,-2.421,-2.4525,0.0,0.0,0.0,-2.5097,-2.5097,-2.5097,-2.5158,-2.5816,-2.7121,-3.1166,-3.2727,-3.1341,-3.2664,-3.3389,-3.3389,-3.3389,-3.3389,-3.3389,-3.3389,-3.3389,-3.3389,-3.3389,-3.3389,-3.3389,-3.3398,-3.3408,-3.3408,-3.3408,-3.3408,-3.3418,-3.3418,-3.3418,-3.3428,-3.3418,-3.5119,-3.7309,-3.7358,-3.9121,-4.1242,-4.1492,-4.1606,-4.1663,-4.1984,-4.2256,-4.2469,-4.2525,-4.275,-4.2974,-4.2974,-4.2974,-4.2862,-4.2581,-4.275,-4.2974,-4.2974,-4.2974,-4.3351,-4.4466,-4.378,-4.3768,-4.5965,-4.5449,-4.5569,-4.7703,-4.8007,-4.846,-4.9542,-4.9074,-4.8696,-4.8667,-4.7488,-4.6778,-4.6749,-4.6229,-4.588,-4.588,-4.588,-4.5895,-4.5924,-4.7143,-4.7796,-4.7811,-4.8435,-4.9074,-4.9717,-4.9717,-4.9717,-1.5192,0.0,0.0,0.0,0.0,0.0,0.0,0.0,-2.2264,-2.2118,-2.282,-2.3318,-2.2842,-2.2952,-2.3106,-2.3106,-2.3186,-2.3245,-2.3245,-2.3523,-2.3727,-2.3727,-2.394,0.0,0.0,0.0,0.0,0.0,-2.4349,-2.4349,-2.4349,-2.6212,-2.7421,-2.7805,-3.0916,-3.2325,-3.1936,-3.2325,-3.2519,-3.2519,-3.2519,-3.2519,-3.2519,-3.2519,-3.2519,-3.2519,-3.2519,-3.2519,-3.2539,-3.2842,-3.2969,-3.2969,-3.2969,-3.3154,-3.3418,-3.3418,-3.3418,-3.3544,-3.4518,-3.5909,-3.7418,-3.8376,-3.9838,-4.1184,-4.1287,-4.1287,-4.1344,-4.1675,-4.1972,-4.2312,-4.275,-4.275,-4.2638,-4.2638,-4.2481,-4.2324,-4.2211,-4.2268,-4.2324,-4.2324,-4.2538,-4.3004,-4.4126,-4.4071,-4.444,-4.6071,-4.6764,-4.7294,-4.792,-4.8304,-4.8634,-4.8938,-4.842,-4.7854,-4.7343,-4.6981,-4.6635,-4.6185,-4.5982,-4.588,-4.588,-4.588,-4.6113,-4.6563,-4.7361,-4.7999,-4.8464,-4.9103,-4.9494,-4.9717,-4.9717,-4.9717,0.0,0.0,0.0,0.0,0.0,0.0,0.0,0.0,0.0,0.0,-2.2396,-2.2886,-2.2506,-2.2696,-2.2908,-2.2908,-2.3018,-2.3106,-2.3106,-2.3274,-2.3391,-2.3391,0.0,0.0,0.0,-2.3881,-2.394,-2.4071,-2.4086,-2.4338,-2.4842,-2.7432,-2.895,-2.895,-3.1091,-3.2229,-3.2229,-3.2229,-3.2229,-3.2229,-3.2229,-3.2229,-3.2229,-3.2229,-3.2229,-3.2229,-3.2229,-3.207,-3.1914,-3.2158,-3.2363,-3.2529,-3.2529,-3.2685,-3.29,-3.29,-3.3191,-3.3727,-3.4503,-3.5932,-3.7605,-3.8317,-3.945,-4.0523,-4.0523,-4.0679,-4.0905,-4.1063,-4.1448,-4.2029,-4.2481,-4.2481,-4.2312,-4.2312,-4.2211,-4.2041,-4.1915,-4.1984,-4.2268,-4.275,-4.2961,-4.3534,-4.5182,-4.5074,-4.5329,-4.7139,-4.7443,-4.7642,-4.8056,-4.8215,-4.8333,-4.8333,-4.7767,-4.723,-4.6821,-4.6592,-4.6272,-4.5909,-4.588,-4.588,-4.588,-4.588,-4.6069,-4.6432,-4.7071,-4.7825,-4.8677,-4.9364,-4.9717,-4.9717,-4.9717,-4.9717,0.0,0.0,0.0,0.0,-1.6791,0.0,0.0,0.0,0.0,0.0,-2.1635,-2.1906,-2.1869,-2.2132,-2.2381,-2.2454,-2.271,-2.2945,-2.3091,-2.3106,-2.3106,0.0,0.0,0.0,-2.3515,-2.3545,-2.3662,-2.3954,-2.4098,-2.4736,-2.5873,-2.8497,-2.9941,-2.9941,-3.1325,-3.2031,-3.2031,-3.2031,-3.2031,-3.2031,-3.2031,-3.2031,-3.2031,-3.2031,-3.2031,-3.2031,-3.2031,-3.1807,-3.1445,-3.1445,-3.1709,-3.21,-3.21,-3.224,-3.2401,-3.2401,-3.3095,-3.4129,-3.4247,-3.582,-3.769,-3.7872,-3.8683,-3.9609,-3.9609,-3.9934,-4.0306,-4.0363,-4.0846,-4.1505,-4.1931,-4.1955,-4.1968,-4.2029,-4.2004,-4.1842,-4.1521,-4.1655,-4.2183,-4.3466,-4.372,-4.4481,-4.6682,-4.6199,-4.6225,-4.8382,-4.7574,-4.7109,-4.8066,-4.7868,-4.768,-4.768,-4.71,-4.6676,-4.6676,-4.6214,-4.588,-4.588,-4.588,-4.588,-4.588,-4.588,-4.588,-4.588,-4.6577,-4.7564,-4.8827,-4.9407,-4.9717,-4.9717,-4.9717,-4.9717,0.0,0.0,0.0,0.0,0.0,0.0,0.0,-1.8218,-1.8811,0.0,-1.9645,-2.0211,-1.9947,-2.0311,-2.0818,-2.1401,-2.154,-2.1935,-2.2967,-2.3106,0.0,0.0,0.0,0.0,-2.3201,-2.3201,-2.323,-2.3296,-2.4291,-2.503,-2.527,-2.7704,-2.9159,-2.9159,-3.0455,-3.1143,-3.1143,-3.1143,-3.1143,-3.1143,-3.1143,-3.1143,-3.1143,-3.1143,-3.1143,-3.1143,-3.1143,-3.1094,-3.1016,-3.1016,-3.126,-3.1641,-3.1641,-3.2426,-3.3544,-3.3544,-3.4296,-3.5518,-3.6582,-3.7281,-3.7872,-3.8907,-3.9376,-3.9609,-3.9609,-3.9681,-3.9809,-4.0006,-4.0189,-4.0482,-4.128,-4.1267,-4.1184,-4.1623,-4.1177,-4.0717,-4.066,-4.0322,-4.0661,-4.2691,-4.329,-4.4038,-4.5747,-4.5871,-4.6128,-4.7273,-4.7184,-4.7147,-4.7515,-4.7092,-4.681,-4.6966,-4.6446,-4.6069,-4.6069,-4.5953,-4.588,-4.588,-4.588,-4.588,-4.588,-4.588,-4.588,-4.588,-4.7013,-4.8217,-4.9494,-4.9611,-4.9717,-4.9717,-4.9717,-4.9717,0.0,0.0,0.0,-1.5593,0.0,0.0,0.0,0.0,-1.7911,-1.8233,-1.8818,-1.9228,-1.9067,-1.9433,-1.9916,-2.0406,-2.0757,-2.1189,-2.1832,-2.2462,0.0,0.0,0.0,0.0,-2.2879,-2.301,-2.3106,-2.3106,-2.4332,-2.5378,-2.5981,-2.7838,-2.9226,-2.9903,-3.0518,-3.0889,-3.0889,-3.0889,-3.0889,-3.0889,-3.0889,-3.0889,-3.0889,-3.0889,-3.0889,-3.0889,-3.0889,-3.0889,-3.0889,-3.0889,-3.1016,-3.1201,-3.1201,-3.2074,-3.3289,-3.3289,-3.4425,-3.6072,-3.6711,-3.7333,-3.7939,-3.8562,-3.8791,-3.8791,-3.8791,-3.8996,-3.926,-3.9678,-3.9806,-3.9921,-4.0323,-4.0328,-4.0277,-4.0543,-4.0298,-4.0006,-4.0006,-4.0208,-4.0902,-4.2553,-4.3454,-4.4386,-4.582,-4.6029,-4.618,-4.6662,-4.6542,-4.6424,-4.6552,-4.6103,-4.5901,-4.6117,-4.5888,-4.5745,-4.588,-4.588,-4.588,-4.588,-4.588,-4.588,-4.588,-4.588,-4.588,-4.588,-4.6824,-4.7767,-4.8725,-4.9045,-4.9364,-4.9717,-4.9717,-4.9717,0.0,0.0,0.0,0.0,0.0,-1.6052,0.0,0.0,0.0,0.0,0.0,0.0,0.0,0.0,0.0,0.0,0.0,0.0,0.0,-2.113,0.0,0.0,0.0,0.0,0.0,-2.3054,-2.3436,-2.3494,-2.4882,-2.6195,-2.7323,-2.8573,-2.9776,-3.0889,-3.0889,-3.0889,-3.0889,-3.0889,-3.0889,-3.0889,-3.0889,-3.0889,-3.0889,-3.0889,-3.0889,-3.0889,-3.0889,-3.0889,-3.0889,-3.0889,-3.0889,-3.0889,-3.0889,-3.1787,-3.3016,-3.3016,-3.4514,-3.6569,-3.6569,-3.7162,-3.7986,-3.7986,-3.7986,-3.7986,-3.7986,-3.8298,-3.8743,-3.9176,-3.9296,-3.932,-3.9429,-3.9453,-3.9477,-3.9585,-3.9525,-3.9508,-3.9715,-4.0343,-4.1299,-4.2643,-4.3563,-4.4584,-4.5874,-4.6111,-4.6069,-4.5942,-4.5684,-4.5487,-4.5534,-4.5221,-4.5124,-4.5413,-4.5413,-4.5504,-4.5745,-4.5745,-4.579,-4.5835,-4.5835,-4.5835,-4.588,-4.588,-4.5938,-4.6069,-4.6693,-4.7332,-4.7956,-4.8595,-4.9175,-4.9717,-4.9717,-4.9717,0.0,0.0,0.0,0.0,-1.563,0.0,0.0,0.0,-1.5703,-1.6111,0.0,0.0,0.0,0.0,0.0,0.0,0.0,0.0,-1.7424,-1.8657,-2.0084,0.0,0.0,0.0,0.0,-2.3552,-2.4553,-2.4835,-2.6854,-2.8228,-2.8677,-2.9962,-3.0762,-3.0889,-3.0889,-3.0889,-3.0889,-3.0889,-3.0889,-3.0889,-3.0889,-3.0889,-3.0889,-3.0889,-3.0889,-3.0889,-3.0889,-3.0889,-3.0889,-3.0889,-3.0889,-3.0889,-3.0889,-3.2227,-3.4224,-3.4224,-3.5717,-3.7814,-3.7814,-3.7868,-3.7986,-3.7986,-3.7986,-3.7986,-3.7986,-3.8022,-3.8082,-3.8154,-3.8166,-3.8286,-3.8779,-3.8912,-3.902,-3.9501,-3.9248,-3.9158,-4.0115,-4.0032,-4.0389,-4.2445,-4.2885,-4.3512,-4.5133,-4.5388,-4.5254,-4.4706,-4.4565,-4.4603,-4.485,-4.4886,-4.4922,-4.5124,-4.517,-4.517,-4.517,-4.517,-4.5307,-4.5549,-4.5549,-4.564,-4.588,-4.588,-4.6142,-4.6662,-4.7346,-4.7985,-4.8624,-4.9248,-4.9611,-4.9717,-4.9717,-4.9717,0.0,0.0,0.0,0.0,0.0,0.0,-1.6001,0.0,-1.5425,0.0,0.0,0.0,0.0,0.0,0.0,0.0,-1.6784,0.0,0.0,0.0,-1.9125,0.0,0.0,0.0,0.0,0.0,0.0,0.0,-2.6163,-2.7579,-2.8847,-2.9412,-3.0089,-3.0889,-3.0889,-3.0889,-3.0889,-3.0889,-3.0889,-3.0889,-3.0889,-3.0889,-3.0889,-3.0889,-3.0889,-3.0889,-3.0889,-3.0889,-3.0889,-3.0889,-3.0889,-3.0889,-3.0889,-3.2342,-3.4391,-3.4391,-3.5936,-3.7986,-3.7986,-3.7986,-3.7986,-3.7986,-3.7986,-3.7986,-3.7986,-3.7986,-3.7986,-3.7986,-3.7986,-3.8034,-3.8274,-3.8334,-3.8543,-3.9378,-3.9414,-3.9556,-4.0619,-4.1175,-4.1739,-4.2647,-4.33,-4.3935,-4.4654,-4.4804,-4.4706,-4.4453,-4.4411,-4.4457,-4.4551,-4.4551,-4.4644,-4.4908,-4.4922,-4.4954,-4.5078,-4.5124,-4.517,-4.5261,-4.5261,-4.5307,-4.5413,-4.5458,-4.5528,-4.5801,-4.6258,-4.6925,-4.7936,-4.8387,-4.9006,-4.9717,-4.9717,-4.9717,-1.8482,0.0,0.0,0.0,0.0,0.0,0.0,0.0,0.0,0.0,0.0,0.0,0.0,0.0,0.0,0.0,0.0,-1.6323,0.0,-1.6652,0.0,0.0,0.0,0.0,0.0,0.0,0.0,0.0,0.0,-2.7356,-2.934,-2.9359,-2.977,-3.0889,-3.0889,-3.0889,-3.0889,-3.0889,-3.0889,-3.0889,-3.0889,-3.0889,-3.0889,-3.0889,-3.0889,-3.0889,-3.0889,-3.0889,-3.0889,-3.0889,-3.0889,-3.0947,-3.1286,-3.2618,-3.4391,-3.4391,-3.5936,-3.7986,-3.7986,-3.7986,-3.7986,-3.7986,-3.7986,-3.7986,-3.7986,-3.7986,-3.7986,-3.7986,-3.7986,-3.7986,-3.7986,-3.7986,-3.8291,-3.9351,-3.9609,-3.9956,-4.1356,-4.2257,-4.2889,-4.3191,-4.3851,-4.4411,-4.4411,-4.4411,-4.4411,-4.4411,-4.4411,-4.4411,-4.4411,-4.4411,-4.4457,-4.4644,-4.469,-4.4737,-4.4908,-4.4894,-4.4954,-4.4986,-4.5078,-4.5124,-4.5124,-4.5124,-4.5124,-4.5124,-4.5651,-4.6376,-4.7281,-4.7845,-4.8625,-4.9585,-4.9683,-4.9717,0.0,0.0,0.0,-1.7545,0.0,0.0,0.0,0.0,-1.6683,0.0,0.0,0.0,0.0,0.0,0.0,0.0,0.0,0.0,0.0,0.0,0.0,0.0,0.0,0.0,0.0,0.0,0.0,0.0,0.0,0.0,-3.0752,-3.0401,-3.0372,-3.0879,-3.0889,-3.0889,-3.0889,-3.0889,-3.0889,-3.0889,-3.0889,-3.0889,-3.0889,-3.0889,-3.0889,-3.0889,-3.0889,-3.0889,-3.0889,-3.0889,-3.0889,-3.1005,-3.218,-3.3346,-3.4391,-3.4391,-3.5936,-3.7986,-3.7986,-3.7986,-3.7986,-3.7986,-3.7986,-3.7986,-3.7986,-3.7986,-3.7986,-3.7986,-3.7986,-3.7986,-3.7986,-3.7986,-3.8291,-3.9351,-3.9609,-4.0198,-4.2293,-4.2792,-4.3095,-4.4162,-4.4364,-4.4411,-4.4411,-4.4411,-4.4411,-4.4411,-4.4411,-4.4411,-4.4411,-4.4411,-4.4411,-4.4411,-4.4411,-4.4411,-4.4411,-4.4411,-4.4551,-4.4783,-4.5,-4.5124,-4.5124,-4.5124,-4.5124,-4.5124,-4.6309,-4.6986,-4.7043,-4.8287,-4.9015,-4.932,-4.9585,-4.9717,0.0,0.0,-1.9835,-1.8862,0.0,0.0,0.0,0.0,0.0,0.0,0.0,0.0,0.0,0.0,0.0,0.0,0.0,0.0,0.0,0.0,0.0,0.0,0.0,0.0,0.0,0.0,0.0,0.0,0.0,0.0,0.0,-3.0576,-3.0586,-3.043,-3.0732,-3.0889,-3.0889,-3.0889,-3.0889,-3.0889,-3.0889,-3.0889,-3.0889,-3.0889,-3.0889,-3.0889,-3.0889,-3.0889,-3.0889,-3.0889,-3.1344,-3.2123,-3.2524,-3.3899,-3.5564,-3.5564,-3.6611,-3.7986,-3.7986,-3.7986,-3.7986,-3.7986,-3.7986,-3.7986,-3.7986,-3.7986,-3.7986,-3.7986,-3.7986,-3.7986,-3.7986,-3.8542,-3.9351,-4.0414,-4.1206,-4.2097,-4.3553,-4.3851,-4.396,-4.4317,-4.4411,-4.4411,-4.4411,-4.4411,-4.4411,-4.4411,-4.4411,-4.4411,-4.4411,-4.4411,-4.4411,-4.4411,-4.4411,-4.4411,-4.4411,-4.4411,-4.4457,-4.4504,-4.4597,-4.463,-4.463,-4.463,-4.463,-4.463,-4.5638,-4.6357,-4.6818,-4.7755,-4.8516,-4.9058,-4.9143,-4.9688,-2.1387,-2.1145,0.0,-1.9689,-1.95,0.0,-1.8357,0.0,-1.7409,0.0,0.0,0.0,0.0,0.0,0.0,0.0,0.0,0.0,0.0,-1.4027,0.0,0.0,0.0,0.0,0.0,0.0,0.0,0.0,0.0,0.0,0.0,0.0,-3.0351,-3.0205,-3.0488,-3.0723,-3.0889,-3.0889,-3.0889,-3.0889,-3.0889,-3.0889,-3.0889,-3.0889,-3.0889,-3.0889,-3.0889,-3.0889,-3.0889,-3.0889,-3.1624,-3.2742,-3.313,-3.4514,-3.6177,-3.6177,-3.6947,-3.7986,-3.7986,-3.7986,-3.7986,-3.7986,-3.7986,-3.7986,-3.7986,-3.7986,-3.7986,-3.7986,-3.7986,-3.7986,-3.7986,-3.8489,-3.9403,-4.0869,-4.1703,-4.2647,-4.4115,-4.4411,-4.4411,-4.4411,-4.4411,-4.4411,-4.4411,-4.4411,-4.4411,-4.4411,-4.4411,-4.4411,-4.4411,-4.4411,-4.4411,-4.4411,-4.4411,-4.4411,-4.4411,-4.4411,-4.4411,-4.4411,-4.4411,-4.4411,-4.4411,-4.4411,-4.4509,-4.4734,-4.5495,-4.6226,-4.6882,-4.7638,-4.8233,-4.8745,-4.8745,-4.9493]}]]